ECMWFNIL_850_thetae_000.txt.gz
Theta_e
310 310 311 311 311 310 310 309 309 309 310 310 309 308 307 307 306 306 306 306 305 305 304 303 303 303 304 304 304 304 303 303 303 303 302 302 302 302 302 302 302 302
311 310 311 311 311 311 310 309 309 309 310 310 310 309 308 307 307 306 306 306 305 305 304 304 303 303 304 304 304 304 304 303 303 302 302 302 302 302 302 302 302 302
311 311 311 312 312 312 310 309 309 309 310 310 310 309 309 308 307 307 306 306 306 306 305 304 303 303 304 304 304 304 304 304 303 303 302 302 301 301 301 301 301 301
312 312 312 312 313 312 312 310 309 309 310 310 311 310 309 308 308 307 306 306 306 306 305 304 303 303 303 304 304 304 304 303 303 303 302 302 302 301 301 301 301 301
314 314 313 313 314 314 313 311 309 309 309 310 311 310 309 308 308 307 307 306 306 306 306 305 304 303 303 303 304 304 304 303 303 303 303 303 302 302 302 301 301 301
315 315 315 314 314 315 314 312 310 309 310 310 311 311 310 309 308 308 307 306 306 306 306 306 304 303 303 303 303 304 304 303 303 303 302 302 302 302 302 302 301 301
316 316 316 316 315 315 316 314 311 309 310 311 311 311 310 309 309 309 308 307 306 306 306 306 305 303 303 304 304 304 304 303 303 303 302 302 301 301 301 301 301 301
317 317 317 317 317 316 317 316 312 310 310 311 311 312 311 310 310 310 309 308 307 306 307 306 305 303 303 303 304 304 304 304 303 303 302 301 301 300 300 300 300 300
318 318 317 317 317 317 317 317 313 311 311 311 312 312 312 311 311 311 311 309 308 307 307 306 305 303 303 303 303 304 304 304 303 303 302 302 301 300 299 299 299 299
318 319 318 318 317 317 318 317 315 312 312 312 312 313 313 312 311 312 312 311 309 307 307 306 305 303 303 303 304 304 304 303 303 303 302 301 300 299 299 298 298 298
318 318 318 319 318 318 318 318 316 314 313 313 313 313 313 312 312 312 312 312 309 307 307 306 304 303 303 303 303 303 303 303 303 302 301 300 299 299 299 298 298 297
319 317 317 319 318 317 318 318 317 315 314 314 313 313 313 312 312 312 312 312 309 307 306 305 304 303 303 303 303 303 303 302 301 300 300 299 299 299 298 297 297 296
320 319 318 319 318 317 317 318 318 316 315 315 313 312 312 312 312 312 312 311 308 306 305 304 303 302 303 303 303 302 302 301 300 299 299 299 298 298 297 296 296 295
321 319 318 318 319 318 316 316 317 317 316 315 313 312 311 311 311 312 311 308 306 305 304 303 302 302 303 303 302 302 301 300 299 299 299 298 297 296 295 295 295 295
320 320 319 318 318 319 316 314 315 317 316 315 313 311 310 311 311 310 308 306 305 304 303 302 303 303 303 302 301 300 300 300 299 299 297 296 295 295 295 295 296 296
317 318 319 319 318 318 317 315 314 315 317 316 313 310 310 311 310 308 307 305 304 304 303 303 303 303 303 301 301 300 300 299 298 296 295 294 294 295 295 295 295 296
314 316 317 318 319 318 317 315 314 315 316 315 312 309 310 310 309 308 306 305 304 304 304 304 304 303 302 301 301 300 299 297 295 294 294 294 294 294 294 294 294 295
312 314 316 317 318 319 318 316 314 315 316 314 311 309 309 309 308 307 305 305 305 305 305 304 303 302 301 301 300 299 296 294 293 293 293 293 293 293 293 293 293 294
312 314 317 318 318 319 318 315 314 315 314 311 310 309 309 309 308 306 306 306 306 305 305 304 303 302 301 300 298 295 293 293 292 293 292 292 293 292 292 292 293 293
312 314 317 319 319 319 318 315 314 314 312 310 309 310 309 308 307 305 306 307 306 306 304 303 302 302 300 298 295 294 293 292 292 292 292 292 292 292 292 292 292 293
310 312 316 318 319 319 318 316 314 313 312 310 309 309 308 307 306 305 306 306 306 305 304 303 301 300 297 296 294 293 292 292 292 292 292 292 292 292 292 292 292 293
306 309 313 316 318 318 318 316 314 312 310 309 310 309 307 305 305 305 305 305 305 304 303 301 299 297 296 295 294 292 292 292 292 293 292 292 292 291 291 292 292 293
304 307 312 315 316 317 317 314 312 311 310 310 310 308 305 304 304 304 304 303 303 302 300 298 297 296 296 295 294 292 292 292 292 292 292 292 292 292 291 291 291 292
303 308 313 314 315 317 316 312 311 311 310 309 307 305 304 304 303 303 303 302 301 300 297 296 296 296 296 295 293 292 292 293 293 293 292 292 292 292 291 291 291 292
304 308 313 314 315 316 314 311 310 310 308 306 305 304 304 303 302 302 302 301 299 297 296 296 296 296 295 294 293 293 293 293 293 293 293 293 292 291 291 290 291 292
305 310 314 315 314 313 312 311 309 307 305 304 305 304 303 302 301 300 299 298 297 296 296 296 296 295 294 294 293 293 293 293 293 293 293 293 292 291 290 290 291 292

ECMWFNIL_850_thetae_003.txt.gz
Theta_e
310 309 309 309 310 310 311 311 311 311 311 310 310 308 307 307 306 306 306 305 305 305 304 304 303 304 304 304 304 304 304 304 304 304 304 304 303 303 303 302 302 302
312 310 309 308 309 310 311 311 311 311 311 311 311 309 308 307 306 306 306 305 306 305 305 304 304 304 304 304 304 304 304 304 304 304 304 304 303 303 303 303 302 302
312 311 310 309 309 310 311 312 312 311 312 311 312 311 309 308 307 306 306 305 306 305 305 305 304 304 304 304 304 304 304 304 304 304 304 304 303 303 303 302 302 302
313 313 312 311 310 310 310 312 312 312 312 311 312 312 311 309 308 307 306 306 306 306 306 305 305 304 304 304 304 304 304 304 304 304 304 304 303 303 303 302 302 302
315 315 314 313 311 310 311 311 313 313 312 311 311 312 312 311 309 308 307 306 306 306 306 306 306 305 304 304 304 304 304 304 304 304 304 304 303 303 303 302 302 301
315 316 315 315 313 312 311 312 313 314 313 312 312 312 312 312 311 309 308 307 306 306 305 306 306 306 305 304 303 304 304 304 304 304 304 304 303 303 303 302 301 301
316 317 316 316 315 314 313 312 313 314 315 313 312 312 312 313 312 311 309 308 307 306 305 306 306 306 306 305 304 303 303 304 304 304 304 304 304 303 303 302 301 301
315 316 316 316 316 315 314 314 314 315 316 315 313 312 313 313 313 312 311 309 308 307 307 306 306 307 306 306 305 303 303 303 303 304 304 303 303 303 302 302 301 300
315 316 316 316 316 316 316 315 315 316 317 316 314 313 313 313 313 313 312 311 310 309 308 307 307 306 307 306 305 304 303 303 303 303 303 303 303 302 301 301 300 300
317 316 316 316 316 316 316 316 316 316 317 317 316 314 313 313 314 313 313 312 311 311 310 309 308 307 307 306 306 305 303 303 303 303 303 302 302 301 300 300 299 299
319 318 317 316 315 316 316 317 317 317 317 318 317 316 313 313 314 314 313 313 312 312 311 311 309 308 308 307 306 305 304 303 303 303 303 302 301 300 300 299 298 297
320 320 319 318 316 316 315 316 317 318 318 318 318 316 314 314 314 314 313 313 313 312 312 312 311 310 309 307 306 305 304 303 303 303 302 302 300 300 299 297 296 296
319 320 321 320 319 318 317 317 317 318 319 319 319 317 315 314 314 314 313 313 313 312 312 312 312 311 309 308 306 305 303 302 302 302 302 301 300 299 297 296 295 295
315 318 320 320 320 320 320 319 319 319 319 318 319 318 316 315 314 314 313 313 313 313 312 312 312 311 309 307 305 304 303 302 302 302 301 301 299 298 296 295 294 294
310 312 315 318 320 320 320 320 320 320 319 319 319 319 317 315 314 314 314 313 312 312 312 312 312 310 308 306 304 303 302 302 302 302 301 299 297 295 294 294 293 293
308 308 309 313 316 318 319 320 320 320 319 319 319 318 318 315 313 313 313 312 311 311 311 311 310 308 306 304 303 303 302 302 302 301 299 297 295 293 293 293 293 293
307 308 307 309 312 316 319 319 319 319 318 318 317 316 316 315 313 312 312 311 310 310 311 310 309 307 305 304 303 303 302 302 300 298 296 294 293 293 293 292 293 292
306 307 308 308 311 315 318 319 318 318 317 318 317 315 315 315 313 310 311 311 310 310 310 308 307 306 305 304 303 303 302 301 298 296 294 293 293 292 292 292 292 292
305 305 306 307 310 314 317 319 319 318 317 317 317 315 314 314 313 311 310 311 310 310 308 307 306 305 304 304 303 303 301 299 296 294 293 292 292 292 292 292 292 292
303 304 304 305 307 310 314 318 318 318 317 317 316 315 314 314 313 311 310 310 309 308 307 306 305 304 304 303 303 302 299 297 295 294 292 292 292 292 292 292 292 292
302 303 303 304 304 306 310 315 318 317 317 316 315 315 314 313 313 311 309 309 309 307 306 305 304 304 303 303 302 299 297 296 295 293 292 292 292 291 292 292 292 292
301 302 302 303 304 304 307 313 316 317 316 316 314 314 314 313 312 310 309 309 307 306 305 305 304 303 303 301 299 297 296 295 294 292 292 292 292 291 292 292 292 292
301 302 302 303 303 304 306 311 314 316 316 315 313 313 313 312 311 309 309 308 306 305 305 304 303 302 300 298 297 296 295 294 293 293 293 292 292 292 293 293 292 292
300 301 302 303 302 303 306 310 313 314 315 315 314 313 312 311 310 308 307 306 305 304 303 302 301 299 297 296 296 295 294 293 293 293 293 293 292 293 293 293 292 292
300 300 302 303 302 302 306 311 313 314 314 314 313 312 310 310 308 306 305 304 304 303 301 300 298 297 296 295 295 294 294 293 293 293 293 293 293 293 293 293 292 292
300 300 302 303 303 303 308 312 314 314 314 313 312 310 309 308 306 305 304 304 302 300 299 297 296 295 295 294 294 293 293 293 293 293 293 293 293 293 293 292 292 291

ECMWFNIL_850_thetae_006.txt.gz
Theta_e
309 308 309 309 309 311 311 313 314 312 312 314 315 314 312 307 306 306 305 306 305 305 305 304 304 305 305 305 305 305 305 305 305 305 305 304 304 304 303 303 303 303
309 308 309 309 309 310 310 311 312 312 312 313 314 315 313 308 306 307 306 306 306 305 305 305 304 304 304 304 304 304 305 305 305 305 305 304 304 303 303 303 302 302
310 309 309 309 309 309 310 310 311 312 312 312 312 313 311 309 308 307 306 306 306 306 306 305 305 304 304 304 304 304 304 304 305 305 304 304 304 303 303 303 302 302
312 311 310 309 309 309 309 310 311 312 312 312 312 312 311 311 309 308 307 306 306 306 306 306 305 305 304 304 304 304 304 304 304 304 304 304 304 304 303 303 302 302
312 312 311 310 309 309 309 309 310 311 312 313 313 312 312 311 311 310 308 307 306 306 306 306 306 306 305 305 304 304 304 304 304 304 304 304 304 304 304 303 303 302
313 313 312 311 311 310 310 310 310 310 311 312 313 313 312 312 312 311 311 309 307 307 306 306 306 306 306 306 305 305 304 304 304 304 304 304 304 304 304 303 303 302
313 313 313 313 312 312 312 311 310 310 310 311 313 313 313 312 312 312 312 311 309 308 307 307 306 307 307 307 306 306 305 304 304 303 303 304 304 304 304 303 303 301
311 312 313 313 313 313 313 313 312 311 311 311 312 313 314 313 313 312 312 312 311 310 308 308 307 307 307 307 307 307 307 306 305 304 303 303 303 303 303 303 303 302
314 313 313 312 313 313 313 314 314 314 313 312 312 313 314 314 313 313 313 313 312 311 310 309 308 308 308 308 308 307 307 307 306 305 304 303 303 303 303 303 303 302
318 318 317 316 315 314 313 313 314 315 315 314 313 314 315 315 315 313 313 313 313 312 311 311 310 310 310 309 309 309 308 308 307 306 305 303 303 303 303 303 303 302
319 319 319 318 318 317 316 314 313 314 315 316 315 315 315 316 316 315 314 313 313 313 312 312 311 311 310 310 310 310 310 309 308 306 305 304 303 303 303 303 302 301
318 319 320 320 319 318 317 316 315 314 314 315 315 316 316 317 316 316 314 313 313 313 313 312 312 312 311 311 311 311 311 310 309 306 305 304 303 303 303 302 301 300
312 315 318 321 322 321 320 319 318 318 317 316 316 315 315 316 317 316 315 314 314 313 313 313 313 312 311 311 311 311 312 311 309 307 305 304 303 302 302 302 300 298
308 309 311 316 320 322 322 322 321 321 320 319 318 317 316 316 316 316 315 314 314 314 314 313 313 312 312 311 311 312 312 311 309 306 305 303 303 303 302 301 299 297
307 307 308 309 311 315 318 321 322 322 321 321 320 319 318 317 317 316 315 314 314 314 314 313 313 313 312 312 312 311 311 310 307 305 304 303 302 302 300 299 297 295
306 306 307 307 308 308 311 316 320 321 321 321 320 320 320 319 318 317 316 315 314 314 314 314 313 312 312 312 311 311 310 308 306 304 303 303 301 300 298 296 295 294
304 305 306 306 306 307 307 310 315 319 320 320 320 319 319 319 318 317 316 314 314 314 314 314 313 312 311 311 311 310 308 306 305 304 303 302 300 298 296 295 295 294
303 303 304 306 306 306 306 306 309 314 317 319 319 318 318 318 318 317 316 314 313 313 314 313 312 312 311 310 310 308 307 305 304 303 302 301 299 297 295 295 295 294
301 303 304 305 305 304 305 307 308 309 312 316 318 317 318 317 317 316 315 314 313 313 312 312 311 312 311 309 308 307 306 304 303 302 301 299 297 296 295 295 294 293
301 303 303 304 304 304 303 305 307 307 309 313 315 316 318 318 317 316 315 314 313 313 313 312 310 310 309 308 307 306 305 304 302 301 299 297 296 295 294 293 293 293
302 302 302 302 302 303 303 302 304 305 307 311 313 314 316 318 317 316 315 314 312 312 313 312 309 308 308 307 305 305 304 303 301 299 297 296 295 294 293 293 293 293
301 300 301 301 302 303 304 302 302 302 304 309 313 314 315 316 316 315 315 314 312 311 311 311 309 308 307 306 305 304 302 300 298 297 296 296 296 295 294 295 295 294
299 299 299 301 302 304 307 305 303 302 303 307 312 313 314 316 316 315 314 313 311 310 310 309 307 306 305 305 303 302 299 297 297 297 297 297 297 296 296 296 296 295
299 298 298 300 302 304 307 306 304 303 303 306 311 313 314 314 315 314 313 312 310 309 308 307 305 305 304 303 301 298 297 296 296 297 297 297 297 297 297 297 297 296
299 299 298 299 300 302 305 307 305 305 306 309 311 312 312 313 314 313 312 311 310 308 307 305 304 304 302 299 297 296 295 295 295 296 297 297 297 297 297 297 297 296
299 299 299 299 299 301 304 307 307 306 308 311 311 311 311 313 313 313 312 311 308 307 305 304 303 301 299 296 295 295 294 293 294 295 296 296 297 297 297 297 296 296

ECMWFNIL_850_thetae_009.txt.gz
Theta_e
319 319 318 317 318 319 318 319 319 317 316 318 318 317 316 311 308 308 307 307 307 306 306 305 305 305 306 305 307 308 306 305 306 305 306 306 305 305 304 303 303 303
320 320 320 319 318 320 319 319 320 318 316 318 318 318 316 311 308 308 308 307 307 307 307 306 306 305 306 305 305 306 305 305 305 305 305 305 305 305 304 304 303 303
320 321 321 321 319 319 320 320 320 319 317 317 318 318 316 311 309 309 308 308 307 307 307 307 307 306 305 306 305 305 305 305 305 305 305 305 305 305 304 304 304 303
319 320 321 322 320 320 321 321 321 320 318 317 318 318 316 311 310 310 309 308 308 308 308 307 307 307 306 306 306 305 305 305 305 304 305 304 304 305 305 304 304 304
318 320 322 322 322 321 322 322 321 320 319 318 318 318 317 313 311 311 310 309 309 308 308 308 308 307 307 307 307 306 306 305 305 305 304 304 304 304 304 304 305 305
321 323 323 322 322 322 323 323 321 320 320 320 319 319 318 314 312 312 311 310 310 309 308 308 308 308 307 308 307 307 307 307 306 305 305 305 304 304 304 304 304 304
323 322 320 319 321 322 323 322 320 320 320 320 319 319 318 315 313 313 312 312 311 310 310 308 308 308 308 308 308 308 308 308 307 306 306 307 305 304 304 304 304 304
321 318 316 316 316 321 324 323 319 319 321 319 318 319 318 315 314 314 313 313 313 313 312 311 310 309 308 308 308 308 308 308 308 307 308 308 306 304 305 305 304 304
320 316 315 315 313 316 321 323 321 320 321 321 319 319 319 317 315 316 314 314 315 315 314 314 313 311 310 309 309 309 309 309 309 308 308 308 306 305 306 306 304 304
322 318 317 320 320 317 317 320 322 321 320 322 322 321 320 319 317 317 317 316 316 316 315 315 314 313 311 310 309 309 309 309 310 309 309 309 307 307 306 305 303 303
322 321 321 322 322 321 321 321 323 322 321 321 323 322 320 319 319 318 318 318 317 316 316 315 314 313 312 311 310 310 310 310 310 310 310 309 308 307 306 305 304 303
319 321 323 323 321 321 323 324 323 322 321 321 323 322 320 320 320 319 319 319 318 318 317 316 315 314 313 312 312 311 310 310 310 310 310 310 309 308 306 305 304 303
314 316 319 320 320 320 321 324 324 323 321 321 322 322 321 319 318 319 319 319 319 318 318 318 316 315 314 313 313 312 311 311 311 310 310 310 309 308 306 305 304 303
310 311 312 314 315 315 314 316 321 324 324 323 321 322 322 320 318 318 319 319 319 319 319 318 317 316 315 314 313 313 312 311 311 310 310 310 309 308 306 305 304 303
309 309 310 311 310 310 309 308 313 319 322 323 323 323 322 322 320 319 319 319 319 319 319 318 318 316 315 314 314 313 312 312 311 310 310 309 308 307 305 304 303 302
309 309 310 311 311 312 311 310 310 314 318 320 322 323 322 322 322 320 320 320 320 320 319 318 318 316 315 314 313 313 312 311 311 311 309 308 307 306 304 303 303 302
309 309 309 310 312 314 315 315 315 316 318 320 321 321 321 321 321 321 321 321 320 320 319 318 317 316 315 314 314 313 312 311 311 310 308 308 306 305 304 303 302 301
307 307 307 308 310 312 314 316 317 318 319 319 320 319 319 319 320 321 321 321 320 318 318 317 316 316 315 314 314 313 312 311 310 308 307 306 305 304 303 302 302 301
307 307 307 308 308 310 312 314 315 316 317 318 318 318 318 318 318 319 320 320 319 318 317 316 316 315 314 313 313 313 312 311 309 306 306 305 304 303 303 302 301 301
307 307 307 308 308 308 309 312 313 314 315 316 316 317 317 317 317 318 318 319 318 317 316 315 314 314 313 313 313 312 311 310 307 305 304 304 303 303 302 301 300 299
308 308 307 308 308 308 308 310 311 314 315 315 314 315 316 316 317 317 317 317 317 317 316 315 314 314 313 312 312 311 310 309 306 305 305 304 303 302 301 300 299 298
308 307 307 307 307 307 308 309 310 312 314 315 314 314 315 315 315 316 317 317 317 316 315 315 314 313 313 312 311 310 309 307 306 305 304 303 302 301 301 300 300 299
308 307 307 307 307 307 308 308 309 311 313 314 314 314 314 314 314 315 316 316 317 315 315 314 313 312 311 310 309 308 307 306 305 304 303 302 302 301 301 301 300 300
307 307 307 306 306 306 307 307 308 309 311 313 313 314 314 313 314 315 314 315 316 315 314 314 313 311 310 309 308 308 307 306 304 302 301 301 301 301 301 301 301 300
307 307 307 307 307 306 307 307 307 309 311 312 312 313 313 313 313 314 314 314 314 314 313 313 311 310 309 308 308 307 306 305 302 300 300 301 300 300 300 300 301 300
306 306 307 307 307 307 306 306 307 308 310 312 312 312 312 312 313 313 313 313 313 313 312 310 309 309 308 307 306 305 305 304 300 297 298 299 300 300 300 300 299 299

ECMWFNIL_850_thetae_012.txt.gz
Theta_e
317 318 314 311 311 311 311 313 317 318 317 316 312 309 308 308 308 308 307 307 307 307 306 306 306 306 306 307 307 306 306 306 306 306 306 305 305 305 304 304 304 304
314 316 314 312 314 315 314 316 319 317 317 319 317 313 309 307 308 308 307 308 307 307 307 306 306 306 306 306 306 306 306 306 305 305 306 306 305 305 304 304 304 304
315 316 315 313 316 320 317 318 321 318 317 319 319 316 312 308 308 308 308 308 307 307 307 307 307 307 306 306 306 306 306 306 306 306 305 305 305 305 304 304 304 304
319 319 319 316 317 320 319 318 320 320 318 319 319 318 314 310 309 309 308 308 308 308 308 307 307 307 307 307 307 307 307 306 306 306 306 305 305 305 305 305 305 305
322 321 321 320 319 320 320 320 320 321 319 318 318 319 317 313 311 310 309 309 308 308 308 308 308 308 308 307 307 307 307 307 307 306 306 306 306 306 305 306 306 306
323 323 322 322 321 320 320 321 321 321 321 319 319 319 318 316 313 311 311 310 309 309 308 309 308 308 309 308 308 308 308 308 307 307 307 307 306 306 306 306 306 306
324 324 324 323 322 321 321 322 322 322 321 320 319 319 319 319 317 314 312 311 311 310 310 309 309 309 308 308 308 309 308 308 308 308 308 308 307 307 306 306 305 306
324 324 324 323 323 323 322 323 323 322 320 320 320 320 320 320 319 318 316 314 313 312 312 311 310 309 309 309 309 309 309 309 309 308 308 309 308 307 307 307 307 305
324 324 323 323 323 323 321 321 322 321 320 319 320 320 320 320 320 320 319 317 315 314 314 314 313 311 310 309 309 309 309 309 309 309 309 309 309 308 308 309 308 306
323 323 323 324 324 323 321 321 321 322 322 320 319 319 319 319 320 320 320 319 318 317 316 316 315 314 313 311 310 309 309 309 309 309 309 309 309 309 309 308 308 307
321 320 321 322 322 321 320 318 318 319 320 319 319 318 318 319 320 320 320 320 319 318 318 318 317 316 315 314 312 311 310 310 309 309 309 310 310 309 309 309 308 308
317 318 320 321 320 320 319 318 318 318 319 319 319 317 317 318 319 320 320 319 319 319 319 319 318 318 317 316 315 313 312 311 310 310 310 310 310 310 310 309 309 308
315 317 319 319 318 319 318 317 317 317 317 317 318 317 317 317 318 320 320 319 319 319 319 319 319 319 318 317 316 315 314 313 312 311 311 311 310 310 310 310 310 309
315 315 315 314 314 315 315 315 314 314 314 314 316 317 317 317 318 319 320 319 318 318 319 319 319 319 319 318 317 316 315 314 313 312 312 311 311 311 310 310 310 309
312 311 310 310 310 311 312 312 313 312 312 314 317 316 316 316 318 319 319 318 318 318 319 319 319 319 319 318 317 317 316 315 314 313 312 311 311 311 311 310 310 309
310 310 310 310 310 311 312 312 313 313 313 315 318 319 318 320 321 321 321 320 318 318 318 319 318 318 318 318 318 317 316 315 314 314 313 312 311 311 310 310 309 308
310 310 311 310 312 314 315 315 316 318 318 318 319 320 321 321 321 322 322 321 320 319 319 318 318 317 317 318 318 317 316 315 315 314 313 312 311 310 310 309 309 308
308 308 308 308 309 311 312 314 316 317 318 318 319 319 320 320 321 320 320 320 321 321 321 320 318 316 317 317 318 317 317 315 314 314 313 312 310 310 309 308 308 306
307 307 307 308 308 309 309 311 313 314 315 315 316 318 318 318 318 316 315 317 321 321 320 320 319 317 316 316 317 317 317 315 314 313 312 311 310 309 308 307 306 305
307 308 308 308 308 308 308 308 309 311 313 314 315 316 316 316 316 314 311 313 317 319 318 319 319 318 317 317 317 317 317 315 313 312 311 310 309 308 307 306 305 304
308 309 309 308 307 307 308 308 308 309 310 312 314 314 314 315 315 315 314 312 313 315 316 317 319 319 318 317 317 317 316 314 313 312 310 308 307 307 306 305 305 304
308 309 308 308 307 307 307 307 308 308 309 311 313 314 314 314 314 315 315 314 313 315 316 317 317 318 317 317 317 316 315 313 313 312 309 307 307 306 306 305 304 304
308 309 308 308 307 307 307 307 307 307 307 308 311 312 313 314 314 314 315 314 314 315 317 317 317 317 317 316 316 315 314 313 313 311 309 307 306 306 305 304 304 303
308 308 308 307 307 306 306 306 305 304 305 307 309 311 312 313 313 314 314 314 314 315 316 316 316 316 316 316 316 315 314 313 312 310 307 306 305 304 303 303 303 302
307 307 307 307 306 306 305 305 304 302 302 304 307 309 311 312 312 313 313 313 313 314 315 315 316 316 316 315 315 314 313 312 310 307 304 303 303 302 302 302 302 302
306 306 307 307 307 307 308 307 305 302 300 302 304 307 311 312 311 312 312 312 313 314 314 315 315 316 315 314 313 312 311 310 308 305 303 302 301 301 301 301 301 301

ECMWFNIL_850_thetae_015.txt.gz
Theta_e
316 311 309 309 309 309 309 308 308 308 308 308 308 307 307 307 307 307 307 307 306 306 306 306 306 306 307 306 306 306 306 306 306 306 306 306 306 305 305 305 305 304
318 314 310 310 309 309 310 309 308 309 309 309 308 308 307 307 307 307 307 307 307 307 306 306 306 306 306 306 306 306 306 306 305 305 305 305 305 305 305 304 304 304
320 317 312 312 311 310 310 311 310 310 309 310 310 309 308 308 308 307 307 307 307 307 307 307 307 306 306 306 306 306 306 306 305 305 305 305 305 304 304 304 304 304
321 319 315 314 315 313 313 315 315 312 311 311 311 310 310 309 308 308 308 307 307 307 307 307 307 307 307 307 306 306 306 306 306 305 305 305 305 305 304 304 305 305
321 321 318 317 319 318 316 317 318 316 314 312 311 311 311 311 310 309 309 308 308 308 308 308 307 307 307 307 307 307 307 307 307 306 306 305 306 306 305 305 305 306
321 321 320 318 320 320 319 318 319 319 318 316 314 313 313 313 312 311 310 310 309 309 309 308 308 308 308 308 308 308 308 308 308 307 307 307 307 306 306 306 306 306
321 321 321 319 319 321 320 319 319 320 320 319 318 317 316 316 316 315 314 313 312 312 311 310 309 309 308 308 308 308 308 308 308 308 308 308 308 307 307 307 307 307
321 321 321 320 321 322 321 321 320 321 321 320 319 319 318 318 318 318 318 318 317 316 315 313 312 311 310 309 308 308 308 308 308 308 309 309 308 308 308 308 307 307
320 320 320 320 322 322 322 321 321 321 321 321 320 320 320 320 319 319 320 319 319 319 318 317 316 315 314 312 310 309 308 308 308 309 309 309 309 309 308 308 308 308
319 320 320 321 321 322 322 322 322 322 322 321 320 319 319 319 319 319 319 319 320 320 320 319 318 317 317 316 314 313 311 309 309 309 309 309 309 309 309 309 309 309
320 320 321 320 320 321 320 321 322 322 322 321 320 319 319 319 319 319 319 319 320 321 320 319 319 319 318 318 317 316 315 313 311 310 309 309 309 309 309 309 309 309
320 320 320 320 318 318 318 319 321 321 320 319 319 319 318 318 319 319 319 319 320 320 320 320 319 319 319 318 318 318 318 316 315 313 311 310 310 309 309 309 309 309
320 319 319 318 317 318 319 320 320 319 318 317 317 317 317 318 319 319 318 319 319 319 319 319 319 318 319 319 319 318 318 318 317 315 314 312 311 310 310 310 310 310
317 317 319 319 319 320 321 320 320 318 316 316 317 316 316 316 316 317 318 318 318 317 317 317 317 316 317 318 318 318 318 318 317 317 316 314 313 312 311 311 310 310
315 318 319 320 320 320 320 320 319 317 315 315 315 314 313 313 314 316 317 317 317 317 316 317 317 316 317 318 318 318 318 318 318 317 316 315 314 313 312 311 311 311
314 316 315 314 315 314 315 315 315 314 313 313 313 313 314 315 315 315 315 315 316 317 317 317 318 317 317 318 318 319 318 318 317 317 316 315 314 314 313 312 312 311
312 312 311 311 313 314 314 315 315 315 316 316 316 317 317 318 317 317 316 315 316 317 318 319 319 318 318 318 318 319 318 318 318 317 316 316 315 315 314 313 312 311
310 310 309 310 312 313 313 315 317 318 318 318 318 318 318 318 318 318 317 316 316 316 317 318 319 320 320 319 319 319 319 318 318 317 317 316 315 315 314 313 313 311
308 308 307 308 309 309 310 313 315 316 316 315 315 316 317 318 317 317 316 315 313 312 311 312 316 319 321 321 320 319 319 318 318 317 317 316 316 315 314 313 312 311
307 308 308 308 308 308 308 308 310 311 313 313 314 315 316 316 316 316 314 312 310 308 307 309 312 315 318 320 320 320 318 317 317 317 317 316 315 314 313 312 311 310
307 308 308 308 308 308 306 305 305 307 309 310 311 313 313 314 314 315 314 314 313 311 309 309 310 311 313 316 319 319 318 317 317 317 316 315 313 312 311 311 310 309
308 308 308 308 307 305 303 303 303 304 304 304 306 308 311 312 313 313 313 314 314 314 313 312 311 310 311 314 317 319 318 317 316 316 315 313 311 310 310 309 308 307
308 308 308 307 305 303 303 302 302 302 301 301 301 303 306 310 312 312 312 312 313 313 314 314 312 311 312 315 317 317 317 316 315 315 313 311 309 309 309 308 307 307
307 308 308 307 306 306 305 303 302 301 301 300 300 300 301 305 309 312 312 312 312 312 313 313 313 313 314 315 316 317 316 315 314 313 312 310 309 308 307 306 306 306
307 307 308 307 307 306 305 304 303 303 302 301 300 300 299 302 306 310 311 311 311 312 312 313 313 313 314 314 315 316 316 315 313 312 311 310 308 307 305 305 305 304
306 306 306 306 306 305 304 305 304 304 303 302 301 300 299 301 305 309 311 311 311 311 311 312 313 313 314 314 315 315 315 314 313 311 310 309 307 305 304 304 304 303

ECMWFNIL_850_thetae_018.txt.gz
Theta_e
314 312 311 310 308 308 307 306 307 306 306 306 306 306 306 306 306 306 306 306 306 306 306 306 306 306 306 306 306 306 306 306 305 306 306 305 305 305 305 305 305 304
317 316 314 311 308 308 308 307 307 306 307 307 306 306 306 306 306 306 306 306 306 306 306 306 306 306 306 306 306 306 305 305 305 305 305 305 304 304 304 304 304 303
318 318 318 313 309 309 309 309 308 308 307 307 307 307 307 306 307 306 306 306 306 306 306 306 306 306 307 306 306 306 305 305 305 305 304 304 304 304 303 303 304 303
317 316 319 318 313 311 311 311 311 311 310 308 307 307 307 307 307 307 307 307 306 307 306 306 307 306 306 306 306 306 306 306 305 305 305 305 305 305 304 304 304 304
316 315 319 319 317 315 313 313 314 314 314 312 310 308 308 308 308 308 307 307 307 307 307 307 307 307 307 307 307 307 307 307 306 306 306 306 306 306 306 306 306 306
317 317 320 319 319 318 315 315 317 316 315 315 314 311 310 309 308 308 308 308 308 308 308 308 308 308 307 307 308 307 307 307 307 307 307 307 307 307 307 307 307 307
317 318 320 319 319 319 318 317 318 318 317 316 316 314 313 311 311 311 310 310 310 310 310 310 310 310 309 309 308 308 308 308 308 308 308 308 307 307 308 308 307 307
318 319 319 319 319 319 319 319 318 319 318 318 318 317 315 315 315 314 314 313 312 313 312 312 312 312 311 311 310 310 309 309 308 308 308 308 308 308 308 308 308 308
319 319 318 318 319 318 319 320 319 319 320 320 320 319 318 317 318 318 317 317 316 316 315 314 314 314 314 313 313 313 312 311 310 310 309 308 308 309 309 308 308 308
320 320 318 319 319 317 318 320 320 320 320 320 321 320 319 319 319 319 319 319 318 318 318 317 317 317 317 316 316 316 315 315 314 313 312 310 309 309 308 308 309 308
320 319 318 319 320 318 319 320 320 320 320 321 321 321 320 319 319 319 320 319 318 318 318 318 319 319 319 319 318 317 317 317 317 316 315 314 312 310 309 309 309 309
321 319 318 320 319 319 320 319 319 320 321 321 321 320 320 320 320 320 320 319 319 319 318 318 319 319 319 319 318 318 318 318 318 318 317 317 315 313 312 311 310 309
322 320 320 319 318 320 320 318 318 320 321 321 320 320 320 320 320 320 320 320 320 320 319 319 319 319 319 318 317 318 318 318 318 318 318 318 317 316 314 313 311 310
320 320 319 319 319 320 320 319 319 320 321 321 321 320 320 320 320 320 320 320 320 320 320 320 320 319 319 317 316 316 318 319 318 318 318 318 318 317 316 315 314 312
320 320 320 319 320 320 319 319 318 318 319 320 321 320 319 320 320 320 320 320 320 319 319 319 319 319 319 317 316 316 317 318 319 318 318 318 318 317 316 316 315 314
320 320 319 319 319 319 319 318 318 318 318 319 320 320 319 319 318 318 318 318 318 318 318 318 318 318 318 317 317 317 317 318 318 318 318 318 318 317 316 316 316 315
317 317 316 317 318 318 317 317 317 317 318 318 318 318 316 315 315 316 317 317 316 317 317 317 318 317 317 317 317 318 318 318 318 318 318 318 318 317 317 316 316 315
313 314 314 314 314 314 314 315 315 315 316 316 316 315 315 315 315 316 317 317 317 317 317 317 318 318 319 319 319 319 319 319 319 319 319 319 318 317 317 316 316 315
311 311 311 312 314 314 314 315 316 316 316 316 315 315 315 315 315 315 316 317 318 318 316 316 315 315 316 317 319 320 320 321 320 320 319 319 318 318 317 317 316 315
310 309 308 310 312 312 312 314 315 316 316 315 314 314 314 314 314 314 314 315 315 315 314 312 310 309 308 309 311 315 318 320 320 319 319 318 318 318 317 316 316 315
308 308 307 308 309 309 310 311 312 312 313 313 313 313 314 315 315 315 314 313 313 313 313 310 307 305 306 307 308 310 313 316 318 319 318 317 317 317 316 315 314 314
307 307 307 308 308 308 308 308 308 308 309 310 311 312 313 313 313 312 312 311 311 312 312 311 308 306 307 308 310 310 312 315 317 318 318 317 317 317 315 314 313 313
307 307 308 308 308 308 308 305 304 303 304 304 305 305 305 306 307 308 309 310 309 309 310 310 309 309 310 311 311 311 312 313 315 316 317 316 316 315 313 312 312 311
306 307 308 308 308 308 306 303 302 302 302 301 301 301 300 301 302 304 307 309 310 311 311 309 307 309 311 312 312 312 311 311 313 314 315 315 314 313 312 311 310 309
306 307 308 308 308 307 306 305 304 303 303 302 302 301 301 301 300 301 302 305 307 309 311 308 306 307 310 312 312 312 312 311 312 313 314 314 313 312 311 310 309 308
306 307 307 307 307 307 307 306 305 303 303 302 302 302 302 302 301 300 300 301 304 307 309 309 308 308 309 311 311 312 313 313 312 313 314 314 313 311 309 309 308 308

ECMWFNIL_850_thetae_021.txt.gz
Theta_e
315 313 309 308 308 307 307 306 306 306 305 306 306 305 306 306 307 307 306 306 306 306 306 306 306 306 306 306 306 306 306 305 305 305 305 305 305 305 305 305 305 304
312 312 310 309 308 307 307 306 306 306 305 306 306 305 306 305 305 306 306 306 306 306 306 306 306 306 306 306 305 305 305 305 305 305 305 305 304 304 304 304 304 303
313 313 311 311 309 307 307 307 306 306 306 306 306 306 306 306 306 305 306 306 306 306 306 306 306 306 305 305 305 305 305 305 304 304 304 304 304 304 303 304 304 303
313 312 314 315 312 309 308 307 307 306 307 306 306 306 306 305 305 306 306 306 306 306 306 306 306 305 305 306 305 306 306 305 306 306 305 305 305 305 305 306 305 305
313 314 317 316 313 311 309 307 307 307 306 307 307 306 306 306 306 306 306 306 306 306 306 306 306 306 306 307 307 307 308 308 307 308 307 307 307 307 307 307 307 307
314 316 319 316 313 313 312 310 309 308 307 307 307 307 307 306 306 306 306 306 307 306 307 306 306 307 307 307 308 308 308 308 308 308 308 308 308 307 307 308 308 308
316 317 319 318 316 316 316 312 311 311 310 310 310 308 307 307 307 307 307 307 307 307 307 307 307 307 307 307 308 308 308 308 308 308 308 309 308 308 308 308 307 307
316 317 318 318 317 318 317 313 310 313 315 314 313 312 311 309 308 308 308 307 308 308 307 308 308 308 308 308 308 308 308 308 308 308 308 309 308 308 308 308 308 307
316 317 318 318 317 318 318 313 310 314 317 317 317 317 316 315 313 312 312 312 311 310 310 309 310 310 310 310 309 309 309 309 309 309 308 308 308 308 308 308 308 308
315 317 317 318 317 318 317 313 310 314 318 318 318 319 318 318 317 317 316 317 316 316 315 315 314 314 314 314 313 312 311 311 311 310 310 309 308 308 308 308 308 308
314 315 317 317 317 316 315 312 311 314 318 319 318 319 319 318 318 318 318 318 318 317 318 318 318 317 317 317 317 316 316 315 314 314 313 313 311 310 309 309 309 309
316 316 317 318 317 316 314 314 313 314 316 317 316 317 319 319 319 319 318 319 318 318 318 319 319 319 318 318 318 318 318 318 317 317 316 316 315 314 314 313 311 310
320 320 320 319 318 317 316 316 317 316 317 317 315 317 319 319 319 319 319 319 319 318 318 319 319 319 319 318 319 319 319 318 318 318 318 318 317 317 316 316 315 314
321 321 321 321 319 317 317 319 319 318 319 318 316 317 320 320 319 319 319 319 319 319 319 318 319 320 319 319 319 319 319 318 318 317 317 317 318 318 317 317 317 317
319 318 319 319 318 318 319 319 319 319 320 319 318 318 320 320 319 319 319 319 318 318 317 318 319 319 319 319 319 320 319 319 318 317 317 317 317 318 318 317 317 317
320 318 318 318 318 318 319 319 319 319 319 319 319 318 318 319 319 318 318 317 317 316 316 318 319 319 318 318 318 319 319 319 319 318 318 317 317 318 318 318 317 317
320 320 320 320 319 319 318 319 319 319 318 318 319 318 317 316 316 317 316 316 316 317 318 319 319 318 318 318 318 318 319 319 319 318 318 318 318 318 318 318 318 317
319 320 320 320 320 319 319 319 320 319 319 319 319 318 317 316 316 316 316 316 317 318 318 319 319 319 319 319 319 320 320 320 319 319 319 319 319 318 318 318 318 317
317 318 319 319 319 319 319 319 319 318 318 318 318 318 318 317 318 317 317 317 318 318 319 319 318 317 316 315 315 316 318 319 320 320 320 320 320 319 319 319 318 317
315 316 316 315 315 315 315 316 316 316 316 316 317 318 317 317 317 317 317 317 317 317 317 316 315 314 311 309 309 309 311 313 315 317 318 319 320 320 319 318 318 317
312 312 312 312 314 314 314 314 314 315 316 316 317 317 316 314 314 315 316 316 315 314 313 312 311 311 309 308 308 307 307 308 309 310 311 313 316 318 318 317 317 317
309 310 309 310 311 313 313 313 313 313 314 314 315 314 313 313 313 314 314 314 314 313 311 309 309 309 308 308 307 308 308 308 309 308 309 311 314 316 317 317 317 316
308 308 308 307 307 309 310 310 310 311 311 311 311 311 311 311 311 312 311 311 310 308 307 306 307 307 307 307 307 308 309 310 310 310 310 311 312 314 316 316 316 316
307 307 307 307 307 308 308 308 308 308 307 306 306 306 306 306 306 306 306 306 305 306 306 305 306 308 308 308 307 309 310 311 311 311 310 310 310 311 313 314 315 315
307 306 307 307 307 308 308 308 308 306 304 302 303 303 302 302 301 301 302 302 302 304 305 305 305 307 308 308 308 309 310 310 311 311 311 310 310 310 311 313 313 313
306 306 307 307 308 307 308 307 307 306 303 302 302 302 302 302 302 302 302 301 301 301 301 302 303 304 306 308 308 309 310 310 311 311 312 311 311 312 312 312 312 312

ECMWFNIL_850_thetae_024.txt.gz
Theta_e
322 321 316 310 312 314 310 307 306 306 305 306 305 305 305 307 309 310 308 306 305 306 306 305 306 306 306 306 306 306 306 305 305 305 305 305 305 305 305 305 304 304
319 318 312 310 315 316 310 306 306 306 305 306 305 305 305 306 307 306 305 305 306 306 306 306 306 305 305 305 305 305 305 305 305 304 304 304 304 304 304 303 303 303
317 316 312 313 314 311 308 307 306 306 306 306 305 305 305 305 306 305 305 305 305 306 306 306 305 305 305 305 304 304 304 304 304 304 304 304 304 304 304 303 304 304
315 314 314 314 312 310 309 307 306 306 306 306 306 306 305 305 305 305 305 305 305 305 306 306 306 305 305 305 305 305 305 305 306 306 306 306 306 306 306 306 306 306
316 314 313 313 312 313 311 308 307 307 306 306 306 306 306 306 305 305 305 305 305 305 306 306 306 305 305 305 305 305 305 306 307 307 307 308 308 308 308 308 308 308
317 313 313 313 314 316 313 307 307 308 307 307 306 306 306 306 306 306 306 306 305 306 306 306 306 306 306 306 305 305 306 305 306 306 306 307 307 307 308 308 308 308
317 313 313 314 315 316 312 307 307 308 307 307 307 306 307 306 306 306 306 306 306 306 306 306 306 306 306 306 306 306 306 306 306 306 306 306 306 306 306 306 307 307
318 314 315 316 316 317 312 308 308 307 307 308 307 307 307 307 307 306 306 307 307 307 307 306 306 306 307 307 307 307 306 306 307 307 307 306 306 306 306 306 306 307
319 316 317 317 317 319 316 310 309 308 307 308 308 308 308 307 307 307 307 307 307 308 308 308 308 308 308 308 308 308 307 307 307 307 307 307 306 307 307 306 307 307
321 319 318 315 316 320 318 313 310 309 308 308 309 310 311 311 312 312 311 311 311 312 312 312 312 312 312 312 311 311 311 310 310 309 309 308 308 307 307 307 307 308
322 319 317 316 317 320 318 315 313 311 308 309 311 314 315 315 317 317 316 316 316 316 316 316 316 317 316 316 315 314 314 313 313 313 313 313 313 312 310 309 309 308
322 319 317 317 318 319 319 318 317 313 310 310 313 316 317 317 318 318 318 318 317 317 317 317 318 318 318 318 318 317 316 316 316 316 316 317 316 316 315 314 312 311
323 321 319 317 317 318 318 319 318 316 312 310 312 315 316 316 317 318 318 318 318 318 318 318 318 318 318 318 317 317 317 318 318 317 317 317 317 317 317 317 317 315
323 321 318 316 316 317 318 319 318 316 314 312 311 313 314 316 317 318 318 319 319 319 318 318 318 318 318 318 317 317 317 318 319 318 317 317 317 317 316 317 317 317
322 321 320 319 318 318 318 318 318 317 316 315 314 313 313 315 317 317 317 318 319 319 319 318 318 318 318 317 317 318 318 319 319 318 318 318 318 317 317 317 317 317
321 321 321 321 321 320 320 319 319 319 318 317 317 317 316 316 317 317 317 318 319 319 319 318 317 317 316 316 316 318 319 319 319 319 319 319 319 318 318 317 317 317
321 321 321 321 321 321 321 320 320 320 319 319 319 319 318 317 317 317 318 317 317 317 317 316 315 315 316 316 318 318 318 318 318 318 318 318 318 318 318 317 317 317
321 321 321 321 321 321 321 321 320 319 319 319 319 319 318 317 316 316 316 315 315 316 316 315 316 318 318 318 319 318 318 319 319 319 319 319 319 319 318 318 317 317
321 321 321 320 321 320 320 320 319 319 318 318 319 319 316 315 316 316 316 315 316 316 316 316 317 318 317 317 316 315 314 314 315 316 317 318 319 320 319 319 318 318
316 318 318 319 320 320 320 319 319 319 319 318 317 318 317 316 317 318 318 317 317 317 317 317 317 316 315 314 313 311 309 309 309 309 310 312 313 314 315 316 317 318
312 313 314 316 318 319 318 318 318 318 318 317 316 317 317 317 318 317 317 317 317 317 316 315 315 313 313 313 312 311 309 308 307 307 307 307 307 307 308 310 313 316
310 311 313 314 315 316 316 316 316 316 316 316 317 317 316 316 315 315 315 315 315 315 314 313 313 312 312 312 311 311 310 309 309 309 309 308 308 307 308 309 312 315
307 308 311 312 312 313 314 315 314 314 315 315 315 314 313 313 313 313 313 314 313 313 312 311 311 310 309 309 308 309 309 310 310 310 310 310 309 308 308 309 311 314
306 307 308 309 309 309 311 312 312 311 311 312 311 310 310 310 310 310 310 310 310 309 309 308 307 307 307 306 307 307 308 308 308 309 309 310 309 308 308 308 309 311
306 306 307 307 307 307 308 309 309 308 308 307 307 306 306 306 305 304 304 304 304 304 304 303 304 304 304 304 305 306 306 306 307 307 308 308 308 308 307 308 309 310
306 306 306 307 307 307 308 308 307 306 305 304 303 303 303 303 302 302 302 301 301 301 301 301 301 301 301 301 302 303 304 305 306 307 308 308 309 309 308 308 309 311

ECMWFNIL_850_thetae_027.txt.gz
Theta_e
319 321 319 314 310 312 315 311 307 308 306 305 305 305 306 309 310 308 306 305 305 306 305 306 305 305 305 306 306 305 305 305 305 305 305 305 304 305 304 304 304 304
316 319 319 313 310 314 316 312 308 306 305 305 305 305 306 308 308 307 306 305 305 305 306 305 305 305 305 305 305 304 304 305 304 304 304 304 304 304 304 303 303 304
316 318 319 314 311 314 315 312 307 306 306 305 305 305 305 307 306 305 305 305 305 305 306 305 305 304 304 304 304 304 304 304 303 303 303 303 303 303 303 303 304 305
320 320 319 316 313 314 315 311 307 306 306 305 305 305 305 305 305 305 305 305 305 305 305 305 305 304 304 304 304 304 303 303 303 303 303 304 304 304 304 305 306 308
323 320 319 317 314 313 313 310 307 307 307 306 306 306 305 305 305 305 305 305 305 306 306 305 305 305 305 304 304 304 304 304 304 304 305 305 306 306 306 306 307 308
323 320 318 317 315 313 312 310 307 308 308 307 306 306 306 306 305 305 305 305 306 306 306 306 306 305 305 305 305 305 305 305 305 305 306 306 307 307 307 307 307 308
323 321 319 317 315 312 313 311 308 308 309 308 307 307 306 306 306 306 306 305 306 305 306 306 306 306 306 306 306 306 306 306 306 306 306 306 306 306 306 307 307 307
323 322 320 318 316 313 313 313 309 307 309 308 307 307 307 307 306 306 306 306 306 306 306 306 306 306 306 306 306 306 306 306 306 306 306 306 306 306 306 306 307 307
323 322 321 320 318 314 314 315 310 307 308 308 307 307 307 307 307 307 307 307 306 307 307 307 307 307 307 307 307 307 307 307 307 307 307 307 307 307 307 307 307 307
323 323 322 321 319 315 315 316 311 307 308 307 307 307 307 307 307 307 307 307 307 308 308 309 309 309 310 310 310 310 309 309 309 308 308 308 308 309 308 308 308 308
323 323 322 322 319 316 316 316 313 310 309 307 307 307 307 308 308 307 308 308 309 311 312 313 313 313 314 314 314 314 314 313 313 312 311 311 312 312 312 311 310 309
324 323 323 322 320 318 317 317 317 315 312 310 308 308 309 310 310 310 312 311 312 314 316 316 316 316 317 317 317 317 317 316 316 316 315 315 315 315 314 314 313 312
325 324 323 322 320 318 317 318 319 318 316 314 311 309 311 314 314 314 316 316 316 316 317 317 317 317 318 318 318 318 318 317 317 317 317 317 317 316 316 316 316 315
325 324 324 322 320 318 317 318 319 319 318 318 314 310 312 316 317 317 318 318 318 318 318 318 317 317 318 318 318 318 318 317 317 318 318 318 318 317 317 317 317 317
324 324 324 322 321 319 318 318 319 319 319 319 317 313 312 315 317 318 318 319 318 318 318 318 318 318 318 318 317 317 317 317 318 318 319 319 319 318 318 318 317 317
323 323 323 322 321 320 318 317 317 319 319 319 319 317 315 315 315 316 316 318 318 318 318 318 318 319 318 317 316 317 317 317 317 317 318 319 318 318 319 318 318 318
321 322 322 321 321 321 320 319 318 319 319 319 319 319 318 318 317 317 317 318 318 318 318 318 318 318 318 316 315 316 316 315 316 316 317 317 317 317 318 318 318 318
321 321 321 321 321 321 321 321 320 320 319 319 319 318 318 318 318 319 319 319 318 318 317 316 315 316 316 315 315 315 315 316 316 317 317 317 317 318 318 318 318 318
321 321 321 321 321 321 321 321 321 321 320 319 319 318 318 318 319 319 318 318 317 316 316 314 314 315 315 314 315 316 316 317 317 316 315 314 314 314 315 316 318 319
317 318 320 320 320 320 320 320 320 320 320 319 318 318 318 317 317 316 316 315 315 316 315 314 315 316 315 315 316 316 316 315 313 311 309 308 308 307 307 310 313 315
310 312 314 316 317 318 319 320 320 320 320 319 318 317 317 316 316 316 316 316 316 316 317 317 317 317 316 316 316 315 313 311 309 308 307 306 305 305 305 305 306 309
307 308 309 311 314 316 317 318 319 319 319 319 318 317 316 316 317 317 317 317 317 317 317 317 316 316 315 314 314 312 311 309 308 307 306 306 306 307 307 307 307 307
307 307 307 308 311 313 314 315 316 316 316 316 316 316 316 317 317 316 316 316 316 316 315 315 314 313 313 312 312 311 310 309 308 308 308 309 309 309 308 308 308 308
307 306 307 307 308 309 310 311 313 314 314 315 316 316 316 316 315 314 314 314 314 314 313 313 312 311 310 310 309 310 310 309 308 308 309 309 309 310 309 308 308 308
307 306 306 306 307 307 307 308 311 312 312 313 313 313 313 313 313 312 312 312 312 312 311 310 309 308 308 308 308 308 309 309 309 308 309 309 309 309 309 307 306 306
307 306 307 307 306 306 307 307 308 309 309 309 309 309 309 309 309 308 308 308 307 306 306 305 304 304 304 304 304 305 305 307 308 308 308 308 308 308 307 306 305 305

ECMWFNIL_850_thetae_030.txt.gz
Theta_e
322 321 320 314 310 313 312 310 309 307 308 309 310 310 309 306 306 305 305 306 305 305 305 306 305 305 305 305 311 315 313 311 311 309 307 307 307 310 313 314 314 313
322 322 320 313 311 314 312 309 309 307 306 306 307 307 306 305 305 306 306 306 306 306 306 306 306 305 306 305 306 308 307 305 305 305 305 305 305 305 306 306 305 305
323 322 321 315 312 314 312 311 310 306 305 305 305 306 305 305 306 306 306 306 306 306 305 305 305 305 306 305 305 305 305 305 305 304 305 304 304 304 303 304 304 305
322 321 321 316 312 313 313 312 309 306 305 305 305 306 305 305 306 305 306 306 305 306 305 305 305 305 305 304 304 304 304 304 304 303 304 303 303 303 304 305 306 308
320 319 320 318 313 313 313 311 308 306 306 305 305 306 305 306 306 306 306 306 306 306 305 305 304 304 304 304 303 303 303 303 304 303 304 303 304 304 305 307 309 310
320 318 320 319 315 313 313 311 307 306 306 306 306 305 305 306 306 305 306 306 306 306 305 305 305 304 304 304 304 304 304 305 305 305 305 305 306 306 307 308 309 310
322 319 320 320 317 313 312 311 308 306 307 306 306 306 305 305 306 306 306 305 306 306 306 305 305 305 305 305 305 305 306 306 306 307 308 306 306 307 307 308 309 309
323 321 320 320 318 314 312 312 310 307 307 307 306 306 306 306 306 306 306 306 306 306 306 306 306 306 306 306 306 306 306 306 307 309 309 307 307 307 307 307 308 307
324 323 321 321 320 316 313 313 312 309 307 307 306 306 307 306 306 306 306 306 306 306 306 306 306 307 306 307 307 307 307 307 307 308 308 307 308 309 308 308 307 307
325 323 322 322 321 319 316 314 314 311 308 307 307 307 307 307 306 306 307 306 306 307 307 307 307 307 307 308 308 308 309 308 308 308 308 309 310 311 310 310 309 308
325 323 322 322 321 321 319 316 316 314 309 307 308 307 307 307 307 307 307 307 307 307 308 307 308 308 309 309 310 310 311 311 311 310 309 310 311 311 311 311 311 311
325 324 323 322 321 321 320 318 316 316 312 308 307 308 308 307 308 307 307 309 311 312 311 311 310 311 312 313 313 314 314 314 314 314 313 313 313 313 313 314 313 313
325 324 324 323 323 323 322 319 317 317 316 312 309 309 309 309 309 310 310 312 315 315 314 313 313 314 315 316 317 317 317 317 317 317 317 316 316 316 316 316 316 316
325 325 325 324 324 324 323 321 319 318 318 316 313 311 310 310 312 314 314 315 316 316 316 316 316 316 317 317 318 318 318 318 318 317 318 318 318 318 318 317 317 317
325 325 325 325 324 324 323 321 320 319 318 318 317 315 314 313 312 314 317 318 318 318 318 317 317 318 318 317 318 319 319 318 318 317 317 318 319 319 319 319 318 318
324 324 325 324 324 323 321 319 320 320 319 319 319 318 318 317 314 313 315 318 318 319 319 318 318 318 318 318 318 318 319 318 317 316 317 317 318 318 319 319 319 319
323 323 324 324 324 324 322 320 319 320 319 320 320 320 320 320 317 315 315 317 317 317 318 318 318 318 318 318 318 318 319 318 316 316 316 316 317 317 317 319 320 320
323 323 323 323 323 323 323 322 321 319 319 319 320 320 320 320 319 318 318 318 318 318 317 318 318 318 318 318 318 318 318 318 317 316 315 315 316 316 318 320 321 321
321 322 322 322 323 322 322 322 321 321 320 319 320 320 320 320 319 319 319 319 319 319 319 319 318 318 318 317 317 317 317 317 316 315 316 316 317 318 319 319 319 319
314 316 318 320 321 321 322 322 322 321 322 321 321 320 320 319 319 319 318 318 318 319 320 319 319 318 318 317 316 316 316 315 315 315 316 317 316 315 315 313 313 314
310 311 312 313 315 316 318 320 320 321 321 320 320 320 319 318 317 317 317 317 317 317 317 317 317 317 316 316 315 315 314 314 314 315 316 316 314 312 309 307 306 307
309 308 309 309 310 311 313 316 318 319 319 319 319 319 318 317 316 316 317 317 316 316 315 316 316 316 315 315 315 315 314 314 314 315 315 314 311 309 308 306 305 305
308 308 308 308 308 309 311 312 314 316 317 317 317 318 317 316 316 316 317 317 317 316 316 317 317 316 316 316 316 315 314 313 313 314 313 312 309 308 307 306 305 306
307 307 307 307 307 308 309 310 310 312 313 314 315 316 316 316 316 317 317 318 318 317 317 317 316 316 316 316 315 314 313 312 312 314 313 311 309 309 307 306 305 305
307 307 307 307 307 307 308 308 308 310 311 312 312 315 316 316 316 316 316 317 317 316 316 315 314 314 314 313 313 312 311 311 312 314 313 311 310 310 308 306 305 304
306 306 307 307 307 307 307 307 307 308 309 310 311 314 315 315 314 314 315 315 314 314 314 314 313 313 312 311 311 311 310 310 312 313 313 312 311 310 309 307 306 304

ECMWFNIL_850_thetae_033.txt.gz
Theta_e
325 322 319 318 320 321 321 320 319 320 321 322 323 324 324 320 315 311 309 308 308 307 306 306 308 312 316 319 320 321 320 319 318 318 318 317 317 318 320 321 319 319
326 326 323 322 323 321 319 317 318 319 320 322 323 324 321 314 308 306 305 306 306 305 307 308 310 315 317 317 317 317 314 312 312 312 311 312 310 311 313 313 314 315
325 327 325 324 323 319 315 313 314 316 318 320 322 321 316 309 306 307 307 307 307 306 307 307 309 313 314 313 313 313 309 308 309 308 308 308 307 307 307 308 311 315
325 326 326 324 320 314 312 312 312 313 315 318 319 316 311 307 307 307 306 307 306 306 306 305 307 310 309 310 311 309 306 306 306 306 306 306 305 305 306 307 312 315
325 326 324 321 316 311 311 313 312 312 315 316 315 313 310 307 308 308 308 307 307 306 306 305 306 306 307 308 308 307 307 307 305 306 306 305 305 305 306 308 311 313
324 325 323 318 314 313 313 314 312 311 314 314 312 314 311 309 311 312 311 311 309 309 307 305 305 306 306 306 306 308 310 308 306 307 307 307 307 308 309 311 312 311
323 324 322 318 317 316 314 313 312 311 312 312 313 314 312 311 314 314 314 313 312 311 309 307 305 305 306 307 309 311 311 308 309 311 311 310 310 312 313 314 314 312
324 324 321 319 320 318 314 314 314 313 309 308 312 314 312 314 315 314 315 315 314 313 312 310 308 307 309 311 311 309 308 309 312 314 312 310 311 314 314 313 314 313
325 325 322 321 321 319 317 318 318 314 310 307 311 314 314 316 315 313 314 315 315 315 313 313 312 310 311 311 309 307 308 311 314 314 311 310 312 314 313 311 312 312
327 326 325 325 323 318 318 321 320 317 313 311 313 315 316 317 315 313 315 314 315 316 315 315 314 311 312 312 309 309 309 309 311 312 310 311 313 314 313 313 312 311
328 328 327 326 324 320 319 322 321 319 317 316 316 316 316 317 315 314 315 315 315 315 315 316 315 313 314 313 311 311 311 311 311 311 311 313 315 314 314 314 313 313
328 328 327 326 325 323 323 323 322 322 319 317 318 317 316 317 316 315 315 315 315 315 315 316 315 314 315 314 312 311 312 312 313 313 312 314 315 314 314 315 315 316
327 327 327 327 326 325 325 324 323 323 322 318 318 318 318 317 317 316 315 315 315 315 315 316 316 315 316 316 315 313 313 313 315 315 315 317 317 317 316 316 316 317
326 326 327 327 326 325 325 325 323 323 323 321 319 319 319 318 317 317 317 316 316 316 316 316 316 316 317 317 317 317 317 316 317 317 318 319 318 318 319 319 319 319
326 326 326 326 326 325 325 325 324 323 323 323 321 320 319 319 318 318 318 317 318 318 318 317 318 318 318 319 319 320 320 320 319 319 320 320 320 320 320 319 319 320
325 325 326 326 325 325 325 325 325 324 323 323 323 322 320 319 319 319 319 319 319 319 320 320 320 320 320 319 319 321 322 322 321 320 320 320 320 321 321 320 320 320
324 324 325 326 325 325 325 324 324 324 323 323 324 323 322 321 320 320 320 319 320 320 321 321 321 320 319 318 318 320 321 321 321 320 320 320 319 320 321 320 319 320
323 323 323 324 324 325 325 324 324 324 324 323 322 323 323 322 321 320 321 320 320 321 322 323 321 319 318 318 318 318 319 319 319 319 320 320 319 318 318 318 319 319
321 322 323 323 323 324 324 324 323 324 324 323 322 322 322 321 321 321 321 321 320 320 322 323 322 320 318 319 319 318 318 318 318 319 320 320 320 319 317 318 319 317
317 319 321 321 321 322 322 322 323 324 323 322 322 322 320 321 321 321 321 321 321 320 320 321 321 320 318 318 318 318 318 318 318 319 320 320 320 319 318 318 318 316
313 314 315 317 319 320 320 321 322 323 323 322 322 321 321 321 320 320 320 320 321 321 320 320 321 320 319 318 318 318 318 319 318 317 318 318 318 316 316 316 316 315
313 313 313 313 314 316 318 319 320 321 322 322 321 320 321 320 320 319 318 318 319 320 320 320 320 320 320 319 319 318 318 318 317 316 316 316 316 316 316 316 315 315
311 312 312 312 313 312 314 316 318 319 321 321 320 319 319 318 318 318 318 318 318 318 319 319 319 319 319 319 318 317 316 315 316 316 315 316 316 316 316 315 314 312
310 310 311 312 312 312 313 314 315 316 318 319 320 319 318 317 317 317 318 318 319 319 319 319 319 319 318 317 316 316 315 315 316 316 315 315 316 315 315 313 309 307
307 309 310 311 311 312 312 312 313 313 314 316 317 318 319 319 319 319 319 319 319 319 319 319 318 317 317 316 317 316 315 316 316 315 314 315 315 315 315 311 306 304
306 307 308 309 310 311 311 312 312 312 312 314 315 316 317 318 320 320 319 318 318 317 318 318 317 316 316 316 316 316 315 314 314 314 314 315 314 315 314 310 304 304

ECMWFNIL_850_thetae_036.txt.gz
Theta_e
321 312 311 315 319 322 324 323 322 322 323 324 325 325 324 323 321 321 321 321 319 317 316 314 315 319 322 323 323 323 322 319 319 321 320 319 320 321 321 320 320 319
319 311 309 316 322 323 322 321 320 322 324 324 325 324 322 319 315 313 314 314 313 313 315 316 316 318 320 321 321 320 319 317 316 316 314 313 314 316 316 316 316 315
320 314 313 318 323 322 320 317 317 322 323 324 324 321 317 313 309 310 312 312 311 312 314 317 317 316 317 317 317 317 316 315 314 312 311 309 310 312 314 315 315 315
323 321 320 322 323 320 316 313 314 318 322 323 322 317 313 308 307 309 310 308 307 307 309 314 317 315 315 314 313 313 312 311 310 309 309 309 309 312 316 318 318 316
327 326 324 324 323 317 313 313 314 315 319 320 318 315 310 307 307 307 306 306 306 305 306 309 312 313 314 312 309 308 307 308 308 306 306 308 307 310 315 317 316 315
328 327 326 325 321 314 312 315 314 313 316 316 314 315 310 307 309 309 307 307 306 305 305 306 308 311 311 310 308 308 307 307 308 307 308 309 308 311 314 314 314 314
328 328 327 324 317 314 314 316 314 313 314 312 313 316 312 311 314 312 310 309 308 308 308 307 309 309 309 311 312 311 309 309 311 310 309 311 313 314 315 313 311 312
328 327 326 322 316 315 317 315 314 312 311 311 315 316 313 314 316 314 313 312 312 312 310 308 309 309 312 315 312 310 311 313 314 311 309 312 314 315 313 312 310 310
327 326 325 321 317 318 318 315 314 311 307 310 314 313 313 316 316 314 315 314 313 312 311 311 311 310 313 312 308 309 313 314 313 311 310 313 314 312 311 310 310 310
326 326 325 320 318 319 318 317 317 313 306 308 312 311 313 317 315 314 315 315 314 313 312 313 311 308 308 306 305 307 310 312 312 310 310 312 313 313 311 310 310 310
327 327 325 323 321 320 320 321 320 316 310 311 313 313 315 317 314 314 316 315 315 315 313 313 310 306 306 306 305 306 307 309 310 309 310 311 313 313 312 310 310 310
327 327 326 326 324 320 321 323 322 319 316 315 316 315 316 318 315 314 316 315 315 315 315 315 312 309 308 307 307 307 308 308 309 309 310 310 311 313 312 311 311 310
328 328 327 328 325 321 321 323 322 320 318 317 318 317 317 318 316 314 316 315 315 315 315 316 315 312 312 312 310 309 309 309 309 310 310 309 310 310 311 311 310 311
327 327 327 327 325 323 323 323 323 323 320 318 318 318 317 317 317 316 315 315 315 315 315 316 316 315 315 315 314 311 310 310 309 309 309 310 310 310 311 313 313 314
327 327 327 326 326 326 325 324 323 323 322 319 318 319 319 318 317 317 316 315 316 315 315 316 316 316 316 316 315 314 312 311 310 310 311 312 314 314 316 318 318 318
326 327 327 327 326 326 326 325 324 324 323 321 319 319 320 319 318 318 317 315 316 316 316 316 316 316 316 316 317 317 316 315 314 313 314 317 319 319 319 320 320 320
325 326 326 326 325 325 325 324 324 323 322 321 321 320 320 320 319 319 318 317 316 317 318 317 317 317 317 317 317 317 318 319 317 316 318 320 321 321 321 321 321 321
324 324 324 324 324 324 324 323 323 323 323 322 322 321 320 320 319 319 319 319 318 318 318 319 319 317 317 318 318 318 319 320 319 319 320 320 320 321 321 319 319 319
322 323 323 323 323 323 322 322 321 322 323 322 321 320 319 320 320 319 319 319 319 319 319 320 320 319 318 318 319 319 319 320 320 319 319 319 320 321 321 319 318 317
318 319 321 321 322 322 322 321 319 319 320 320 320 319 319 320 321 320 319 319 319 319 319 320 320 320 319 317 317 317 318 319 320 319 319 319 319 319 320 319 318 318
314 315 316 317 319 320 321 321 321 320 320 321 321 321 321 321 321 321 320 319 319 319 319 320 320 320 319 317 315 315 317 318 318 319 319 319 319 319 318 317 317 318
313 313 314 314 315 316 317 318 320 320 321 320 319 319 321 321 321 321 320 319 319 319 320 320 321 320 319 319 317 315 316 317 317 317 318 318 318 318 317 316 316 317
310 311 312 313 313 314 314 315 317 319 320 320 318 317 318 319 319 320 319 319 319 319 319 319 320 321 321 320 319 317 317 318 318 317 318 318 318 317 317 317 317 317
308 309 310 311 312 313 313 314 315 316 317 317 318 318 318 318 319 319 319 318 318 318 318 318 319 320 321 320 320 318 318 319 320 319 319 318 317 317 317 317 316 316
306 306 307 308 310 311 312 313 313 313 314 314 315 316 318 318 319 318 318 317 317 318 319 319 320 320 319 318 319 319 318 319 320 319 318 317 317 317 317 316 315 315
303 304 306 307 307 308 309 310 312 312 312 312 313 314 315 316 317 318 318 318 318 318 318 317 317 318 317 316 317 318 318 319 318 317 317 317 316 316 315 315 314 313

ECMWFNIL_850_thetae_039.txt.gz
Theta_e
317 312 312 310 309 312 315 316 318 321 323 324 324 323 323 322 319 318 319 320 320 320 320 322 323 322 323 323 322 321 322 322 322 323 324 324 324 323 322 322 321 321
319 313 312 310 310 315 319 319 320 322 324 324 323 324 323 322 319 317 317 319 317 314 314 319 322 322 323 324 322 320 321 323 322 322 323 323 323 322 322 321 320 320
322 314 312 310 311 317 321 320 320 322 324 323 323 324 323 319 313 311 311 313 310 307 309 315 319 322 322 323 322 319 319 320 318 319 322 322 321 320 320 319 317 317
324 316 312 312 314 318 320 319 319 321 323 322 321 322 318 311 307 307 307 306 306 306 308 310 314 318 321 322 320 316 315 316 314 315 319 319 317 317 317 317 316 316
323 316 313 314 316 318 318 316 317 319 320 319 318 316 311 306 306 307 306 305 306 307 308 308 308 311 314 315 314 314 314 313 311 311 314 314 314 315 314 313 314 314
322 317 314 315 317 318 316 314 315 316 316 314 313 310 307 306 306 306 306 306 306 306 308 309 307 306 307 307 308 310 310 308 307 308 309 311 312 312 311 309 310 311
324 320 318 318 320 318 314 313 315 314 312 310 309 307 306 306 306 306 306 306 305 305 307 309 308 307 307 306 305 307 307 306 306 306 306 308 309 311 311 310 309 309
327 325 323 322 322 318 314 315 317 314 310 309 309 308 308 309 309 309 309 308 307 306 307 308 308 308 309 308 306 308 309 308 307 307 308 310 310 311 311 311 311 310
327 326 325 325 322 317 315 317 317 313 309 309 311 311 312 313 313 312 311 311 310 309 308 308 309 312 312 310 309 311 312 310 310 312 313 313 312 311 311 311 311 310
327 326 327 326 320 316 317 317 315 312 309 310 313 314 314 315 315 313 313 313 312 311 310 309 312 315 313 311 312 314 314 313 313 315 316 314 312 310 310 310 310 310
326 325 326 324 318 317 318 315 314 312 308 311 313 313 315 316 314 314 314 314 313 312 312 311 312 313 310 310 313 315 314 314 314 315 315 314 312 310 309 309 310 310
325 324 324 321 317 318 318 316 317 313 308 310 312 311 315 317 314 313 315 315 314 313 313 312 310 308 307 307 310 313 313 312 312 313 314 313 312 311 310 310 310 310
323 324 323 319 317 319 320 320 320 316 310 311 313 311 315 317 314 313 315 315 314 314 314 314 312 309 308 307 307 309 310 310 310 311 312 313 313 312 311 311 311 310
321 323 324 322 320 321 322 323 321 319 315 314 316 313 314 317 314 313 315 315 314 315 316 315 314 312 311 310 309 308 308 309 309 309 310 311 312 312 313 313 312 310
322 324 325 324 322 321 322 323 321 320 318 317 318 316 315 316 314 314 315 315 314 315 315 316 316 315 314 313 312 311 310 309 309 309 310 310 312 313 314 313 312 311
324 325 325 325 323 321 322 323 322 321 319 317 319 318 317 316 315 315 316 315 315 315 315 315 316 315 316 315 314 314 313 312 312 311 311 312 314 314 314 313 313 313
322 323 323 324 323 320 320 322 322 322 321 318 318 319 318 318 317 317 317 316 315 315 315 316 315 315 316 316 315 315 315 315 316 315 314 315 316 316 315 315 316 316
321 320 322 323 322 319 319 320 322 323 323 321 319 318 319 319 318 318 318 317 316 316 316 317 317 316 316 315 316 316 316 317 317 317 318 318 318 318 317 317 318 318
320 320 321 322 322 321 321 321 322 323 323 323 322 320 319 319 319 319 318 318 318 317 317 317 317 317 317 316 316 317 317 317 317 318 319 320 320 319 318 317 318 318
315 316 317 319 320 320 321 321 321 321 321 321 321 321 320 320 320 319 319 319 319 319 318 318 318 317 317 317 317 317 317 317 318 319 320 320 320 320 319 318 317 317
313 313 314 314 315 316 317 318 319 319 319 318 318 317 318 319 320 320 320 319 319 319 319 319 319 318 318 318 318 318 318 318 319 319 320 321 321 321 321 320 319 318
313 313 314 314 313 314 314 315 317 318 318 318 317 315 315 316 317 318 320 320 320 319 320 320 320 319 319 318 317 318 318 318 319 319 319 319 320 321 320 320 320 319
311 312 312 313 313 313 313 314 315 315 315 316 317 316 315 315 314 315 317 319 320 320 320 320 320 320 319 319 318 318 318 319 319 319 318 317 318 319 319 320 319 319
309 308 309 310 311 312 313 313 314 314 314 314 314 314 315 315 315 314 314 315 316 318 318 319 319 319 318 318 318 318 318 319 319 320 320 318 318 319 319 319 318 318
306 306 305 305 306 308 309 310 311 313 314 314 313 313 313 313 314 315 315 315 315 316 316 317 317 316 315 316 316 316 316 317 318 319 320 319 319 319 319 319 318 318
301 302 302 302 303 304 305 306 307 308 309 310 311 311 312 313 313 313 314 315 316 316 316 316 315 314 314 315 315 315 315 316 317 317 318 319 319 319 319 318 317 317

ECMWFNIL_850_thetae_042.txt.gz
Theta_e
324 323 319 313 309 309 310 314 315 317 320 320 321 320 319 320 322 324 324 323 322 321 322 321 321 321 319 316 316 317 317 319 319 321 323 323 323 323 323 324 325 325
327 326 320 311 308 310 312 315 316 318 321 322 323 321 319 318 318 319 322 322 321 320 321 322 321 321 319 316 317 318 319 320 321 321 323 323 322 322 323 323 324 325
327 327 321 310 309 312 314 317 318 320 322 323 323 322 320 319 316 315 317 319 320 319 319 321 321 321 318 316 318 320 320 321 321 321 321 322 321 321 321 321 322 323
327 327 321 312 312 314 315 317 318 320 322 323 323 322 322 319 313 310 312 314 315 315 317 320 320 321 320 318 318 320 322 321 321 321 321 321 321 321 320 319 320 321
327 326 320 313 313 315 315 316 317 319 321 322 322 322 321 315 308 306 308 308 308 308 313 318 320 321 321 320 318 318 320 321 322 322 321 320 321 320 319 318 318 319
326 325 319 314 313 314 315 315 315 317 319 320 319 317 313 308 305 305 305 305 305 306 308 312 317 319 320 321 317 315 316 319 321 323 321 320 320 319 317 316 316 316
324 323 319 315 315 315 316 315 314 316 317 316 314 310 306 305 305 305 305 305 306 306 306 307 310 313 316 317 314 312 313 314 318 320 320 319 319 319 317 315 315 316
324 322 320 319 319 319 318 315 314 315 315 313 310 306 304 305 306 306 306 306 306 307 306 305 306 307 308 310 310 310 310 311 314 316 315 313 314 315 316 315 315 315
324 322 323 323 322 322 320 315 314 316 314 311 308 305 305 307 308 308 307 306 306 307 307 306 306 305 305 306 307 307 307 308 311 312 310 309 309 309 311 312 313 315
324 323 324 324 323 324 321 315 315 316 313 310 308 306 308 311 311 310 309 308 307 307 307 306 306 306 306 306 307 306 305 307 308 309 309 310 310 309 309 309 310 312
324 322 322 324 325 324 319 315 316 316 313 310 309 309 312 314 313 312 312 311 309 307 306 307 307 307 308 309 309 308 308 308 309 310 310 311 311 310 310 310 310 310
323 321 320 323 325 321 317 316 316 315 313 310 310 311 314 315 314 313 313 313 311 308 307 308 309 309 310 312 311 310 310 311 312 311 311 311 310 310 309 310 310 310
323 321 319 321 322 319 317 317 316 315 314 312 312 314 315 316 315 314 313 313 313 311 310 310 309 309 311 313 312 310 311 312 313 312 311 310 310 309 309 309 310 310
324 323 321 320 320 318 317 317 317 318 315 313 314 314 315 317 315 313 314 314 314 313 313 313 310 309 310 312 311 310 311 311 312 313 313 312 311 310 309 310 310 310
323 323 321 321 321 319 318 319 320 319 316 314 315 314 315 317 316 313 314 315 315 314 314 315 314 310 309 309 309 309 310 311 312 313 313 312 312 311 310 310 310 310
322 322 321 321 321 319 319 321 321 319 317 316 317 316 315 317 317 314 314 315 315 314 314 315 316 314 312 311 309 309 310 310 311 313 313 313 312 311 310 310 310 310
322 322 321 321 320 319 320 321 320 319 318 317 317 318 316 316 317 316 315 315 315 315 314 315 315 315 315 314 313 312 312 311 311 312 313 313 312 311 310 309 310 309
323 323 322 321 320 321 321 322 320 319 319 318 317 318 318 317 317 316 316 316 315 315 315 315 315 315 316 316 316 315 314 314 313 313 313 313 312 312 311 310 310 311
322 322 321 321 321 321 321 321 320 320 320 319 318 318 319 319 318 317 316 317 317 316 315 315 316 316 316 316 316 316 315 315 315 315 315 315 314 314 314 313 313 314
317 318 318 319 320 320 319 319 319 319 320 320 319 318 319 320 320 318 317 317 317 317 316 316 316 317 317 316 316 316 316 316 316 316 316 316 316 316 316 316 316 316
314 315 316 316 317 318 318 318 318 318 318 318 318 318 318 319 320 320 319 318 318 318 317 317 316 316 317 317 317 317 317 317 317 317 317 317 317 317 318 318 318 318
313 313 314 314 315 316 317 317 317 318 318 318 318 318 318 318 318 318 319 319 319 319 319 318 318 317 317 317 317 318 318 318 318 318 318 318 318 318 320 319 318 318
312 313 313 313 314 314 314 315 316 316 317 317 316 317 317 316 316 316 316 317 318 319 319 319 319 318 318 318 318 318 318 318 318 319 319 319 319 319 319 319 318 318
311 311 312 312 312 313 313 313 314 314 315 315 315 315 315 315 315 315 315 315 315 317 319 320 320 319 319 319 319 319 319 319 319 319 319 319 320 320 319 319 319 319
308 308 309 309 310 310 311 312 312 313 313 314 314 314 314 314 313 314 314 314 314 315 316 318 318 318 318 319 319 320 320 319 319 319 319 319 319 320 320 319 319 319
302 302 302 303 304 305 306 307 308 309 311 312 313 313 314 313 313 312 312 312 312 313 314 315 316 316 317 317 317 317 317 317 317 317 317 317 317 318 319 318 319 319

ECMWFNIL_850_thetae_045.txt.gz
Theta_e
330 328 322 316 315 315 312 312 312 314 317 318 319 321 320 320 322 324 324 323 323 323 323 322 321 318 318 318 318 319 318 319 321 322 322 323 323 324 323 324 324 324
328 325 320 318 317 314 311 312 313 314 317 320 321 321 320 319 320 322 324 324 323 322 322 322 320 318 317 316 317 316 316 318 320 322 322 323 322 322 322 323 324 324
325 323 323 322 317 312 311 312 314 315 318 321 321 322 322 320 318 317 320 323 323 321 321 321 320 318 315 315 316 316 317 318 319 321 322 322 321 322 322 322 323 324
325 326 327 323 314 310 312 312 314 317 320 321 322 323 323 321 319 314 313 318 321 320 319 321 322 318 315 315 317 318 319 319 320 321 321 321 322 322 322 323 323 323
327 328 327 322 313 310 312 313 315 318 320 322 322 323 323 322 320 313 308 312 316 316 315 319 322 318 314 316 319 320 321 321 321 321 321 321 321 321 322 322 322 322
327 327 326 321 314 313 314 314 316 317 320 321 322 322 322 320 316 309 306 308 310 311 314 318 321 319 316 316 319 322 322 322 322 321 321 321 320 319 319 320 321 322
327 326 325 319 316 319 319 316 316 317 318 320 320 321 318 313 308 305 305 306 306 309 315 319 322 322 319 317 317 319 322 323 322 319 319 320 320 318 317 318 320 322
325 325 323 318 317 321 321 319 318 317 318 319 320 318 312 306 305 305 305 305 305 308 312 316 319 321 321 318 314 315 319 321 322 319 317 318 318 317 316 316 318 320
325 324 322 317 317 321 322 321 320 317 317 318 317 313 307 304 305 305 305 305 306 307 307 309 312 315 317 317 313 312 315 318 320 320 318 317 317 316 316 315 316 318
325 323 321 319 320 322 323 322 320 317 316 315 312 308 305 305 306 306 306 306 306 307 306 306 307 307 309 311 311 311 312 313 316 319 318 317 317 316 315 315 315 316
324 323 322 322 322 323 323 322 319 316 316 313 309 307 306 307 307 307 306 306 306 307 307 307 307 305 305 307 308 308 308 309 312 315 316 315 314 314 315 315 315 315
324 323 322 323 323 323 322 320 317 316 316 313 310 309 308 309 309 308 308 308 307 306 306 308 308 307 307 307 307 306 305 307 310 311 312 311 311 311 312 313 314 314
324 323 323 322 323 322 320 316 316 318 317 313 312 312 311 312 312 311 311 311 310 307 306 307 308 309 309 309 308 307 306 305 307 309 310 311 311 311 311 311 312 313
323 323 322 320 321 321 318 315 317 319 317 315 315 314 314 315 314 313 312 313 313 311 309 309 309 309 310 310 310 309 308 306 307 310 311 312 313 312 311 311 311 311
323 322 321 319 320 320 318 316 317 319 318 318 318 317 316 316 316 314 313 313 314 313 313 313 312 310 309 310 310 311 310 310 311 312 312 312 313 312 311 310 311 311
323 322 322 321 321 320 317 317 318 319 319 318 318 318 316 316 317 315 313 314 314 314 314 314 314 313 310 308 309 310 311 311 312 312 312 312 312 311 311 310 309 310
323 322 321 321 321 319 318 318 319 319 319 318 318 318 316 315 317 316 314 314 315 315 314 314 315 315 313 311 310 309 309 310 311 312 312 312 312 312 311 310 309 309
322 322 321 320 319 319 319 319 320 319 318 317 318 318 317 316 316 317 316 314 315 315 315 314 314 315 315 315 314 313 311 311 311 311 311 311 311 311 311 311 310 310
321 321 321 320 319 319 319 320 320 320 319 318 317 319 319 318 317 317 317 316 315 315 315 315 315 315 315 315 315 315 315 314 314 313 312 311 310 310 310 310 310 310
321 321 321 321 320 320 321 321 321 321 320 318 317 317 318 319 319 318 317 317 316 316 316 316 316 315 316 316 316 316 316 315 315 315 315 314 313 313 312 312 312 312
318 319 320 320 320 320 320 320 320 320 320 319 318 317 318 319 319 319 319 318 317 317 317 317 317 316 316 316 316 316 316 316 315 315 316 316 316 315 315 315 315 315
314 315 316 317 318 319 319 319 319 319 320 319 319 318 318 318 319 319 319 319 318 318 317 317 318 318 317 317 317 316 316 316 316 316 316 316 316 316 316 316 316 317
311 312 313 314 315 316 317 318 318 318 319 318 318 318 318 318 318 318 318 319 319 319 319 318 318 318 318 318 318 318 318 317 317 317 317 317 318 318 317 317 318 318
309 309 310 311 312 313 315 315 316 316 316 317 317 316 316 316 316 316 316 316 317 318 318 318 319 319 319 319 319 319 319 319 319 319 319 319 319 319 319 319 319 318
307 307 308 309 309 310 311 311 312 313 313 314 314 314 315 315 315 315 315 315 315 315 316 316 317 318 318 319 319 320 320 321 320 320 320 320 320 320 320 320 319 317
306 306 307 307 307 307 307 307 308 309 310 311 311 312 313 314 314 314 314 314 313 314 314 314 315 315 317 318 319 319 319 320 320 319 319 319 319 319 319 319 318 317

ECMWFNIL_850_thetae_048.txt.gz
Theta_e
327 327 327 327 324 316 312 312 313 313 316 318 320 320 320 319 320 320 320 320 320 321 322 322 322 321 320 322 323 322 322 321 321 321 322 322 323 323 324 325 325 325
329 328 328 327 322 315 314 315 315 315 317 319 320 320 319 318 319 320 320 321 322 321 322 323 322 321 319 320 321 321 320 320 320 321 321 322 322 323 324 325 325 325
329 329 328 325 319 316 316 315 314 315 317 320 321 321 321 320 319 318 318 320 322 321 321 321 321 320 318 317 318 319 318 318 320 321 321 322 322 323 323 324 325 325
329 329 326 321 318 317 317 314 314 315 318 321 322 322 322 322 320 317 314 316 319 319 319 320 320 320 317 316 317 317 317 319 321 322 322 322 322 322 323 323 324 324
328 326 323 321 319 318 317 315 314 316 319 321 321 322 322 322 320 316 312 312 314 315 315 317 319 318 315 315 317 317 319 321 322 322 322 322 322 322 322 323 324 324
326 325 325 323 320 317 316 314 315 317 320 321 322 322 321 320 318 312 308 308 310 311 312 313 317 317 315 316 318 319 321 322 323 322 322 321 321 321 321 322 323 324
325 326 326 325 320 314 313 313 315 318 319 321 322 322 320 318 313 307 305 306 307 308 308 311 315 316 314 316 319 320 321 322 322 322 322 321 320 320 319 320 322 323
326 326 327 325 318 311 311 314 316 317 318 319 320 321 320 314 308 305 305 305 305 306 307 311 315 315 313 314 316 318 320 321 322 321 320 320 320 319 318 318 321 322
326 327 326 324 316 312 313 315 317 318 318 317 319 319 317 310 305 305 305 305 305 305 307 312 316 318 317 316 314 315 316 320 322 320 317 318 319 318 316 317 320 322
327 327 326 322 316 315 317 319 320 320 317 316 317 315 311 306 304 305 305 305 305 305 307 309 313 316 317 316 314 313 313 317 321 321 317 316 317 317 316 316 319 321
327 326 325 321 317 317 321 322 322 320 317 315 313 309 307 306 306 306 306 306 305 305 306 307 308 309 310 311 311 312 313 314 317 320 318 316 316 316 316 315 316 318
326 326 324 321 318 320 322 322 321 318 316 314 311 308 307 307 308 308 308 307 306 305 305 306 307 307 306 307 308 311 312 312 314 316 317 317 316 316 316 315 315 315
324 324 324 322 320 322 323 322 320 318 316 313 310 310 311 310 309 310 310 310 309 307 305 305 307 307 308 308 308 309 310 309 310 313 314 315 314 313 313 315 315 315
324 324 323 323 322 322 323 320 318 317 317 314 310 310 312 313 312 312 312 312 312 311 308 307 307 307 308 309 309 309 309 308 309 311 312 312 312 311 311 312 314 314
324 324 323 323 322 322 322 320 317 316 316 316 313 310 312 315 315 314 313 313 313 313 312 311 310 309 309 309 309 310 310 309 308 309 311 312 312 313 312 312 313 313
323 323 322 322 321 321 321 319 317 315 315 317 315 312 313 316 316 316 315 313 313 313 313 313 314 312 311 310 309 310 311 310 309 308 310 311 313 314 314 314 314 313
322 321 321 321 321 321 320 319 317 316 316 317 316 315 316 317 316 316 316 314 313 314 314 314 314 314 314 312 310 310 310 310 310 310 311 312 312 313 314 314 314 314
321 320 320 321 321 321 320 318 317 317 318 318 317 317 318 318 316 316 316 315 314 314 314 315 314 314 314 314 313 312 311 311 310 310 311 311 312 312 313 313 313 313
321 321 320 320 321 320 320 318 318 318 319 318 318 318 318 318 316 316 316 316 315 314 314 315 315 315 314 314 314 314 314 313 313 312 311 311 311 311 311 311 311 311
321 321 320 319 320 320 320 320 319 320 319 318 318 318 319 318 317 316 316 316 316 316 315 315 315 315 315 315 315 315 315 315 315 314 314 314 314 314 313 313 312 312
320 321 320 319 319 320 320 321 321 320 319 318 318 318 319 319 319 318 318 318 317 317 316 316 316 316 316 316 315 315 315 315 315 315 315 315 315 315 315 315 315 315
317 318 319 319 319 319 319 320 321 320 320 319 318 318 317 318 318 319 319 319 319 318 318 317 317 317 317 317 316 316 316 316 316 316 315 316 316 315 315 315 315 316
311 313 315 316 317 318 318 318 319 319 319 319 319 318 317 317 317 318 318 318 319 319 319 319 318 318 318 317 318 317 317 317 316 316 316 316 316 316 316 315 315 315
307 309 310 312 313 314 316 316 317 318 317 317 317 317 316 316 316 317 317 317 317 317 318 318 318 318 318 318 318 318 318 318 318 318 317 317 316 316 316 316 316 316
305 305 306 308 309 310 311 312 313 314 314 315 315 315 315 315 315 315 315 315 315 315 315 315 316 316 316 317 317 318 318 318 318 318 318 318 318 318 317 317 318 318
306 306 306 306 306 306 307 307 308 308 308 309 311 312 312 313 313 313 313 313 314 314 314 314 314 314 313 314 314 315 315 316 317 318 318 319 319 319 319 319 319 318

ECMWFNIL_850_thetae_054.txt.gz
Theta_e
328 328 327 325 324 325 324 322 319 319 322 324 324 323 324 322 320 320 321 320 320 322 323 322 322 322 322 323 323 324 325 326 327 327 327 326 327 328 327 327 327 326
326 327 326 324 324 324 322 319 319 320 323 325 326 326 325 322 321 321 320 318 319 322 323 323 322 321 321 322 322 323 324 325 325 325 325 325 326 328 328 328 327 326
323 326 326 324 324 323 321 320 320 322 324 325 324 323 321 318 319 320 319 319 321 322 323 323 323 321 321 321 322 323 324 324 324 323 323 325 325 327 329 328 328 327
323 325 325 323 321 321 320 320 321 322 323 323 320 318 316 315 317 319 318 319 321 322 323 323 323 321 321 321 321 323 324 324 323 322 323 324 323 325 327 327 328 327
325 325 324 321 319 320 320 321 322 322 323 321 318 318 317 315 318 320 320 321 322 322 322 322 323 321 320 320 321 322 322 321 320 320 322 323 322 323 324 324 326 327
325 323 324 323 320 319 321 323 323 323 324 321 318 320 320 319 321 321 320 321 322 321 321 321 322 322 320 320 321 321 321 320 318 319 321 322 322 322 321 322 325 327
322 322 324 326 323 321 322 323 324 324 323 321 320 321 322 322 323 321 321 322 322 322 322 320 321 322 321 321 321 320 319 320 319 320 323 322 321 321 321 324 327 328
322 324 327 327 324 323 322 322 323 324 323 322 321 321 322 323 323 319 319 320 320 321 321 321 322 322 321 322 322 320 318 319 320 321 323 322 320 320 322 323 326 328
324 326 327 327 325 323 322 322 324 324 323 322 322 321 322 322 319 314 314 316 316 316 318 320 322 322 321 322 322 322 321 320 321 321 321 320 319 320 321 322 324 328
327 326 326 325 325 324 322 323 324 323 323 323 322 323 320 315 311 310 311 314 315 316 317 319 322 322 321 322 322 322 322 321 321 321 321 321 319 319 321 321 323 326
328 326 325 324 324 323 322 322 323 323 323 322 323 322 314 307 308 310 312 314 316 317 318 318 320 320 320 321 321 320 320 321 322 321 321 321 319 317 319 321 323 325
326 325 325 325 323 321 321 322 323 323 323 323 322 318 311 310 312 314 316 317 316 317 317 316 316 316 317 317 318 318 318 320 321 320 320 320 319 318 318 320 323 325
326 325 325 324 321 320 322 323 323 323 323 320 315 312 312 316 317 317 317 318 317 316 316 316 315 314 313 313 315 317 317 318 319 320 319 319 319 318 317 317 321 323
326 325 325 323 320 321 323 323 323 322 318 312 308 308 310 313 314 315 317 316 316 316 315 315 315 315 314 314 315 316 316 317 318 319 320 318 317 317 316 316 318 320
326 325 323 321 321 322 323 323 322 319 312 308 308 309 309 309 311 313 316 316 316 316 315 314 315 315 314 313 315 316 316 316 316 317 319 319 317 317 316 316 317 317
325 324 322 320 321 323 323 323 320 314 310 310 311 311 311 311 311 312 314 315 317 317 314 312 312 311 309 309 311 313 315 317 316 315 317 319 318 317 316 315 316 316
322 322 321 320 321 323 323 321 317 312 312 313 313 313 314 314 314 313 312 312 314 315 314 312 312 311 311 310 310 310 312 316 317 316 316 317 318 318 317 316 316 316
321 321 320 320 322 322 322 320 315 313 315 316 316 316 316 315 316 314 312 311 312 311 312 314 314 313 313 313 312 311 310 313 317 317 316 316 317 318 318 317 317 317
321 321 321 320 321 321 321 318 317 317 318 319 318 318 316 315 315 314 313 313 312 310 311 314 315 314 315 314 314 313 311 311 315 317 317 318 318 319 319 319 319 318
322 321 321 320 320 321 320 319 319 319 319 318 318 317 316 316 316 316 315 315 315 313 313 314 314 314 315 314 314 314 313 313 314 314 315 316 317 317 318 318 318 319
321 321 321 320 320 320 319 319 318 318 317 318 318 317 317 318 318 317 317 316 316 316 315 315 315 314 314 315 315 315 315 314 314 314 314 314 314 314 314 314 314 314
320 320 320 320 320 319 319 318 318 318 318 318 318 319 319 319 319 318 318 317 317 317 317 317 317 316 316 315 315 315 315 315 315 315 315 315 315 314 314 314 314 314
319 319 319 319 319 319 319 319 318 318 319 319 319 319 319 319 319 319 319 318 318 318 318 318 318 318 318 318 317 317 316 316 316 316 316 316 316 316 315 315 315 315
317 317 317 317 317 318 318 318 318 317 317 317 317 317 317 317 317 317 317 317 318 317 317 318 318 318 318 318 318 318 318 318 318 317 317 317 317 317 317 317 316 316
315 315 316 316 316 317 317 317 317 316 316 316 316 316 316 316 316 316 315 315 316 316 316 316 316 316 316 316 317 317 317 317 317 316 317 317 317 317 317 318 317 317
310 310 311 311 311 311 311 312 312 312 311 311 312 312 312 313 313 314 314 314 314 314 314 314 314 314 314 314 314 314 314 314 314 314 314 315 315 315 314 315 315 315

ECMWFNIL_850_thetae_057.txt.gz
Theta_e
328 329 328 326 325 323 324 329 330 328 328 330 329 329 327 324 321 319 320 321 320 322 323 323 327 327 327 329 328 328 330 328 327 327 327 327 327 327 327 326 327 327
326 326 326 325 325 325 327 329 329 327 328 329 329 329 328 326 325 323 321 321 320 321 323 323 325 325 325 327 326 326 329 328 326 327 326 326 327 326 326 327 328 327
326 325 325 325 326 327 328 328 328 328 328 328 329 328 328 327 327 324 321 323 325 325 326 326 325 323 323 324 324 326 328 328 328 327 325 325 326 325 326 326 326 326
327 326 326 326 327 326 326 326 326 326 326 328 328 328 328 326 325 323 319 323 327 325 325 326 325 325 324 323 323 326 327 328 329 327 325 326 325 324 326 326 326 326
326 324 324 326 328 326 323 323 321 321 325 328 328 328 327 324 324 324 322 324 327 325 325 325 325 325 324 324 324 326 327 328 328 327 327 329 327 325 326 325 326 326
322 323 325 327 327 324 321 320 318 322 327 327 327 327 325 323 324 326 325 325 326 325 325 326 325 325 325 325 325 325 326 326 326 325 327 329 328 327 327 326 326 326
322 325 327 327 326 323 321 319 320 325 328 326 326 326 324 324 325 325 325 326 325 325 325 325 326 325 325 325 324 324 325 325 324 324 325 325 326 326 327 327 327 326
323 325 327 327 324 322 320 321 322 326 326 326 327 326 324 325 325 324 325 325 325 325 325 325 325 324 324 325 325 325 325 324 323 323 324 324 324 325 326 328 328 327
325 325 326 325 322 320 321 322 325 327 327 326 327 325 324 325 325 324 325 325 325 325 325 324 324 323 324 325 325 325 324 324 324 324 324 324 324 324 324 327 328 327
326 325 326 324 320 321 323 324 327 328 327 327 327 326 326 326 324 322 323 324 324 324 324 324 324 323 323 324 324 324 324 323 323 323 324 323 323 323 322 325 327 327
327 327 326 322 321 323 325 326 328 328 327 327 327 326 326 325 322 321 322 322 322 323 324 324 323 323 323 323 323 323 324 323 322 322 323 323 322 322 322 323 326 327
327 329 328 325 324 325 326 327 328 328 328 327 326 325 324 322 320 320 320 320 320 322 322 322 322 322 322 322 322 322 323 323 323 322 322 322 321 322 322 323 324 327
327 328 327 325 324 325 326 327 327 327 327 326 324 323 320 319 320 320 320 319 319 319 319 319 320 319 320 320 320 321 321 323 323 323 322 322 321 321 322 323 324 327
328 327 325 324 325 324 324 326 326 326 325 324 323 321 319 320 320 320 320 320 319 319 319 318 317 317 317 317 318 319 320 321 323 323 322 322 322 322 322 322 323 327
325 324 321 322 325 324 323 324 325 325 324 322 322 321 321 320 319 319 319 318 318 318 319 318 317 316 316 316 317 319 319 320 321 322 321 321 321 321 322 322 322 324
322 322 321 321 324 324 324 325 324 323 322 321 321 320 320 319 318 318 318 317 318 318 316 315 316 317 316 316 317 317 318 318 319 320 321 321 320 320 321 321 322 322
324 325 325 324 325 325 325 325 324 322 321 320 319 318 317 317 319 319 319 319 319 317 312 308 310 312 313 312 313 316 318 319 318 319 320 320 320 319 320 321 321 321
324 325 325 325 325 325 325 325 324 321 318 316 314 312 312 314 316 318 318 317 317 314 310 309 309 309 309 308 308 312 317 319 319 319 319 319 320 319 319 319 321 321
323 323 323 323 324 324 324 323 320 316 313 313 313 313 314 315 315 316 316 315 314 313 313 313 313 312 312 311 309 310 311 313 317 319 318 318 319 319 318 319 319 320
322 321 321 321 323 323 323 321 317 314 313 314 316 317 317 317 316 316 316 314 313 313 313 314 314 314 314 314 313 312 310 310 316 319 318 319 319 319 320 320 319 320
319 320 319 320 321 321 321 318 315 314 315 316 318 318 317 316 316 316 315 314 314 313 313 313 314 314 314 314 314 314 313 312 314 316 317 318 319 319 320 320 320 320
320 320 320 320 320 319 318 316 315 315 316 317 318 317 316 316 316 316 316 315 316 316 315 315 315 314 314 314 314 315 315 315 316 317 318 319 319 319 318 319 319 319
321 320 320 320 319 318 317 316 316 317 318 318 318 318 318 318 318 318 317 317 317 317 317 317 317 316 315 315 316 316 316 316 318 319 321 321 321 320 319 319 320 318
319 319 319 319 319 319 318 318 318 318 318 319 319 319 319 318 319 319 318 318 318 318 318 318 318 318 318 317 318 317 317 317 317 318 319 321 321 321 321 321 321 318
316 317 317 317 318 318 318 317 317 318 318 317 317 317 317 317 317 317 317 317 317 317 318 318 317 317 317 317 318 318 318 318 317 317 318 319 319 319 319 320 319 319
314 314 314 315 315 315 316 316 316 316 316 316 316 316 316 315 315 315 316 316 316 316 316 315 315 315 315 315 315 315 315 315 315 316 316 316 317 317 316 316 317 317

ECMWFNIL_850_thetae_060.txt.gz
Theta_e
319 324 328 330 330 328 326 325 323 322 325 328 327 328 330 329 325 323 323 323 324 325 326 328 329 328 328 329 329 328 328 328 328 329 328 327 327 327 327 327 325 325
324 326 327 327 327 325 324 323 322 324 327 328 328 330 331 328 323 322 322 322 324 325 324 325 326 328 328 329 328 327 327 327 327 327 327 327 327 327 327 327 325 325
329 328 327 326 326 324 323 322 323 326 327 327 329 330 330 326 322 322 321 322 324 323 322 323 324 326 327 328 328 327 327 327 326 325 326 326 327 327 327 327 326 326
330 329 327 327 326 324 323 324 325 325 326 328 329 330 329 325 324 324 322 323 327 324 323 326 325 325 326 326 327 327 328 328 327 325 324 325 326 327 326 326 327 327
331 329 329 328 325 323 324 326 327 327 328 329 329 329 328 324 323 324 320 323 328 326 325 327 326 325 326 325 326 328 328 328 328 327 326 326 327 327 326 326 326 326
331 330 329 327 324 324 326 328 329 329 329 328 328 328 326 323 323 323 320 323 327 326 326 327 326 326 326 325 325 326 326 327 328 328 328 328 328 328 326 325 326 326
331 330 327 325 325 326 327 329 329 329 328 327 327 327 323 321 325 326 324 324 326 326 326 327 326 326 326 325 324 323 324 326 327 326 327 328 327 328 327 326 326 326
330 328 325 325 327 327 327 328 329 328 327 326 327 326 322 323 327 327 326 326 326 325 326 326 326 326 325 325 325 324 324 325 324 323 325 326 324 325 326 327 328 328
330 328 326 326 326 325 324 325 326 325 324 326 327 325 324 326 327 326 326 326 325 325 326 325 325 325 324 325 326 325 324 325 324 324 325 324 322 322 324 326 327 328
329 327 326 323 322 323 322 321 324 325 324 326 325 324 325 326 326 325 326 326 325 326 325 323 324 323 322 325 325 324 324 324 323 325 324 322 322 323 323 324 325 328
327 324 323 321 320 323 323 322 324 326 326 327 325 325 327 326 325 325 325 325 325 325 324 322 323 322 321 324 324 323 325 323 321 324 323 322 323 323 323 323 324 327
327 325 324 322 321 324 325 323 324 327 328 327 326 326 326 325 324 323 323 323 323 324 324 322 323 323 321 323 323 322 323 323 321 322 322 323 322 321 323 323 323 325
327 326 325 324 324 326 325 324 326 327 328 327 326 326 325 322 322 322 321 322 322 323 323 322 323 322 321 322 322 320 321 323 323 322 322 322 322 321 323 323 323 325
327 326 325 325 326 326 325 324 325 326 325 326 325 324 322 321 321 321 320 320 320 320 320 320 320 320 320 321 321 320 321 322 323 322 321 322 321 322 323 322 323 325
326 326 326 325 325 324 324 325 325 324 323 324 324 321 321 321 320 320 320 320 320 319 319 319 318 318 318 318 319 320 321 321 323 322 321 321 321 321 322 322 323 324
324 323 322 323 325 325 325 326 326 324 323 323 322 321 321 321 320 320 319 319 320 319 319 318 317 317 317 315 316 320 320 320 321 321 322 321 320 321 321 321 322 322
324 321 319 322 326 325 324 325 325 324 323 322 321 321 320 320 319 318 318 318 318 317 315 314 314 315 316 315 316 318 318 318 319 320 321 321 320 320 320 321 321 321
325 324 323 324 326 325 325 325 323 322 321 321 320 320 319 318 318 318 318 318 318 317 313 311 309 309 311 313 314 315 316 318 318 319 320 320 320 320 319 320 321 320
324 325 325 325 326 325 325 324 322 321 321 320 320 319 318 318 319 319 319 318 318 317 313 311 310 308 308 309 309 310 316 319 319 318 319 319 319 320 319 319 320 320
323 323 323 324 325 324 324 323 322 321 320 319 318 318 317 317 317 317 318 318 317 315 313 313 313 312 311 310 307 307 312 317 318 319 319 319 319 319 319 319 319 319
324 322 322 323 323 324 324 323 322 321 320 318 316 315 315 317 317 317 317 317 315 314 313 313 314 314 314 314 312 310 310 312 315 317 317 318 319 319 319 320 319 319
323 322 322 322 323 324 323 323 322 320 316 314 314 314 316 318 318 317 316 315 315 314 313 313 314 314 314 314 314 313 312 311 313 315 316 318 319 318 318 319 318 319
322 322 322 322 322 321 321 321 320 316 313 313 315 317 318 318 317 316 315 314 315 315 314 314 314 314 314 314 314 314 314 315 316 318 319 320 320 319 319 319 318 318
319 319 320 320 320 318 317 317 316 314 314 315 317 317 317 317 317 317 316 315 316 316 317 317 317 316 316 315 315 316 316 316 317 318 320 321 320 320 320 320 320 320
316 317 317 318 318 316 315 315 315 316 316 317 318 318 318 318 318 318 318 318 318 318 318 318 318 318 318 317 318 318 317 317 317 317 317 319 320 318 317 318 318 318
314 315 316 317 317 316 316 317 317 318 318 318 318 318 318 318 318 317 317 317 318 317 317 317 317 316 316 317 317 317 317 317 317 317 317 317 319 317 314 313 313 314

ECMWFNIL_850_thetae_063.txt.gz
Theta_e
327 329 331 330 329 327 327 327 325 324 323 324 327 328 329 329 327 326 327 326 326 328 329 329 330 330 330 330 330 330 329 328 327 328 328 327 327 326 326 327 328 328
328 329 331 331 330 327 327 327 324 323 323 324 326 326 327 328 325 324 324 323 323 325 326 328 329 328 329 329 330 329 328 328 328 328 328 327 327 326 326 327 326 326
330 330 331 331 330 328 328 327 324 323 324 326 327 326 327 327 323 322 322 322 324 324 325 327 328 328 328 329 329 328 328 327 327 327 328 327 327 327 327 327 326 325
329 330 331 331 330 329 329 327 324 324 326 328 328 328 329 327 324 322 321 322 324 324 323 324 325 327 328 329 328 327 328 327 326 326 327 327 327 328 327 327 327 325
329 330 331 331 331 330 329 326 324 325 328 329 329 330 329 326 323 321 322 323 322 321 323 324 325 326 327 327 328 327 328 328 326 326 326 325 327 327 325 326 327 326
330 331 332 331 331 329 326 325 325 327 329 329 330 330 328 325 322 322 323 324 323 323 325 326 325 326 326 325 327 327 328 328 327 326 325 326 327 326 326 326 326 326
332 331 331 331 328 326 324 325 327 328 329 330 330 329 327 325 323 323 323 324 324 324 326 326 325 327 327 324 325 326 327 328 328 327 327 327 327 326 326 326 325 326
332 331 331 329 326 325 326 327 328 330 330 330 329 328 325 322 321 320 322 323 324 324 325 325 325 326 326 324 322 324 326 325 326 326 326 326 326 325 327 327 327 327
331 331 330 328 325 326 328 328 329 330 329 329 328 325 321 321 322 322 324 325 325 325 325 324 324 324 325 325 323 323 324 324 324 324 325 325 324 323 325 326 327 327
331 330 329 328 327 328 329 330 329 329 329 328 324 321 321 324 325 325 326 326 325 326 325 324 324 323 325 326 324 322 323 324 325 325 324 325 323 322 323 324 325 326
331 330 328 328 329 329 329 330 329 328 328 325 321 322 325 326 325 325 326 325 325 326 324 324 324 322 324 325 323 323 324 323 323 324 323 324 324 323 324 324 323 325
331 329 328 328 329 329 329 328 327 326 324 322 323 325 326 325 325 325 325 325 325 324 322 324 324 321 323 324 323 324 324 321 321 322 321 323 323 322 324 324 323 323
330 329 328 327 327 327 327 325 323 323 322 323 325 327 326 324 325 325 324 324 325 323 322 324 323 321 323 323 322 323 324 322 321 321 321 322 322 322 323 323 321 321
329 328 327 326 325 324 325 326 324 323 323 325 326 326 324 323 323 323 323 323 323 323 323 323 323 322 322 322 322 322 323 323 322 321 321 321 322 322 322 321 321 322
330 327 325 326 325 322 323 326 326 325 325 326 326 324 322 322 322 321 321 322 323 323 323 322 322 322 321 321 321 320 321 322 322 321 322 321 321 322 321 320 322 323
328 326 324 326 327 325 325 327 327 326 326 325 323 322 321 321 321 320 320 321 322 322 321 321 320 320 320 320 321 320 320 320 321 321 321 321 321 321 321 321 321 321
327 326 325 326 326 325 325 326 325 324 324 323 321 321 321 320 320 320 320 319 320 320 319 318 318 318 317 317 318 320 320 319 320 321 321 321 321 320 321 321 320 320
326 325 325 326 325 321 321 324 323 323 322 321 320 320 320 320 320 320 319 319 319 317 314 313 313 313 314 315 316 318 319 318 319 321 321 321 320 320 320 321 320 319
325 325 325 325 323 319 321 323 322 322 322 321 320 321 320 319 319 319 318 318 317 316 314 312 311 310 310 312 315 317 317 318 318 319 320 321 320 320 320 320 320 319
323 323 323 323 322 321 323 323 322 322 322 321 321 320 319 318 318 317 318 318 317 317 315 313 312 309 307 309 312 315 317 318 319 319 319 320 320 320 319 320 320 320
322 320 320 321 323 323 323 323 322 322 322 321 320 319 318 318 318 318 318 318 318 317 315 313 313 311 309 308 308 310 315 319 319 318 319 319 319 320 320 320 321 320
323 322 320 321 323 324 322 322 322 321 321 320 319 319 319 319 318 318 318 318 317 315 314 313 314 313 313 311 310 309 312 317 318 317 318 319 319 319 319 319 320 321
323 323 322 321 323 323 321 321 321 321 320 320 319 319 318 318 317 318 318 317 315 314 313 313 314 314 314 314 313 312 312 314 314 315 317 319 319 318 318 318 319 319
321 321 321 321 321 321 321 321 320 319 319 318 317 317 317 316 317 316 316 315 314 314 314 313 314 314 314 313 314 314 314 315 316 316 319 320 320 319 319 319 319 318
318 319 320 319 319 318 319 318 317 318 318 316 314 315 316 317 317 316 315 315 316 316 316 316 315 315 315 315 315 315 316 317 318 318 320 320 319 320 320 320 320 320
314 316 317 316 316 316 316 316 316 317 317 315 314 316 317 317 317 317 317 317 317 317 317 317 317 317 317 317 317 317 317 317 317 318 319 319 318 318 318 318 318 318

ECMWFNIL_850_thetae_066.txt.gz
Theta_e
332 333 334 333 332 332 332 333 333 332 331 331 330 328 326 327 329 330 330 329 329 330 330 330 331 330 329 330 330 329 328 329 330 330 329 328 328 327 327 328 327 327
332 332 333 333 332 331 330 332 332 331 331 330 328 326 326 328 329 330 330 330 330 330 330 330 330 330 329 330 329 329 329 329 329 328 327 327 327 326 326 327 327 327
334 333 333 333 332 329 330 332 331 329 329 328 326 325 326 329 330 331 330 329 329 330 330 329 329 328 329 329 329 329 329 328 328 327 327 327 327 326 326 326 326 327
333 333 332 333 332 328 329 332 330 329 328 326 325 326 327 330 331 330 330 329 329 329 329 329 328 328 328 329 329 329 328 328 327 327 328 328 328 327 326 326 326 327
332 332 332 331 329 328 330 331 329 328 326 326 327 329 330 331 330 330 330 329 327 327 328 328 328 328 328 329 329 328 328 327 327 328 327 327 328 327 326 326 327 327
331 331 331 329 327 328 330 331 328 326 325 326 328 330 331 330 329 329 328 327 326 326 327 328 328 327 327 328 327 327 327 326 326 326 326 326 327 327 327 327 327 327
330 331 330 328 327 328 329 329 327 326 326 327 328 329 330 329 327 327 327 326 326 325 325 326 327 327 328 328 327 326 327 326 325 325 325 325 326 326 326 326 326 327
330 331 330 327 327 328 329 327 327 327 328 329 330 329 330 329 327 327 327 326 324 323 324 325 326 326 327 327 327 326 326 327 326 325 324 324 325 325 325 325 325 326
330 330 329 328 327 328 328 328 328 328 329 330 330 329 329 329 328 328 326 325 324 324 325 325 325 325 324 325 327 327 327 327 327 326 325 325 324 325 326 325 325 325
328 328 328 328 328 328 328 328 328 328 329 329 329 328 329 328 327 327 326 325 325 326 326 325 325 323 322 322 325 326 326 326 327 326 326 324 323 323 325 326 325 325
328 328 328 329 329 329 328 328 328 328 329 328 328 328 328 327 326 326 326 326 326 325 325 325 324 323 322 321 322 324 324 324 325 325 324 323 322 322 323 324 324 325
328 329 329 330 330 328 327 327 328 328 328 328 327 327 326 326 326 326 326 326 325 324 323 324 324 324 323 323 323 324 324 324 324 324 323 323 323 323 323 323 323 323
329 329 330 331 330 327 327 327 328 328 328 326 326 326 326 326 326 326 326 326 325 323 323 323 324 324 324 323 323 324 323 323 323 323 322 323 323 322 322 323 323 321
329 329 330 330 329 327 328 328 327 326 325 325 325 326 326 326 325 325 326 325 325 324 324 323 323 324 324 323 324 324 322 321 321 321 322 323 322 321 322 322 321 319
329 329 328 328 328 327 328 328 326 324 324 324 324 325 325 325 325 325 325 325 324 324 324 323 322 323 324 323 323 323 322 321 321 321 322 322 321 322 322 320 319 320
328 328 326 327 329 328 327 326 324 324 324 324 324 325 324 325 326 325 325 324 323 323 323 322 322 322 322 321 322 323 322 322 322 322 322 321 321 322 321 319 319 321
327 327 325 326 328 327 326 325 324 324 324 324 324 322 322 323 324 324 324 324 323 323 323 322 322 321 321 321 321 321 322 322 322 321 321 321 321 320 320 320 319 320
326 326 325 325 326 326 326 325 324 323 323 323 321 319 319 322 322 322 323 323 322 322 321 321 321 320 320 320 320 320 320 320 321 321 321 321 320 320 320 320 319 318
326 325 325 325 326 326 325 323 322 321 322 321 319 318 320 321 321 321 321 321 321 321 320 319 319 318 318 318 318 319 319 318 319 321 321 320 320 320 320 320 319 318
326 325 325 325 324 324 323 321 320 321 321 320 319 320 320 320 320 320 320 319 319 318 315 314 314 313 314 315 316 319 319 317 318 320 321 321 320 320 320 320 320 319
325 325 325 324 323 322 322 321 320 320 321 320 320 320 320 320 320 319 319 318 317 315 314 313 312 310 310 313 316 317 318 317 318 319 320 320 320 319 320 320 319 319
324 324 324 324 322 321 321 321 321 320 321 320 320 320 320 320 319 319 318 318 316 316 316 314 312 309 307 310 314 317 318 319 318 319 319 320 320 319 320 320 319 319
323 323 323 322 321 320 319 319 320 320 321 320 320 320 319 319 318 318 318 318 317 316 315 313 311 311 309 309 311 314 317 318 319 319 319 319 319 320 320 320 320 320
322 323 323 322 321 320 319 319 319 320 320 320 320 319 319 318 318 318 318 317 316 315 314 313 313 313 313 312 312 312 314 316 317 318 319 319 319 319 319 320 320 320
319 320 322 322 322 321 321 320 319 319 319 319 319 318 318 318 317 318 317 316 315 313 313 314 314 314 314 315 315 315 315 315 315 316 318 319 319 318 319 319 319 319
315 316 318 319 319 319 319 319 319 318 317 317 318 318 317 316 316 316 315 314 313 313 313 314 314 314 314 315 316 317 317 316 316 317 318 319 319 319 319 319 319 319

ECMWFNIL_850_thetae_069.txt.gz
Theta_e
333 334 333 334 334 334 334 334 332 331 331 330 328 329 332 333 331 329 327 327 329 331 331 330 328 327 329 329 329 329 328 329 330 330 329 328 328 329 329 329 328 327
331 333 333 333 333 333 333 334 332 330 330 331 330 328 330 332 332 329 326 327 330 331 331 330 328 329 329 329 329 328 328 329 330 330 329 328 328 329 329 328 328 327
331 333 334 333 332 332 332 333 332 329 328 330 331 330 328 330 331 329 326 328 330 331 331 330 329 330 330 329 328 328 328 329 329 330 329 329 329 328 328 328 328 328
330 333 333 331 331 331 331 332 332 330 328 329 330 330 329 330 331 329 327 328 330 329 330 330 330 330 329 329 329 328 329 329 329 329 328 328 328 328 327 327 327 327
329 330 330 330 331 332 331 332 333 331 329 329 330 330 330 330 330 329 328 329 329 327 328 330 330 330 330 330 330 329 329 329 329 328 328 327 327 327 327 326 327 327
329 330 330 330 331 332 331 331 332 330 328 329 330 329 328 329 329 328 328 329 329 327 327 330 330 330 330 330 329 329 329 329 328 328 328 327 327 327 327 326 326 326
330 331 330 328 329 331 331 331 330 329 328 330 330 329 327 327 327 327 328 330 329 326 325 329 330 329 329 329 329 329 329 328 328 328 328 328 328 327 326 326 326 326
330 331 331 329 329 330 330 330 329 328 329 330 329 328 327 326 325 327 329 330 328 325 326 329 330 328 328 328 328 329 328 328 328 327 328 327 327 326 326 326 326 326
329 329 330 330 330 330 329 329 328 328 330 330 328 326 326 325 325 327 330 329 328 327 327 329 329 328 328 328 328 328 328 327 327 326 326 326 325 326 326 325 326 326
330 328 329 329 329 329 329 329 328 328 329 329 327 325 325 325 325 328 329 327 327 328 328 328 328 328 328 328 327 327 326 326 326 325 325 324 324 325 325 325 325 325
330 329 329 329 328 328 329 329 328 328 328 327 326 325 325 325 325 327 327 325 326 328 326 326 327 327 327 327 327 326 325 326 326 325 325 324 324 325 325 325 325 325
329 329 329 329 329 328 328 329 329 329 328 326 325 325 326 326 326 327 326 325 326 326 325 326 326 326 325 325 326 326 326 326 327 326 326 324 323 323 324 324 324 324
328 328 328 328 328 328 329 329 329 329 328 327 326 326 327 327 327 326 325 325 326 326 326 326 326 324 324 324 325 326 326 325 326 326 325 323 321 322 323 323 323 322
326 326 327 327 327 328 328 329 329 329 328 328 326 325 327 328 326 324 325 326 326 326 326 326 325 324 324 324 325 325 324 324 324 324 324 322 322 322 322 322 323 322
326 326 326 327 327 327 327 329 329 329 329 328 327 326 327 327 325 323 325 326 326 326 326 325 324 324 323 324 324 324 324 323 323 323 323 322 322 321 321 322 322 321
325 325 325 326 326 326 327 328 329 329 328 327 326 325 326 325 324 324 325 325 325 325 325 324 324 323 323 323 323 323 322 322 322 322 322 322 321 321 321 321 320 319
324 325 325 325 325 325 326 328 329 328 327 327 326 324 324 324 325 325 325 324 324 324 323 323 323 323 323 323 323 323 322 321 320 320 321 321 321 321 321 320 319 319
323 324 325 325 325 325 326 327 328 327 327 327 325 324 324 325 325 325 325 324 324 324 323 323 322 323 323 323 323 323 322 321 320 321 321 321 321 321 320 319 319 318
323 324 325 324 325 325 325 326 328 327 326 326 324 324 324 325 325 325 325 324 323 323 323 322 322 323 323 321 321 322 322 322 321 321 321 321 321 320 320 320 320 318
324 324 324 324 324 324 324 325 326 325 324 324 324 323 323 324 325 325 324 323 323 323 323 322 322 322 322 321 320 320 321 322 322 322 321 321 320 320 320 320 320 318
323 323 323 324 324 324 324 324 323 323 323 323 323 323 323 324 324 323 323 323 322 322 322 322 321 321 320 320 320 319 319 320 320 321 321 321 320 320 320 320 320 319
322 322 322 322 323 323 323 324 323 323 322 321 321 322 322 323 322 321 321 323 322 321 322 321 320 319 318 318 318 317 317 318 318 318 319 320 320 319 320 320 320 319
319 320 321 321 321 320 320 322 322 321 320 320 321 321 321 321 321 320 320 321 319 318 318 317 316 316 316 316 315 315 316 318 318 317 317 319 320 319 319 320 320 319
316 318 319 319 320 319 319 320 319 319 319 320 320 320 320 320 320 320 319 318 316 315 315 315 313 312 312 314 316 316 317 317 317 317 317 319 320 319 319 320 320 319
315 316 317 318 319 319 319 318 318 318 319 320 319 319 320 319 319 319 319 318 316 315 315 314 313 310 310 312 313 315 317 318 318 318 318 319 319 319 319 319 319 319
316 317 318 318 319 320 319 318 318 318 318 319 319 319 319 319 318 318 319 317 316 315 315 313 312 312 312 312 312 313 315 317 318 318 318 319 319 320 320 320 319 319

ECMWFNIL_850_thetae_072.txt.gz
Theta_e
332 331 330 331 331 331 331 331 330 329 328 328 330 331 332 332 332 331 331 331 330 329 330 329 328 329 329 329 328 328 328 329 329 328 328 328 328 328 329 329 329 329
332 330 329 330 330 330 331 330 328 327 327 329 329 329 330 331 331 331 331 331 330 328 328 329 328 329 329 329 329 328 328 328 329 328 329 328 328 329 329 328 329 329
331 330 329 329 328 329 331 330 328 325 326 328 327 326 328 330 331 331 331 331 331 329 327 327 327 329 330 329 329 329 329 329 328 328 329 329 329 329 328 328 328 328
328 329 329 329 328 329 331 330 328 326 324 324 326 326 328 330 330 331 331 331 331 329 326 325 327 329 330 330 328 327 328 329 328 328 329 330 329 328 328 328 328 327
328 327 327 328 328 329 330 330 329 327 325 324 326 328 329 330 330 330 331 331 331 329 326 325 326 329 330 329 327 325 327 329 328 328 329 330 329 329 328 328 328 327
329 328 328 328 328 329 330 330 330 329 327 325 326 329 329 329 329 330 331 331 330 329 326 326 327 329 329 328 326 325 327 329 329 329 329 329 329 329 328 328 327 327
329 329 329 329 329 329 330 331 330 330 329 328 328 329 329 328 329 330 330 330 330 328 327 327 328 329 328 327 326 325 327 329 329 329 329 329 329 328 327 327 327 326
329 329 329 329 329 329 330 330 330 330 330 330 330 329 328 328 329 329 329 329 328 327 326 327 328 329 328 327 326 326 328 329 328 329 329 328 328 327 326 326 326 326
330 330 330 329 329 329 329 330 330 330 330 330 330 329 328 327 328 328 328 328 327 326 326 327 327 328 329 328 327 327 328 329 329 329 329 328 327 327 326 327 327 326
328 329 330 330 330 330 329 329 329 330 329 329 330 329 328 327 328 327 326 326 325 325 327 328 326 327 329 328 326 327 328 329 329 328 328 327 327 327 326 326 326 326
327 328 329 329 330 330 329 328 328 328 328 328 328 329 328 328 328 327 326 324 324 325 327 327 325 326 328 327 326 327 328 328 328 327 327 326 326 326 326 326 326 326
327 328 328 328 329 329 329 329 328 328 328 327 327 327 328 329 328 327 325 323 324 326 327 326 324 325 327 326 326 327 328 328 327 327 326 326 325 325 324 325 326 325
324 326 327 327 328 328 328 329 328 328 328 328 327 327 328 329 328 327 325 323 324 326 325 324 324 325 325 325 327 328 328 327 327 327 326 325 324 324 324 325 326 326
322 323 324 325 326 326 327 328 328 328 328 328 328 327 328 329 328 326 324 323 325 327 325 324 324 324 324 326 327 328 327 327 326 327 326 325 324 324 325 325 325 325
321 322 322 323 324 325 325 326 327 327 327 327 327 327 328 328 328 326 324 324 326 326 325 324 323 323 324 327 327 326 327 327 327 327 327 325 324 323 323 324 324 323
322 322 322 322 323 324 324 325 325 326 326 327 327 328 328 328 327 326 325 325 325 325 324 323 322 323 326 326 324 325 326 327 326 326 326 324 322 322 322 323 323 323
320 321 322 322 322 323 323 324 324 324 325 326 327 328 328 328 327 325 325 326 326 324 323 322 322 325 326 324 323 324 326 325 324 325 325 323 321 322 321 322 322 322
319 320 321 321 321 322 323 323 324 324 324 326 327 327 328 328 326 325 325 326 325 324 323 323 325 326 324 322 323 325 325 324 323 324 323 322 322 321 321 321 321 319
319 319 321 321 321 322 323 324 324 325 325 326 327 327 327 327 327 326 325 325 324 324 325 325 325 325 323 323 324 324 323 323 322 322 322 322 321 321 321 321 319 318
318 318 320 321 322 322 322 323 324 324 325 326 326 326 327 327 328 327 325 324 325 326 325 324 324 324 324 323 323 323 323 322 321 321 321 321 321 321 321 320 319 319
316 317 319 321 321 322 322 323 323 324 324 324 324 325 326 326 328 327 325 326 326 324 322 322 324 325 324 323 323 322 322 322 321 321 321 321 321 321 321 320 319 319
315 315 317 319 320 321 322 322 322 322 323 322 323 325 324 323 325 325 324 325 324 323 322 323 323 324 324 323 322 321 321 322 322 321 321 321 321 321 320 320 320 320
314 314 315 317 318 319 320 320 320 320 320 320 323 325 324 323 324 324 322 323 323 323 323 322 322 323 322 321 321 320 320 320 321 321 321 321 321 320 320 320 320 320
314 313 314 316 317 317 317 316 316 316 316 319 322 323 322 322 321 321 320 320 321 322 322 321 321 321 321 320 320 319 319 319 319 320 320 320 320 320 319 319 320 320
314 314 314 315 316 316 314 313 313 313 314 317 319 319 318 318 317 318 318 317 318 319 319 319 320 319 319 318 318 317 317 317 318 319 318 318 319 320 320 319 320 320
314 314 315 315 315 315 315 315 315 315 315 316 317 317 316 316 316 317 318 316 316 316 316 316 317 317 317 316 316 316 316 316 317 318 317 317 318 319 320 320 320 320

ECMWFNIL_850_thetae_075.txt.gz
Theta_e
329 330 331 330 330 330 329 328 328 328 329 329 328 329 330 329 328 328 327 327 329 330 331 331 330 330 329 329 328 329 330 328 327 328 329 328 329 329 329 329 329 329
328 329 330 330 330 330 329 329 328 328 328 329 329 330 330 329 328 327 327 327 328 329 330 330 330 330 330 329 327 328 329 328 326 326 327 328 328 329 329 330 329 329
328 328 329 329 329 330 330 329 328 328 328 329 329 329 328 327 327 326 326 328 328 328 329 329 330 330 331 330 327 326 328 329 327 326 326 328 329 329 329 330 330 329
328 328 328 328 328 329 330 329 328 328 329 329 328 327 327 328 328 328 327 328 328 328 328 329 330 330 331 331 328 326 327 328 327 326 325 326 328 329 329 330 330 329
328 328 329 328 328 328 328 328 328 328 329 329 328 327 328 330 330 329 329 329 328 328 327 328 329 329 330 331 329 328 328 328 327 326 325 325 326 328 330 330 329 328
328 329 329 328 328 328 328 329 328 328 328 328 329 328 329 330 331 330 330 329 328 328 328 329 329 329 329 329 328 328 328 328 328 326 325 326 327 327 329 329 328 329
327 328 329 329 328 328 329 329 328 327 327 328 329 329 329 330 330 330 329 328 328 329 329 330 330 329 328 327 327 327 328 328 328 327 326 326 327 327 328 329 329 329
326 327 328 329 329 329 329 329 328 329 329 329 330 330 330 329 329 329 329 328 328 329 329 330 330 329 327 326 326 328 328 328 328 327 326 326 326 327 328 329 329 329
324 325 326 327 329 329 329 328 328 329 329 330 330 330 330 330 329 329 328 327 328 329 329 329 329 328 326 325 327 328 328 328 327 326 326 326 326 326 326 328 329 329
322 324 324 325 326 328 329 329 329 329 329 329 330 330 330 330 330 330 328 328 328 329 328 329 328 327 326 326 328 328 327 327 327 326 327 327 326 325 326 328 329 328
321 322 323 324 325 327 327 327 328 328 328 328 329 329 330 329 330 330 329 328 328 328 328 328 327 326 327 327 327 327 327 326 327 328 328 327 324 325 328 329 328 327
321 322 322 324 325 326 326 326 327 327 328 328 328 329 329 329 329 329 329 328 328 328 328 327 326 326 327 327 326 326 326 326 327 328 328 326 323 324 327 328 328 327
320 321 322 323 324 324 325 326 326 327 328 328 328 328 328 329 329 329 329 328 328 328 327 326 325 325 327 327 326 326 326 327 327 328 327 325 323 324 327 328 328 327
319 319 320 321 323 323 324 325 325 326 327 327 328 328 328 328 328 328 328 328 328 329 327 325 324 325 328 327 326 327 327 327 327 328 328 326 324 325 327 327 327 327
319 319 319 320 321 322 323 324 324 325 325 326 327 327 328 328 328 328 328 328 329 329 328 326 325 326 327 326 326 327 327 327 327 328 328 326 325 326 326 326 326 326
318 318 319 320 321 322 322 322 323 324 324 325 325 326 327 327 327 328 328 328 329 329 327 326 326 327 327 326 326 326 326 326 326 327 327 326 326 327 326 325 325 325
317 317 318 319 320 321 321 322 323 323 324 324 324 324 325 326 326 327 327 328 329 329 327 325 325 326 327 326 325 325 325 325 325 326 325 325 326 326 325 325 325 324
316 316 317 317 318 319 320 321 322 322 323 323 323 323 323 324 325 326 327 327 328 328 327 325 326 327 327 326 325 325 325 324 324 325 325 325 325 325 324 324 324 323
315 316 316 317 318 318 319 320 320 321 322 322 323 323 323 324 325 326 326 327 328 328 326 326 327 327 326 325 325 325 324 324 325 325 326 325 324 323 323 323 322 322
314 315 317 317 317 317 319 319 319 320 321 321 322 323 323 324 325 325 326 326 327 327 327 327 328 327 325 325 325 324 324 324 325 324 325 325 323 322 321 321 321 320
313 314 316 317 316 316 317 318 318 318 319 320 321 322 322 323 324 325 325 325 326 327 328 328 327 326 325 325 324 323 323 324 324 324 324 324 322 321 321 321 321 319
312 313 315 316 315 315 315 316 316 316 316 317 318 319 319 320 321 322 322 324 325 326 327 327 326 326 325 324 323 323 324 324 323 323 323 322 322 322 321 321 320 319
311 312 313 314 314 314 313 314 313 313 313 314 315 316 316 317 318 318 319 321 324 326 326 326 326 325 324 323 323 323 323 323 322 322 321 321 322 321 321 321 320 319
310 311 312 312 313 313 312 312 312 312 311 312 313 313 314 314 316 318 318 319 322 324 323 323 324 324 323 323 323 323 322 322 322 321 321 321 321 321 321 320 320 319
309 310 310 310 311 311 311 311 311 310 310 311 312 312 313 314 316 319 318 318 319 321 320 321 322 323 323 323 322 322 321 321 321 321 321 321 321 321 321 320 320 320
308 309 309 309 309 309 309 310 310 310 310 311 312 312 312 313 315 317 317 317 318 318 318 319 320 320 321 321 321 320 320 320 320 320 320 320 320 320 320 320 320 320

ECMWFNIL_850_thetae_078.txt.gz
Theta_e
328 330 331 332 333 333 332 332 332 331 331 330 329 328 328 328 328 327 326 325 325 325 325 326 327 328 329 331 330 327 328 329 328 329 329 330 330 330 330 330 330 331
327 329 330 330 331 332 332 332 332 332 331 331 330 331 330 328 327 327 326 326 325 325 325 326 328 329 329 331 331 329 329 330 330 329 330 330 329 329 330 329 330 330
326 327 329 329 330 330 331 331 331 332 332 332 331 331 330 329 327 327 327 326 326 326 325 326 328 329 330 331 331 331 330 330 330 330 330 330 328 329 330 330 331 330
325 326 328 329 329 329 329 330 330 331 331 332 332 331 331 330 328 326 326 325 325 326 326 327 327 328 329 330 331 331 330 328 328 329 330 329 328 329 329 330 331 331
325 326 328 328 328 328 328 329 329 330 330 331 332 332 332 331 329 327 326 325 326 327 327 328 328 328 329 329 330 330 329 328 327 327 329 330 329 328 329 330 331 330
322 324 326 328 328 328 329 329 329 328 329 330 331 331 331 331 330 328 327 326 327 329 329 328 329 330 329 329 329 329 329 328 327 327 328 330 330 329 328 329 330 329
320 321 323 326 328 328 328 329 329 328 329 330 330 330 330 331 331 330 329 328 328 330 330 329 329 330 330 329 328 328 328 328 328 328 328 329 330 329 327 328 328 329
320 321 321 323 325 327 328 329 329 329 329 329 330 329 330 331 331 331 330 329 330 330 330 330 330 330 330 330 329 329 328 328 328 329 329 330 330 329 328 328 327 328
320 321 321 321 322 324 326 328 329 329 329 329 329 329 330 330 331 331 331 331 331 330 330 330 330 330 330 330 330 329 328 327 326 327 329 330 330 329 328 328 327 328
320 320 321 321 322 322 323 325 327 328 328 329 329 329 330 330 330 330 330 331 330 330 330 330 330 331 331 331 330 329 328 326 325 326 328 330 330 329 328 326 327 327
319 319 320 320 321 322 322 324 325 326 327 327 328 328 329 329 330 330 330 330 330 330 330 330 330 330 331 331 331 330 328 326 325 327 329 331 330 328 326 326 327 327
318 319 319 319 320 320 321 322 324 325 326 327 327 328 328 329 329 330 330 330 330 330 330 330 330 330 331 331 331 330 328 327 327 329 330 331 330 328 326 327 327 327
317 318 318 319 319 320 321 321 323 324 325 326 326 327 328 328 329 329 329 329 330 330 330 330 330 330 331 330 330 330 328 328 329 330 330 330 329 327 327 328 327 327
317 317 317 318 319 320 320 321 322 324 325 325 326 326 326 327 328 328 329 329 329 329 330 330 330 330 330 330 330 330 329 329 329 330 330 329 328 328 328 328 327 328
317 317 317 317 318 319 320 320 322 323 325 325 325 325 325 326 327 328 328 329 329 329 329 329 329 329 329 329 329 329 330 330 329 329 329 328 329 328 327 326 327 328
317 317 317 317 318 319 319 320 321 322 323 324 324 325 325 325 326 327 327 328 328 328 328 329 329 329 329 329 328 328 329 329 328 328 328 328 328 327 326 326 326 327
316 317 317 317 317 318 319 319 320 320 321 322 323 323 324 324 325 326 326 326 327 328 328 328 329 329 329 328 328 328 329 329 328 327 328 328 327 327 326 325 325 325
315 316 316 315 315 316 317 318 318 319 319 320 321 321 322 322 323 324 325 325 326 327 327 328 328 328 329 328 328 328 329 329 328 328 328 327 326 326 326 325 325 325
314 315 315 315 315 315 316 316 316 317 317 317 318 319 319 320 322 323 324 324 325 326 326 327 327 327 329 329 328 328 328 329 328 328 327 327 327 326 325 324 324 324
313 313 313 314 315 315 315 315 315 316 316 315 316 317 318 320 321 322 323 324 325 325 325 326 326 327 327 328 328 328 328 328 328 327 327 327 326 326 325 324 324 323
311 312 312 313 314 314 315 314 314 314 314 314 314 315 316 317 319 320 321 322 323 323 324 325 325 326 326 326 328 328 327 327 327 327 327 327 326 325 325 325 325 324
309 310 311 312 312 313 314 314 313 313 313 312 312 313 314 315 317 318 319 319 319 320 321 322 324 324 325 327 328 327 327 327 327 326 327 326 325 325 323 323 324 324
307 308 309 309 310 312 312 312 312 312 311 311 311 312 313 314 315 317 317 317 317 317 318 320 322 323 325 327 328 327 328 328 327 326 325 325 324 323 322 322 323 322
306 306 307 307 308 309 310 310 311 311 311 310 310 311 312 312 313 314 315 316 315 315 315 316 318 321 324 327 327 327 327 327 325 325 324 323 323 322 321 322 322 320
306 305 305 305 306 306 308 309 309 310 310 310 310 310 310 311 312 313 314 315 314 314 315 316 317 320 323 325 326 326 325 324 322 322 323 322 322 322 322 322 321 320
305 305 305 305 304 305 306 306 307 308 309 310 310 310 310 311 312 313 313 314 314 314 315 316 318 320 321 322 323 323 322 321 321 321 321 322 322 322 322 321 320 319

ECMWFNIL_850_thetae_081.txt.gz
Theta_e
327 328 329 330 332 333 334 333 333 333 333 333 333 334 335 334 332 332 333 333 330 328 327 325 326 328 330 331 329 328 329 330 329 328 328 329 328 329 329 329 328 326
325 326 327 328 330 332 333 333 333 333 333 333 333 332 332 331 330 331 333 333 332 330 328 325 325 326 328 330 330 329 327 328 330 329 328 328 329 329 328 328 328 328
323 324 325 327 328 329 331 332 332 333 333 333 332 331 330 329 329 329 330 332 332 331 329 326 325 325 326 328 329 329 328 327 330 330 328 328 330 329 328 328 328 328
320 321 322 324 326 328 329 330 331 332 332 332 332 331 330 330 330 329 329 331 332 331 330 329 327 325 326 327 328 329 328 328 329 330 328 328 330 329 329 329 329 328
320 321 321 323 325 327 328 329 329 330 331 331 331 331 330 329 329 329 328 330 331 330 330 330 329 327 327 328 328 328 329 329 330 330 330 329 329 329 329 330 329 328
320 321 321 322 324 325 326 327 328 329 331 331 331 331 330 329 328 329 329 329 330 330 329 330 330 328 327 328 328 328 329 330 330 330 330 330 330 330 329 329 329 328
320 321 320 321 322 323 324 326 327 328 330 331 331 330 330 329 328 328 329 329 328 328 328 329 331 330 328 329 330 329 329 330 330 330 330 330 331 331 329 329 329 328
320 320 320 320 321 321 322 324 326 327 328 329 330 330 330 329 329 328 328 328 327 327 327 327 330 332 330 330 331 330 330 330 330 331 330 330 331 330 328 328 329 327
319 319 320 320 320 320 321 322 323 324 326 327 329 330 330 329 329 329 328 328 327 327 326 326 329 331 331 330 330 330 331 330 330 331 330 330 329 328 328 328 328 327
318 318 319 319 319 320 320 320 321 322 324 326 327 328 329 330 330 330 329 329 328 328 327 328 329 331 332 331 330 330 330 330 331 331 331 330 329 328 329 328 327 326
317 317 318 318 318 319 319 319 320 321 323 325 326 327 328 328 329 330 330 330 329 328 328 329 330 331 332 331 331 330 330 330 331 331 331 331 330 329 329 328 328 327
316 316 316 316 316 317 318 319 319 321 323 324 326 326 327 327 327 329 330 330 330 329 329 330 330 330 331 331 330 331 331 330 331 331 332 331 330 329 329 329 329 328
315 315 315 315 315 316 317 318 319 320 322 324 325 326 326 326 326 327 328 329 330 330 330 330 330 329 330 330 330 331 331 331 331 331 331 330 330 330 329 329 328 329
315 315 314 315 315 315 316 317 319 320 321 323 324 325 325 326 326 326 327 328 328 329 329 330 330 329 329 329 330 330 331 330 330 330 330 330 329 329 329 329 329 329
314 314 314 314 314 315 315 316 317 319 320 321 322 323 324 325 325 325 326 326 327 328 329 329 329 329 329 329 330 330 330 329 329 330 331 330 328 328 329 329 329 328
313 313 314 314 314 314 314 314 315 316 318 319 320 321 322 323 324 324 324 325 326 327 328 328 328 328 328 329 329 329 329 330 330 330 330 329 328 328 329 329 328 327
312 313 313 313 313 313 313 313 314 315 315 316 317 318 319 320 321 322 323 324 325 326 327 327 328 328 328 328 329 328 329 329 329 330 329 329 329 328 328 329 328 328
311 312 312 312 312 312 312 312 313 314 314 315 316 316 316 317 318 319 320 321 322 324 324 326 327 327 327 327 327 328 328 329 329 329 329 328 327 327 328 329 329 329
310 311 311 311 311 311 311 311 312 313 314 315 315 315 315 316 316 317 318 319 321 322 323 324 324 325 326 327 327 327 328 328 328 329 328 327 327 327 328 330 329 329
309 309 309 310 310 310 310 310 311 312 313 313 314 314 315 315 316 316 317 318 319 320 321 322 323 324 325 326 326 327 327 327 328 329 328 327 328 328 329 329 329 328
308 308 308 309 309 308 308 309 310 311 312 313 313 314 314 314 315 315 316 316 317 317 318 319 320 322 324 325 326 326 326 327 327 328 328 327 328 328 328 328 328 328
307 307 307 307 307 307 307 307 308 309 310 311 312 313 313 313 313 314 314 315 315 316 316 317 318 319 321 324 325 326 326 326 326 328 328 327 328 329 328 328 328 328
307 307 307 307 307 307 306 306 306 307 308 310 311 312 312 312 312 312 313 314 314 314 315 315 316 317 318 320 323 324 326 325 325 326 328 328 328 329 328 327 327 327
306 306 306 306 306 306 306 306 306 306 306 307 309 310 311 311 311 311 312 313 313 313 313 314 314 315 316 317 319 322 324 325 325 325 327 328 328 328 327 326 326 326
305 305 306 306 306 306 306 306 306 305 305 305 307 308 309 310 310 310 311 311 312 313 313 314 314 314 315 316 317 318 320 322 323 323 324 325 326 326 326 327 326 326
305 305 305 305 305 305 305 305 305 305 305 304 304 305 307 308 309 309 310 310 311 311 312 313 314 315 315 315 316 317 317 319 321 322 323 325 325 324 324 326 326 324

ECMWFNIL_850_thetae_084.txt.gz
Theta_e
324 324 324 325 326 328 331 333 333 333 333 332 332 332 331 331 331 331 332 332 331 330 331 331 331 330 329 330 331 331 331 331 331 330 330 330 330 329 329 328 327 326
322 322 323 323 324 325 327 329 331 332 332 331 331 331 330 330 331 331 331 331 331 331 330 329 330 331 330 330 330 330 331 331 331 330 330 331 330 329 329 328 327 326
321 321 322 323 323 324 324 325 328 330 331 331 331 331 330 330 330 330 330 331 331 331 330 328 327 328 329 330 330 330 330 331 331 330 330 330 330 330 329 329 328 328
320 321 321 321 322 323 323 323 324 327 329 330 330 331 331 330 329 330 331 330 330 331 330 328 327 327 328 329 330 330 329 330 331 331 330 330 330 331 330 330 330 330
319 320 320 321 321 321 321 321 322 324 326 328 329 330 330 330 330 330 330 330 329 329 329 329 328 328 328 329 329 330 330 330 330 330 330 330 330 331 331 330 330 330
318 319 319 320 320 320 320 321 321 322 323 325 327 329 329 330 330 330 330 330 329 329 329 329 328 328 328 328 329 329 329 329 330 330 331 330 330 330 331 330 330 331
318 318 318 319 319 319 319 320 320 320 321 322 324 326 328 329 329 330 330 330 329 329 329 329 329 328 327 327 328 327 327 327 328 330 331 331 331 331 331 330 330 330
317 318 318 318 318 318 318 319 319 319 320 321 322 324 326 328 328 329 330 330 330 330 329 329 329 329 328 327 327 327 326 326 326 327 329 331 332 331 330 330 330 330
316 317 317 317 317 317 317 318 318 319 319 320 321 322 324 327 328 328 329 329 330 329 329 329 329 329 328 328 327 327 327 325 325 326 328 330 332 331 331 330 330 330
315 316 316 316 316 316 316 316 317 317 318 319 320 320 323 325 327 328 328 328 329 329 329 329 329 329 329 328 328 328 328 327 327 326 328 331 332 331 331 331 330 330
315 315 315 315 315 315 315 316 316 316 317 318 318 319 321 324 325 326 327 327 328 329 329 329 329 329 329 329 329 329 329 329 328 327 328 330 331 330 331 330 329 329
315 314 314 315 315 315 315 315 315 315 316 317 318 319 320 322 323 324 325 326 327 327 328 328 328 329 329 329 329 329 330 330 329 328 327 329 330 330 330 330 329 329
314 314 314 314 315 315 315 314 314 314 315 316 318 319 319 320 321 322 323 324 324 325 326 327 328 328 328 329 328 329 330 330 329 329 328 329 330 329 330 330 328 329
313 313 314 314 314 314 314 313 314 314 315 316 317 318 318 318 319 320 321 322 322 323 324 325 327 327 328 328 328 329 329 329 329 329 329 329 329 329 329 330 329 328
312 312 313 312 312 312 312 313 313 313 314 315 316 317 317 317 317 317 318 319 320 321 322 323 324 325 326 326 327 328 328 329 329 329 329 329 330 329 329 329 330 329
311 311 311 311 311 311 311 312 312 313 313 314 315 316 316 317 316 317 317 317 318 319 320 321 322 323 324 325 326 327 327 328 328 328 329 329 329 329 328 328 329 329
310 310 310 310 310 310 310 311 312 313 314 314 314 314 315 315 315 316 316 316 317 317 318 319 320 321 322 323 324 325 326 327 327 327 328 328 328 329 329 328 329 330
309 309 309 309 309 308 308 309 310 312 313 313 313 313 313 314 314 315 315 315 316 316 317 317 318 319 320 321 322 323 324 325 327 327 327 327 327 329 329 328 329 330
308 308 308 308 308 308 308 307 308 309 311 311 311 311 312 312 312 313 314 314 315 316 316 316 317 317 318 319 320 321 322 323 324 325 326 327 327 328 328 329 328 329
307 307 307 307 307 307 307 307 307 307 308 309 309 310 310 310 309 311 312 313 314 315 315 316 316 317 317 318 318 319 320 321 322 323 324 326 327 327 327 328 328 328
307 307 307 307 307 307 307 307 306 306 306 306 307 308 308 308 307 308 310 311 312 313 314 314 315 315 316 317 318 318 319 320 321 322 324 325 326 327 327 327 328 328
306 306 306 306 306 306 306 306 306 306 305 305 305 305 307 307 306 306 308 310 311 311 312 313 314 315 315 316 317 318 319 319 320 322 323 325 326 326 326 327 328 328
305 305 305 305 306 306 305 305 305 305 305 304 304 304 305 306 305 304 305 307 309 310 311 311 312 313 315 315 316 317 317 318 320 321 322 324 325 325 326 327 328 328
304 304 304 304 305 305 304 304 305 305 304 304 304 304 303 304 304 303 303 305 307 308 309 310 310 311 313 314 315 316 316 317 319 321 322 322 323 324 325 326 327 328
303 303 303 303 303 304 303 303 303 303 303 303 303 303 303 302 302 302 302 303 305 306 307 308 309 310 311 313 314 315 316 316 317 319 320 320 321 323 324 325 326 328
302 302 302 302 302 302 302 301 301 302 302 302 302 302 302 301 301 301 301 302 303 304 305 306 307 308 310 311 312 314 315 315 316 316 317 317 319 320 321 322 325 327

ECMWFNIL_850_thetae_087.txt.gz
Theta_e
321 321 321 321 323 324 326 327 329 329 329 330 330 330 331 330 331 331 330 330 330 331 331 331 331 331 331 331 330 330 330 330 330 331 331 331 330 330 330 329 329 330
319 320 320 320 320 321 322 324 326 328 328 329 329 330 330 330 330 330 330 330 329 330 330 330 331 331 330 330 329 329 330 330 330 330 331 331 330 330 330 330 330 331
318 319 319 319 319 319 320 321 324 326 327 328 328 329 329 329 330 330 330 330 330 330 330 330 330 330 330 330 329 329 329 329 329 330 330 330 330 331 331 330 330 330
317 317 318 318 318 318 319 319 321 323 324 325 327 328 328 328 329 329 329 330 330 331 330 329 329 329 329 330 329 329 329 329 329 329 329 329 329 330 330 330 330 330
316 317 317 317 317 317 318 318 318 319 320 322 323 325 326 327 328 328 329 329 329 330 330 329 329 329 329 329 328 328 329 329 329 329 330 330 329 329 329 330 329 329
315 316 316 316 316 317 317 317 317 318 318 319 320 322 323 325 326 327 328 328 328 329 330 330 329 329 329 329 328 328 328 328 328 329 329 329 329 329 329 329 329 328
315 315 315 315 316 316 316 316 316 316 317 318 319 320 320 322 325 327 328 328 328 329 329 330 329 329 329 329 329 329 328 328 328 328 328 328 328 329 329 329 329 329
314 315 315 315 315 315 315 315 315 315 315 316 317 318 319 320 322 325 326 327 328 328 328 328 329 329 329 329 329 329 329 329 329 328 328 328 328 328 328 329 329 329
313 314 314 314 314 314 314 314 313 313 314 315 316 317 318 319 320 321 323 325 326 327 327 327 328 328 328 328 328 329 329 329 329 329 329 329 329 329 329 329 329 329
313 313 313 313 314 314 314 313 313 313 314 316 316 317 318 318 318 319 321 322 323 325 326 326 326 326 326 327 327 328 328 328 329 329 329 329 329 329 329 329 328 329
312 312 312 312 313 313 313 313 313 314 315 316 316 317 317 318 318 318 318 319 320 321 323 324 324 325 325 326 326 327 328 328 328 328 329 329 329 329 329 329 328 329
311 311 311 311 312 312 312 313 313 314 315 315 316 316 317 317 317 317 318 318 318 319 320 320 321 323 324 325 325 326 327 327 327 328 328 328 328 328 329 329 329 329
310 310 310 310 310 310 311 312 314 314 314 314 315 315 315 316 316 316 316 317 317 317 318 318 318 320 321 322 323 324 326 326 327 327 328 328 328 328 328 328 328 329
308 308 308 308 308 308 309 310 312 313 313 313 314 314 314 314 315 315 315 316 316 316 317 317 317 318 318 319 320 322 323 325 326 326 327 328 328 328 328 328 328 329
307 307 307 307 307 307 308 308 309 310 311 312 312 312 313 313 314 314 315 315 316 316 316 316 317 317 317 317 318 319 320 322 323 324 325 326 327 328 328 328 328 328
307 307 307 307 307 306 307 307 307 307 309 310 310 311 312 312 312 313 314 314 315 315 316 316 316 316 316 316 317 317 318 319 320 321 322 323 325 326 327 327 327 328
306 306 306 306 306 306 306 305 305 306 306 307 308 309 310 311 311 312 312 313 313 314 314 315 315 315 315 315 316 317 317 318 319 319 320 321 323 324 325 326 326 327
305 305 306 306 305 305 305 305 305 304 305 305 306 307 308 309 310 310 311 311 311 312 313 313 313 314 315 315 315 316 317 318 318 319 319 320 321 322 323 325 326 327
305 305 305 305 304 304 304 304 304 303 303 304 304 305 306 307 308 309 310 310 310 311 311 312 312 313 314 314 314 315 317 317 318 319 319 319 320 320 321 323 324 325
304 304 304 304 304 303 303 304 304 303 303 303 303 303 304 305 306 307 308 308 309 309 310 310 310 311 312 313 314 315 316 317 318 318 319 320 320 319 320 321 323 324
302 303 303 303 302 301 302 303 303 302 302 302 303 302 302 303 303 305 306 307 308 308 308 308 309 309 310 312 313 314 315 316 317 318 319 319 319 319 320 321 322 323
302 302 302 301 300 299 300 301 301 301 301 301 302 301 301 301 302 303 304 305 306 306 307 307 307 308 309 310 312 313 314 315 316 316 317 318 318 319 319 320 322 323
301 301 301 300 299 299 300 300 300 300 301 301 301 301 300 301 301 302 302 303 304 304 305 305 306 306 307 309 311 312 313 314 315 315 316 317 317 318 318 319 321 322
301 300 300 300 299 298 299 300 300 300 301 301 300 300 300 301 301 301 301 302 302 303 303 304 304 305 306 307 309 310 311 313 314 315 315 315 316 317 317 318 319 320
300 300 300 299 298 298 298 299 299 300 300 300 300 300 300 301 301 301 301 301 301 302 302 303 303 304 305 306 307 308 310 310 312 313 314 314 315 316 316 317 318 319
300 300 300 300 299 298 298 298 298 299 299 299 299 300 300 300 300 300 300 300 300 300 300 301 302 303 303 304 305 306 307 308 309 310 312 313 313 314 315 316 317 318

ECMWFNIL_850_thetae_090.txt.gz
Theta_e
321 321 322 322 323 324 325 326 326 326 327 327 328 328 328 329 329 328 329 329 329 329 329 329 330 330 330 330 330 330 330 330 329 329 330 330 330 329 329 329 330 330
319 319 319 319 320 321 322 322 323 324 324 326 327 327 327 327 327 327 327 328 328 329 329 329 330 330 329 329 329 329 329 329 328 329 329 329 329 329 329 329 329 330
317 317 317 317 318 319 319 320 321 321 322 323 324 325 326 326 325 325 326 326 327 328 328 329 329 330 329 329 328 328 328 329 329 328 328 329 329 329 330 329 329 328
316 316 317 317 317 317 317 318 318 319 320 321 322 324 325 325 324 324 325 326 327 327 327 328 328 329 329 328 328 328 328 329 329 328 328 329 329 329 330 330 329 328
316 316 316 316 316 316 316 316 317 317 318 318 320 321 322 323 323 323 324 325 326 326 327 328 328 329 329 329 328 328 328 328 328 329 329 329 328 329 329 329 329 329
315 315 315 315 314 314 315 315 316 317 317 317 318 319 320 321 320 320 322 324 324 325 325 327 328 328 328 329 329 328 328 328 328 328 329 329 328 328 328 328 328 328
314 314 314 314 313 313 314 314 315 316 317 317 317 318 318 319 319 319 320 321 323 324 324 325 326 327 327 328 329 328 328 327 327 327 328 329 329 329 328 328 327 327
313 313 313 313 313 313 313 314 315 315 316 316 316 317 317 318 318 318 318 319 320 321 322 322 323 324 325 326 327 327 327 327 326 327 327 327 327 328 328 328 329 328
312 312 312 313 313 313 314 314 315 315 315 315 316 316 316 317 317 318 318 318 319 319 320 321 322 323 324 325 325 326 326 326 326 326 326 326 326 326 327 327 328 329
311 311 311 311 311 312 313 314 315 315 315 315 315 315 316 316 316 317 317 318 318 318 318 319 320 321 321 322 322 323 324 324 325 325 325 325 326 326 327 327 327 327
309 309 309 309 309 310 311 313 314 314 314 314 314 314 315 315 315 316 316 317 317 317 318 318 318 318 318 318 319 320 321 322 322 323 324 325 326 326 327 327 327 327
308 308 308 308 308 309 309 310 311 313 313 314 314 314 314 314 314 315 315 316 316 316 317 317 317 317 317 317 317 318 318 318 319 320 321 323 324 325 326 326 326 326
306 306 306 307 307 307 308 308 309 310 312 312 313 313 313 313 313 314 314 315 315 316 316 316 316 316 316 316 316 316 317 317 317 318 319 319 321 322 323 324 325 325
306 306 305 305 305 306 306 306 307 308 309 310 311 312 312 312 312 312 312 313 313 313 314 314 314 314 315 315 315 315 315 316 316 316 317 317 318 319 320 321 323 325
305 305 305 304 304 305 305 305 306 307 308 308 309 309 310 310 310 310 311 311 311 311 311 312 312 312 313 313 313 314 314 315 315 316 316 317 317 318 318 319 320 322
304 304 304 304 304 304 304 304 304 305 306 307 307 307 308 309 309 309 310 310 310 310 310 310 311 311 311 311 312 313 314 315 315 316 317 317 318 318 318 319 319 319
304 303 303 303 303 303 303 303 303 303 304 305 306 306 307 307 308 308 308 308 309 309 309 309 309 309 309 310 311 312 313 314 315 316 317 317 317 318 318 319 319 319
301 301 301 301 302 302 302 302 302 302 303 303 304 305 306 306 306 306 306 307 307 307 307 307 307 308 308 309 310 311 312 313 314 315 316 316 317 316 317 318 319 319
299 300 300 301 301 302 302 302 302 302 302 302 303 303 303 303 304 304 304 304 305 305 305 306 306 306 307 307 308 310 311 312 313 314 315 315 315 315 316 317 317 318
299 299 299 300 300 301 301 302 302 302 301 301 301 301 301 302 302 302 303 303 303 304 304 304 305 305 305 306 307 308 310 311 312 313 314 314 314 314 315 315 317 317
298 298 298 299 299 299 300 300 301 301 301 300 300 300 300 301 301 301 301 302 302 303 303 303 303 304 304 305 305 307 309 310 311 312 313 313 312 313 314 314 316 317
299 299 298 298 298 298 299 299 299 299 300 300 300 300 300 300 299 299 300 300 300 300 301 301 302 302 303 303 304 305 307 309 310 310 311 312 311 312 313 314 315 316
299 299 298 298 298 298 298 298 298 299 299 299 299 299 299 299 299 299 299 299 299 299 299 299 299 300 301 301 302 303 305 306 308 309 310 310 310 311 312 314 315 316
300 299 299 298 298 298 298 298 298 298 298 297 297 297 297 297 297 297 298 298 299 298 298 298 298 298 299 299 300 302 303 304 306 307 308 309 310 310 311 313 314 315
300 300 300 299 298 298 298 298 298 297 297 296 296 295 295 295 295 295 296 297 298 298 298 298 298 297 297 298 298 300 301 302 303 305 306 308 308 309 310 312 313 314
300 300 300 299 299 298 298 298 298 298 298 297 296 296 295 295 294 294 295 296 297 297 298 298 297 297 296 297 297 298 299 300 302 303 304 306 306 307 308 310 310 312

ECMWFNIL_850_thetae_093.txt.gz
Theta_e
324 324 324 324 324 324 323 323 323 323 323 323 323 323 324 325 325 324 324 324 324 324 326 327 328 328 328 328 329 329 329 328 328 328 328 328 329 328 328 328 329 329
319 319 320 320 320 320 320 320 320 320 321 321 321 321 322 323 324 324 323 323 323 322 323 325 326 327 328 328 328 328 328 328 327 327 328 328 329 328 328 328 328 329
317 317 317 317 318 318 318 319 319 319 319 320 320 319 320 321 322 322 322 322 322 322 323 324 325 326 327 326 326 326 327 327 327 327 328 328 328 328 328 328 328 329
316 316 316 316 317 317 317 317 317 317 318 318 318 319 319 319 320 320 320 321 321 321 322 322 324 325 325 325 325 325 326 326 326 326 327 327 327 328 328 328 328 328
316 316 316 316 316 316 316 316 316 316 316 317 317 317 318 319 319 320 320 320 320 320 320 321 322 322 323 324 324 325 326 326 326 326 326 326 326 326 327 327 327 328
315 315 315 315 315 315 315 316 316 316 316 317 317 317 317 318 318 319 319 320 319 318 318 319 319 320 321 321 322 323 325 326 327 326 326 325 325 325 325 325 326 327
314 314 314 314 314 314 315 315 316 316 316 316 316 316 316 317 317 318 318 319 318 318 318 318 318 319 319 319 319 320 322 324 325 326 325 325 324 324 324 324 325 325
313 313 313 312 313 314 314 315 315 315 315 315 315 315 315 315 316 316 317 317 317 317 318 318 318 317 318 318 318 318 319 320 321 322 323 323 323 324 324 324 323 323
311 311 311 311 312 313 314 314 315 315 315 315 314 314 314 314 314 315 315 316 316 316 317 317 317 317 316 317 317 317 317 317 318 318 319 320 321 321 322 322 322 323
309 309 310 310 311 311 312 313 313 314 314 314 314 314 314 314 314 314 314 314 315 315 315 315 315 315 315 315 316 316 316 316 316 316 316 317 318 318 319 320 321 322
308 308 309 309 309 309 310 311 312 312 313 313 313 313 313 313 313 313 313 313 313 314 314 314 314 313 314 314 314 314 315 315 315 315 315 315 316 316 317 318 319 320
307 307 307 307 308 308 308 309 310 310 310 311 311 311 312 312 312 312 312 312 312 312 312 312 312 312 312 312 313 313 313 314 314 314 314 315 315 315 316 316 317 318
306 306 306 306 306 307 307 307 308 308 309 309 309 310 310 310 310 310 310 310 310 310 310 310 310 310 310 311 311 311 312 313 313 313 314 314 315 315 316 316 317 317
305 305 305 305 305 306 306 306 306 306 307 307 308 308 308 308 308 308 309 309 309 309 308 309 309 309 309 309 310 310 310 311 312 313 313 313 314 315 316 316 317 317
304 304 304 304 304 304 305 305 304 304 305 306 306 307 306 306 306 306 307 307 307 307 307 307 307 307 307 307 307 308 308 309 310 311 312 313 313 314 315 315 316 316
302 302 302 302 303 303 303 303 303 303 304 304 305 305 304 304 304 304 304 305 305 305 305 305 305 306 305 305 305 306 307 308 309 310 311 312 313 313 314 314 314 315
301 302 302 302 302 302 302 302 303 303 303 303 303 303 303 302 303 303 303 303 303 303 303 304 304 304 304 304 304 305 306 307 308 309 310 311 312 312 312 313 313 313
301 301 301 301 301 302 302 302 302 301 301 301 301 301 301 301 301 301 301 301 301 301 301 301 302 302 302 303 303 304 305 306 307 308 309 310 311 311 311 311 312 313
299 299 299 300 300 300 300 300 300 300 300 300 300 300 300 300 300 300 300 300 299 300 299 299 300 300 300 301 302 303 304 305 306 307 308 309 309 310 310 310 310 311
298 298 298 299 299 299 299 299 298 298 298 297 297 298 298 298 299 299 299 299 299 299 299 298 298 298 299 299 300 301 302 303 304 306 307 308 308 308 309 309 309 309
298 298 298 298 298 298 297 297 296 296 295 295 295 295 295 296 296 297 298 298 298 298 298 298 298 298 298 298 298 299 300 302 303 305 306 307 307 308 308 307 308 309
297 297 298 298 298 297 297 296 296 296 295 295 295 295 294 294 294 295 296 296 297 298 298 297 297 297 297 297 298 298 299 300 302 303 304 305 306 307 307 306 306 307
297 297 297 298 298 298 297 297 297 296 296 295 295 295 295 294 294 294 294 295 296 296 297 297 297 296 296 296 297 298 298 299 300 301 303 304 305 305 305 305 305 306
298 298 298 297 297 297 298 297 297 297 297 296 296 295 295 294 294 294 294 294 295 295 296 296 296 296 296 296 297 297 298 298 299 299 301 302 303 304 304 304 304 305
298 298 298 297 297 297 297 297 297 297 297 296 296 295 294 294 293 293 294 294 294 295 296 296 296 296 296 296 296 297 297 297 298 299 299 300 301 302 303 303 303 304
297 297 297 297 297 296 296 296 296 296 296 296 296 295 294 293 293 293 293 294 294 295 295 296 296 296 295 296 296 296 296 297 297 298 299 299 300 300 301 302 302 303

ECMWFNIL_850_thetae_096.txt.gz
Theta_e
324 324 324 324 324 323 323 322 321 321 320 320 319 319 319 319 319 319 320 320 320 320 319 319 320 320 320 321 322 324 324 324 325 325 326 326 326 326 326 326 327 327
321 321 321 320 320 320 319 319 319 318 318 318 318 318 318 318 318 318 318 318 318 319 319 319 319 319 319 319 321 323 323 323 323 323 324 325 324 325 325 325 325 326
317 317 318 317 317 317 317 317 317 316 316 316 316 316 316 317 317 317 317 318 318 318 318 318 318 318 318 318 320 322 322 322 322 322 323 325 325 325 325 324 324 324
316 316 316 316 316 316 316 315 315 315 316 316 316 316 316 316 317 317 317 317 318 318 318 318 318 317 317 317 317 318 319 320 321 321 322 323 324 325 326 325 324 324
314 315 315 315 315 315 315 315 315 315 315 316 316 316 316 316 316 316 316 317 317 317 317 317 317 317 317 316 317 317 317 318 319 319 320 320 322 323 325 325 324 323
313 313 313 314 314 314 314 315 315 315 315 315 315 315 315 315 315 315 315 315 316 316 316 316 316 316 316 316 316 316 316 317 317 317 318 318 319 320 321 322 322 322
311 312 312 312 313 313 315 315 315 315 315 315 314 314 314 314 314 314 314 314 314 315 315 315 315 315 315 315 315 315 315 316 316 316 316 316 317 317 317 318 318 319
310 311 311 312 312 313 314 314 314 314 314 314 314 313 313 313 313 313 313 313 313 313 313 314 314 314 314 314 314 314 314 314 314 314 315 315 315 315 315 315 316 316
309 310 310 311 312 312 312 312 312 312 312 312 312 312 312 312 312 312 312 312 312 312 312 312 312 312 312 312 312 313 313 313 313 313 313 313 314 314 314 314 315 315
309 309 310 310 310 310 310 310 310 310 310 310 311 311 311 311 311 311 311 311 311 311 311 311 311 311 311 311 311 312 312 312 312 312 312 312 312 313 313 314 314 314
308 308 308 308 308 308 308 308 308 308 308 309 309 309 309 309 310 310 310 310 310 310 310 309 309 309 309 310 310 310 310 310 311 311 311 311 312 312 312 313 313 314
307 306 306 306 306 306 306 306 307 307 307 307 307 307 307 307 307 307 307 307 307 307 307 307 307 307 307 307 308 308 308 308 308 309 309 310 310 311 311 312 312 313
305 305 305 304 304 304 305 305 305 306 306 306 306 305 305 305 305 305 305 305 305 305 305 304 304 305 305 305 305 306 306 306 306 307 307 308 309 310 311 311 312 312
303 304 303 303 303 303 303 304 304 304 304 304 304 304 304 304 303 303 303 303 303 303 303 302 302 303 303 303 304 304 304 304 305 305 306 307 308 309 310 311 311 311
302 302 302 302 302 302 303 303 303 303 302 302 302 302 302 302 302 302 301 301 301 301 301 301 301 301 300 300 301 302 302 303 303 304 305 305 306 308 309 310 310 310
302 302 302 302 302 302 302 301 301 301 301 301 301 301 300 300 300 300 300 300 300 300 300 300 300 299 299 299 299 300 300 301 301 302 303 304 305 306 307 308 309 309
301 301 301 301 301 300 300 300 299 299 299 299 298 298 298 299 299 299 299 299 299 299 299 299 299 299 298 299 299 299 299 299 300 301 302 303 304 305 306 307 307 308
300 300 300 299 299 298 297 297 297 297 296 296 296 296 296 296 296 296 297 297 297 298 298 298 298 298 298 298 298 298 298 299 299 299 300 301 303 303 304 305 306 306
299 298 298 298 297 296 296 296 296 296 295 295 295 295 295 295 295 295 295 295 295 296 297 297 297 297 297 297 298 298 298 298 299 299 299 300 301 302 303 303 304 304
298 297 297 297 296 296 296 296 296 295 295 295 295 295 294 294 294 294 294 294 295 295 296 296 296 297 297 297 297 297 298 298 298 299 299 299 300 301 301 302 302 302
297 297 297 297 296 296 296 296 295 295 294 294 294 294 293 293 293 293 293 294 294 295 296 296 296 296 296 297 297 297 297 298 298 298 299 299 299 300 301 301 301 301
297 297 297 297 297 296 296 295 295 294 294 294 293 293 293 293 293 293 293 294 294 295 296 296 296 296 296 296 296 297 297 297 297 298 298 298 299 299 300 300 300 300
297 297 296 296 296 296 296 295 294 294 294 293 293 293 293 293 293 293 293 294 294 295 295 296 296 296 296 296 296 296 296 297 297 297 298 298 298 299 299 299 299 299
297 296 296 296 296 295 295 295 294 294 293 293 293 293 293 293 293 293 293 294 294 295 295 295 296 296 296 296 296 296 296 296 296 297 297 297 298 298 298 298 298 299
296 295 295 295 295 295 295 295 294 294 293 293 293 293 293 293 293 293 293 294 294 295 295 296 296 296 295 295 295 295 295 295 296 296 296 297 297 297 297 297 298 299
295 295 295 295 295 295 295 294 294 294 293 293 293 293 293 293 293 293 293 294 294 294 295 295 296 295 295 295 295 295 295 295 295 295 296 296 296 296 297 297 298 299

ECMWFNIL_850_thetae_099.txt.gz
Theta_e
319 319 320 319 319 318 318 318 317 317 316 316 316 316 316 316 316 316 317 317 317 317 317 317 317 318 318 318 318 318 319 321 322 321 321 320 320 321 323 324 324 324
317 317 317 317 317 316 316 316 316 315 315 315 316 316 316 316 316 316 316 316 317 317 317 317 317 317 317 317 317 317 317 318 318 318 318 318 318 320 321 322 323 324
315 315 315 315 315 315 315 315 315 315 315 315 315 315 315 315 315 315 315 315 316 316 316 316 316 316 316 316 316 316 316 316 316 317 317 317 318 318 319 320 321 322
313 313 314 314 314 314 314 314 315 315 315 315 315 314 314 314 314 314 314 314 314 314 314 314 314 314 314 314 314 314 315 315 315 316 316 316 316 316 317 318 319 319
311 312 312 312 313 313 314 315 315 315 315 315 314 314 313 313 313 313 313 313 313 313 313 313 313 313 313 313 313 313 313 313 314 314 314 314 315 315 315 316 316 317
310 311 311 312 313 314 314 314 314 314 314 313 313 313 312 312 312 312 312 312 312 312 312 312 312 312 312 312 312 312 312 312 312 312 312 313 313 313 314 314 314 314
310 310 311 312 312 313 313 313 313 312 312 311 311 311 311 311 311 311 311 311 311 311 310 310 310 310 310 310 310 311 311 311 311 311 311 311 312 312 312 312 313 313
309 310 310 311 311 311 311 311 311 310 310 310 309 309 309 309 309 309 309 309 309 309 308 308 307 307 307 307 307 307 308 308 308 309 309 309 310 310 311 311 311 311
308 309 309 309 310 310 310 309 309 308 308 308 308 308 308 307 307 307 307 306 306 306 305 305 305 304 304 304 304 305 305 305 305 306 306 307 307 308 309 309 310 310
307 307 308 308 308 308 308 307 307 307 307 307 306 306 306 305 305 305 304 304 304 303 303 303 303 303 303 302 302 302 302 303 303 303 304 304 305 306 307 307 308 309
305 306 306 306 306 306 306 306 305 305 305 305 304 304 304 303 303 303 302 302 302 302 301 301 301 301 301 301 301 301 301 301 301 301 302 302 303 304 305 306 307 308
304 304 304 305 304 304 304 304 304 303 303 303 302 302 302 301 301 301 301 301 300 300 300 300 300 300 300 300 300 300 300 300 300 300 300 300 301 302 303 304 305 307
303 303 303 303 303 303 303 302 302 301 301 300 300 299 299 299 299 298 298 298 298 298 298 298 298 298 298 298 299 299 299 299 299 299 300 300 300 300 301 302 304 305
302 302 302 302 302 301 301 300 300 299 298 298 297 297 297 296 296 296 296 296 296 296 296 297 297 297 298 298 298 298 298 298 299 299 299 299 299 300 300 301 302 304
302 302 301 300 300 299 299 298 297 297 297 296 296 296 295 295 295 295 295 295 295 295 295 296 297 297 297 297 298 298 298 298 298 299 299 299 299 299 300 300 301 302
301 300 299 299 298 297 297 297 296 296 296 295 295 295 295 295 295 295 294 294 294 294 295 296 296 297 297 297 297 297 298 298 298 298 298 299 299 299 300 300 300 301
299 298 298 297 297 296 296 296 296 295 295 295 295 294 294 294 294 294 294 294 294 295 295 296 296 297 297 297 297 297 297 298 298 298 298 298 298 299 299 300 300 300
298 297 297 296 296 296 296 295 295 295 294 294 294 294 294 294 294 294 294 294 294 295 296 296 296 296 297 297 297 297 297 297 297 298 298 298 298 298 299 299 299 299
297 297 297 296 296 296 295 295 294 294 294 294 294 294 294 294 294 294 294 294 295 295 296 296 296 296 297 297 297 297 297 297 297 297 297 297 297 298 298 298 298 298
297 297 296 296 295 295 294 294 294 294 294 294 294 294 294 294 294 294 294 295 295 296 296 296 296 296 296 296 297 297 297 297 297 297 297 297 297 297 297 297 297 298
296 296 296 296 295 294 294 294 294 293 293 293 293 293 294 294 294 294 295 295 296 296 296 296 296 296 296 296 296 296 296 297 296 296 296 296 296 297 297 297 297 298
296 296 295 295 294 294 294 293 293 293 293 293 293 293 293 293 294 294 294 295 295 296 296 296 295 295 295 295 296 296 296 296 296 296 296 296 296 296 296 297 297 298
296 295 295 294 294 294 294 293 293 293 293 293 293 293 293 293 293 294 294 294 295 295 295 295 295 295 295 295 295 295 295 295 295 295 295 295 296 296 296 296 297 297
295 295 295 294 294 294 294 293 293 293 293 293 293 293 293 293 293 293 294 294 294 294 294 294 294 294 294 294 295 295 295 295 295 295 295 295 295 295 296 296 296 297
295 295 294 294 294 294 294 293 293 293 293 293 293 293 293 293 293 293 293 293 294 294 294 294 294 294 294 294 294 294 294 295 295 295 295 295 295 295 295 296 296 296
295 295 294 294 294 294 294 294 293 293 293 293 293 293 293 293 293 293 293 293 293 293 293 293 294 294 294 294 294 294 294 294 294 295 295 295 295 295 295 295 295 296

ECMWFNIL_850_thetae_102.txt.gz
Theta_e
318 318 317 317 317 316 316 316 316 316 316 316 316 315 315 315 315 315 315 315 315 315 315 315 315 315 315 315 315 315 315 315 316 316 317 317 317 317 317 317 318 319
316 316 316 315 315 315 315 315 315 315 315 315 315 315 315 314 314 314 314 314 314 314 314 313 313 313 313 313 313 313 313 314 314 314 315 315 315 315 315 316 316 317
314 314 314 314 314 314 314 314 314 315 314 314 314 314 314 313 313 313 313 313 313 312 312 312 312 312 312 312 312 312 312 312 312 313 313 313 313 313 314 314 314 315
312 312 313 313 314 313 314 314 314 314 314 313 313 313 312 312 312 312 312 312 311 311 311 311 311 310 310 310 310 310 310 310 310 310 311 311 311 311 312 312 312 313
312 312 312 313 313 313 313 313 313 313 312 312 311 311 311 311 311 310 310 310 309 309 308 308 307 307 307 307 307 307 307 307 307 307 307 308 308 308 309 310 310 310
311 311 311 312 312 312 312 312 311 311 310 310 310 309 309 309 308 308 308 307 306 306 305 305 304 304 304 304 304 304 304 304 304 305 305 305 306 307 307 308 309 309
310 310 310 310 310 310 310 309 309 309 308 308 308 307 307 306 306 305 305 304 304 303 303 302 302 302 302 302 302 301 302 302 302 302 302 303 304 305 306 306 307 308
310 310 309 309 309 308 308 308 307 307 306 306 305 305 305 304 303 303 302 302 301 301 300 300 300 300 299 299 299 299 299 300 300 300 300 301 301 303 305 305 305 306
308 308 308 308 308 307 307 306 305 305 304 304 303 303 302 301 301 300 300 299 299 298 298 298 298 298 298 298 298 298 298 298 298 299 299 300 302 303 304 304 304 305
307 307 307 307 306 305 304 304 303 303 302 301 300 300 299 298 298 298 297 297 296 296 296 296 297 297 297 297 297 297 297 297 298 299 299 300 302 303 304 304 304 304
306 306 306 305 304 303 302 301 301 300 299 298 297 297 297 296 296 296 295 295 295 295 296 296 296 296 296 296 297 297 297 297 298 299 300 301 302 303 303 303 303 304
305 304 304 303 302 300 300 299 298 297 297 297 296 296 296 295 295 295 295 295 295 295 295 296 296 296 296 296 297 297 297 297 298 298 299 301 302 302 302 303 302 303
304 302 301 300 299 298 298 297 296 296 296 295 295 295 295 295 295 295 294 294 295 295 296 296 296 296 296 296 297 297 297 298 298 298 299 300 301 302 302 302 302 302
301 300 299 298 297 297 296 296 295 295 295 295 295 295 295 295 294 294 294 295 295 296 296 296 296 296 296 297 297 297 297 298 298 298 299 300 301 301 301 301 301 301
299 298 297 296 296 296 295 295 295 295 295 294 294 294 294 294 294 294 294 295 296 296 296 296 296 296 297 297 297 297 297 298 298 299 299 300 300 300 300 300 300 300
297 297 296 296 295 295 294 294 294 294 294 294 294 294 294 294 294 294 295 296 296 296 296 296 296 296 296 297 297 297 297 297 298 299 299 299 299 300 299 299 299 299
297 296 296 295 294 294 294 294 294 294 294 294 294 294 294 294 294 295 295 296 296 296 296 296 296 296 296 296 296 296 297 297 297 298 298 299 299 299 299 299 299 299
296 295 295 294 294 294 294 294 294 294 294 294 294 294 294 294 294 295 295 296 296 296 296 295 296 295 296 296 296 296 296 296 297 297 298 298 299 299 298 299 298 298
296 295 294 294 294 294 294 294 294 294 294 294 294 294 294 294 294 295 295 296 296 296 296 295 295 295 295 296 296 296 296 296 298 298 298 298 298 298 298 298 298 298
295 294 294 294 294 294 294 294 293 294 294 294 294 294 294 294 294 294 295 295 295 296 296 295 294 295 295 295 295 295 295 296 297 298 298 298 298 298 298 298 297 297
295 294 294 294 294 294 293 294 294 293 293 293 294 294 294 294 294 294 294 294 294 296 296 295 294 294 295 295 295 295 295 295 296 297 298 298 298 298 297 297 297 297
295 295 294 294 294 294 293 293 293 293 293 293 293 293 293 293 293 294 294 294 294 295 296 295 294 294 294 294 294 295 295 295 296 297 297 297 297 297 297 297 297 296
296 295 294 294 294 294 293 293 293 293 293 293 293 293 293 293 293 293 293 294 293 294 295 295 294 293 294 294 294 294 294 295 295 296 297 297 297 297 297 297 297 296
296 294 294 294 294 294 293 293 293 293 293 293 293 293 293 293 293 293 293 293 293 293 294 295 295 294 294 294 294 294 294 295 295 296 297 297 297 297 297 296 296 296
295 295 294 294 293 293 294 293 293 293 293 293 294 294 293 293 293 293 292 292 293 293 293 294 294 294 293 293 294 294 294 294 294 295 296 297 296 296 296 296 296 296
295 294 294 294 294 293 294 294 294 293 293 294 294 294 293 293 293 293 293 292 292 293 293 293 293 293 294 293 293 294 294 294 294 295 296 296 296 296 296 296 296 296

ECMWFNIL_850_thetae_105.txt.gz
Theta_e
320 320 319 318 318 318 318 317 317 317 317 317 317 316 316 315 315 314 315 315 314 314 313 312 312 312 312 312 312 312 312 312 312 312 312 313 314 314 314 315 315 315
317 317 317 316 316 316 316 316 316 316 316 316 316 315 314 314 314 314 313 313 313 312 311 311 311 310 310 310 309 309 309 309 309 309 309 312 313 313 313 313 314 314
316 315 316 316 315 315 315 315 315 315 315 315 314 313 313 313 313 312 312 311 310 309 309 308 308 307 307 307 306 306 306 305 306 306 306 309 310 311 311 312 312 312
314 314 314 315 314 314 314 314 315 315 314 313 312 312 312 312 311 310 309 308 307 306 305 305 305 304 304 304 303 303 303 303 303 303 304 306 307 308 310 310 311 311
314 314 313 314 313 313 313 314 314 313 312 311 311 311 311 310 308 306 305 305 304 303 303 302 302 302 301 301 301 300 300 301 300 301 304 304 305 307 308 308 309 310
313 312 312 312 312 312 312 312 312 311 311 310 309 308 307 306 305 304 304 303 302 300 300 299 299 299 299 298 298 298 298 299 298 299 302 303 303 305 306 307 308 309
311 311 311 311 311 311 311 311 311 310 308 307 306 305 304 304 303 303 302 301 300 298 297 297 297 297 297 296 296 297 297 297 297 298 300 301 303 305 306 307 307 308
311 311 311 310 310 310 310 309 309 307 305 304 303 302 303 302 301 300 300 299 298 296 296 296 296 296 296 296 296 297 297 297 298 299 301 303 305 306 306 306 307 307
310 310 310 310 309 308 307 305 304 304 303 302 301 300 299 299 299 299 299 299 298 296 295 295 296 296 296 296 296 297 298 300 300 301 303 305 305 305 306 306 306 306
309 309 309 308 307 305 304 302 301 302 301 300 300 300 299 298 299 299 299 299 299 297 295 295 296 296 296 296 296 297 299 301 301 302 303 304 305 305 305 305 305 305
309 308 306 304 303 302 301 300 299 299 299 299 299 299 298 299 300 301 301 300 298 296 296 295 296 296 296 296 296 297 299 301 302 302 303 304 304 304 304 304 304 304
308 306 303 301 301 300 299 298 298 299 299 299 299 299 298 299 299 300 301 300 297 296 296 296 296 296 296 296 296 296 299 302 303 303 304 304 304 304 303 303 303 303
307 304 301 300 299 298 297 296 297 297 298 298 299 300 300 300 300 299 300 299 297 296 296 296 296 296 296 296 296 296 300 303 304 303 303 304 303 303 303 302 302 302
303 301 299 299 297 297 296 295 295 295 296 296 296 298 301 302 302 301 301 299 297 296 296 295 295 296 296 296 296 296 299 303 304 303 303 303 303 302 302 301 301 301
300 299 298 297 296 296 296 295 295 295 295 296 296 297 299 302 302 302 302 301 298 296 296 295 295 296 295 296 296 295 297 301 303 303 303 303 302 302 301 301 301 301
300 299 298 297 297 297 296 296 295 295 295 296 296 296 297 299 301 302 302 301 297 295 295 295 295 296 296 295 296 296 296 299 302 303 302 302 302 301 301 301 300 300
301 300 300 298 298 297 296 296 295 294 294 294 294 295 296 298 300 300 300 299 297 295 295 295 295 295 295 295 295 296 295 298 302 303 302 301 301 301 300 300 300 299
302 301 299 298 297 296 295 295 294 294 295 295 295 295 296 297 298 298 299 300 299 295 294 295 295 295 295 295 295 295 295 298 301 302 301 301 300 300 300 299 299 299
300 298 296 295 295 294 294 294 294 295 295 295 295 295 295 295 296 297 299 301 300 297 294 294 295 294 295 295 295 295 295 298 301 301 301 301 300 300 299 299 299 298
296 295 295 295 295 295 295 295 295 296 297 297 297 297 296 296 295 295 297 299 301 299 295 294 294 294 294 294 295 295 295 298 300 301 300 300 300 299 299 299 298 298
298 297 297 297 296 295 295 296 297 298 299 299 299 298 298 297 295 295 295 298 301 301 296 293 294 294 294 294 294 295 296 299 300 300 300 300 300 299 299 299 298 298
300 299 299 299 298 296 296 297 299 300 300 299 300 299 298 296 295 295 294 295 299 300 297 294 293 294 294 294 294 294 295 298 300 300 300 300 300 299 299 299 298 297
300 300 300 300 299 299 298 299 300 300 300 300 300 300 299 298 296 295 294 293 295 297 297 294 293 294 294 294 294 294 294 297 299 300 300 300 299 299 299 298 298 297
300 300 300 300 300 300 300 300 300 300 300 300 300 300 300 300 299 297 295 294 293 294 294 294 293 294 294 294 294 293 294 295 297 298 299 299 299 299 299 298 297 297
300 300 300 300 300 300 301 301 301 301 300 300 300 300 300 300 300 299 297 296 295 294 293 293 293 293 293 293 294 293 293 294 294 295 297 299 299 298 298 298 297 297
300 300 300 300 300 301 301 301 301 301 300 300 300 300 301 300 300 300 299 298 298 297 294 293 293 293 293 293 293 293 293 293 294 294 295 297 299 298 298 298 297 297

ECMWFNIL_850_thetae_108.txt.gz
Theta_e
322 322 322 321 321 320 319 319 319 318 318 317 316 315 315 314 314 314 313 312 310 310 310 309 309 308 308 308 307 307 307 306 306 306 306 309 310 309 309 310 310 310
320 319 319 318 318 317 317 316 317 316 316 317 316 314 314 313 313 312 311 310 309 308 307 307 307 306 306 305 305 305 304 304 303 303 304 305 305 307 308 307 308 309
317 317 316 316 316 316 315 315 315 315 315 315 313 313 313 312 310 309 308 307 306 306 305 304 304 304 303 303 302 302 301 301 301 300 302 301 301 305 306 305 306 308
315 315 314 314 314 314 314 314 315 314 313 313 312 312 312 310 307 306 305 304 304 303 302 302 301 301 300 300 299 299 299 298 298 299 300 300 300 304 306 306 307 308
313 313 313 313 313 313 313 313 314 313 312 312 312 311 309 307 305 304 303 302 301 300 299 299 299 298 298 298 298 297 297 297 297 299 301 302 304 306 306 307 308 307
313 313 313 313 313 312 312 312 312 312 311 309 308 308 307 306 304 302 301 300 298 298 297 297 297 297 296 296 297 296 297 297 297 299 302 304 306 307 306 306 306 306
312 312 312 312 312 312 312 311 311 311 309 307 306 306 305 303 302 301 300 298 297 296 296 296 296 296 296 296 297 297 297 298 298 301 304 304 305 306 305 305 305 306
312 312 312 311 312 312 311 309 307 307 306 304 304 303 302 301 301 302 299 296 296 296 296 296 296 296 296 296 297 299 299 299 299 302 304 304 305 305 305 305 304 304
311 311 311 311 310 310 308 306 305 305 304 302 301 300 300 300 301 301 299 296 295 295 295 296 296 296 296 296 296 299 301 301 300 302 303 304 305 305 304 303 303 303
310 310 310 310 309 308 306 305 304 304 303 301 300 300 301 301 300 299 297 295 295 295 295 295 296 296 296 296 296 300 303 303 302 304 304 304 305 304 302 303 302 302
310 310 309 308 306 305 304 303 302 302 301 301 301 302 303 304 302 298 295 295 295 295 295 295 296 296 296 296 297 300 304 303 303 304 305 303 303 303 302 302 302 302
309 308 306 304 303 303 302 301 301 302 301 300 300 299 301 302 301 298 295 295 295 295 295 295 295 296 295 296 297 298 302 304 303 304 304 303 302 303 302 302 301 301
307 306 303 302 302 301 301 302 303 302 302 302 302 301 300 299 298 296 295 295 295 295 295 295 295 296 295 296 297 297 300 304 303 303 303 302 302 302 302 301 301 301
304 303 302 301 300 299 299 300 300 300 300 301 303 303 303 302 301 299 296 295 295 295 295 295 295 295 295 295 296 297 299 302 303 303 302 302 301 302 301 301 300 299
302 301 300 299 298 298 298 298 298 298 298 299 302 304 304 304 303 301 297 294 295 295 295 295 294 295 295 295 295 297 298 301 303 303 302 301 301 301 301 300 300 299
300 300 299 298 298 298 297 297 298 298 298 299 300 302 303 304 303 300 296 294 295 295 294 295 295 294 295 295 295 296 297 299 301 302 302 301 301 301 300 300 299 298
301 301 299 298 298 298 297 297 297 297 297 297 297 299 301 302 301 298 295 294 294 295 294 294 295 294 295 295 295 296 297 298 300 302 302 301 300 300 300 300 299 298
303 303 301 300 298 297 296 296 296 295 295 295 296 297 298 299 299 299 299 296 294 294 294 294 294 294 294 295 295 295 296 298 300 302 302 301 300 300 300 299 298 298
303 302 300 298 296 295 295 295 295 294 295 294 295 295 295 296 298 301 301 298 294 294 294 294 294 294 294 294 295 295 296 298 300 301 301 300 300 300 300 299 299 298
300 298 296 295 295 295 295 294 294 294 295 295 295 294 294 295 296 299 301 300 296 293 294 294 294 294 294 294 295 296 297 299 300 301 301 300 300 299 299 299 298 298
296 295 295 296 297 297 296 296 296 296 297 297 296 295 294 294 294 297 301 301 296 293 294 294 294 294 294 294 294 295 296 299 301 301 301 300 299 299 299 299 298 298
298 297 297 298 298 298 297 296 295 296 296 296 295 295 294 294 294 295 298 298 296 293 294 294 294 294 294 294 294 294 294 297 299 300 301 300 299 299 299 299 298 297
301 300 299 299 298 298 297 297 297 297 297 296 296 295 294 293 293 293 294 295 295 294 294 294 293 293 293 293 293 294 293 294 296 298 300 300 299 299 299 299 298 298
301 301 301 300 299 297 297 298 298 297 297 298 299 299 298 297 295 294 293 293 293 294 294 293 293 293 293 293 293 293 293 293 294 295 297 298 298 298 299 299 298 298
301 301 301 300 298 297 297 298 298 299 299 299 300 300 301 299 297 296 296 295 294 293 293 293 293 293 293 293 293 293 293 293 293 293 295 297 298 298 299 298 298 298
301 301 301 299 298 298 299 300 301 301 301 302 302 301 301 300 299 298 298 298 297 295 294 293 293 292 292 293 293 293 293 293 293 292 294 295 297 298 298 298 298 298

ECMWFNIL_850_thetae_111.txt.gz
Theta_e
329 328 328 327 327 327 326 324 323 322 322 322 319 316 315 315 314 313 311 310 310 309 308 308 307 307 306 305 305 304 303 303 303 302 302 301 302 302 302 304 306 308
327 328 327 327 326 325 324 322 321 320 320 318 315 314 314 313 313 311 309 308 308 307 306 306 305 304 303 303 302 301 301 301 300 300 300 301 301 301 302 305 306 307
326 325 325 325 324 323 322 321 319 318 316 314 313 313 312 310 309 308 306 306 305 304 304 303 302 301 301 300 299 299 299 299 299 300 301 302 302 301 303 305 306 306
323 323 323 322 322 321 320 318 316 314 313 312 313 312 310 307 306 305 305 304 303 302 301 300 300 299 298 298 298 298 298 299 300 301 301 301 301 301 302 303 304 304
320 319 319 318 318 317 316 314 313 312 312 312 312 310 308 305 304 304 303 302 301 300 299 298 298 298 297 297 297 297 298 298 300 301 301 301 300 300 301 302 302 301
316 315 314 314 313 313 313 312 312 312 311 311 310 308 306 305 304 302 301 300 299 298 297 297 297 297 297 297 297 297 298 299 300 300 301 301 300 299 300 300 299 298
313 313 313 312 312 312 312 311 311 310 310 310 308 306 305 303 302 300 299 298 297 297 297 297 296 296 297 297 297 298 298 298 299 299 300 300 299 298 298 298 298 297
312 312 312 312 312 312 311 311 310 308 308 307 306 305 303 301 299 298 297 297 296 296 296 296 296 296 297 297 297 298 299 300 300 299 299 299 298 298 299 298 297 297
312 312 312 312 311 311 310 309 308 307 306 305 303 303 302 300 298 296 296 296 296 296 296 296 296 296 297 297 297 298 300 303 303 301 300 299 300 300 300 298 297 296
311 311 311 311 309 308 307 306 305 304 303 302 302 301 300 299 297 296 296 296 296 296 296 296 296 296 297 297 297 298 301 304 304 301 300 301 301 301 299 298 297 296
311 311 311 310 308 307 306 305 304 302 301 302 302 301 299 297 296 295 295 295 295 296 296 296 296 296 298 298 298 299 301 303 303 301 300 301 301 300 298 297 296 296
310 309 309 308 307 306 305 304 303 301 302 303 303 302 300 296 295 295 295 295 295 295 295 295 296 296 297 298 299 300 300 301 302 301 300 301 300 298 297 297 296 296
309 308 307 306 305 304 304 303 302 301 301 302 302 301 299 296 295 295 295 295 295 295 295 295 295 296 297 298 300 300 300 301 301 300 300 301 299 297 297 296 296 296
307 306 305 304 303 303 302 302 301 301 301 302 301 299 296 295 295 295 295 295 295 295 295 295 295 295 296 297 299 300 301 301 300 299 299 300 298 297 297 297 296 296
306 305 304 303 302 302 302 301 301 302 303 303 302 300 297 295 295 295 295 295 295 295 295 295 295 295 296 297 299 300 300 300 301 300 299 299 299 298 297 297 297 297
304 303 302 301 301 301 301 301 301 302 302 303 303 301 298 295 295 295 295 295 295 295 295 295 295 295 295 296 297 298 299 300 301 300 299 299 300 299 298 298 298 297
303 302 301 300 300 299 299 299 299 299 300 301 302 301 298 295 295 295 295 294 295 294 294 295 294 295 295 296 296 297 298 300 300 299 299 299 300 299 298 298 298 297
301 300 299 299 298 298 297 297 297 298 298 299 300 299 297 295 294 295 294 294 294 294 294 294 294 294 295 295 296 297 297 299 299 299 299 299 299 299 298 298 298 297
300 299 298 297 297 297 296 296 296 297 297 298 298 297 296 295 295 294 294 294 294 294 294 294 294 294 294 295 295 296 298 299 300 300 300 299 299 299 299 299 298 297
299 298 297 297 296 296 295 295 296 296 296 296 296 295 296 296 295 294 294 294 294 294 294 294 294 294 294 294 295 295 297 298 299 300 300 299 299 299 299 299 298 297
299 298 297 296 296 295 295 295 295 295 295 295 294 294 295 296 295 294 294 294 294 294 294 294 294 294 294 294 294 294 295 296 298 299 300 299 298 299 299 299 298 298
298 297 296 295 295 295 295 295 294 295 295 294 294 294 294 295 295 294 294 294 294 294 294 294 294 294 294 294 294 294 294 295 296 298 299 299 298 298 299 299 298 298
296 295 295 295 295 295 295 295 295 295 294 294 294 294 294 294 294 294 294 294 294 294 294 294 294 294 293 293 293 293 293 294 295 296 297 298 298 298 298 298 298 298
295 295 295 295 295 295 295 295 294 294 294 294 294 294 294 294 293 293 294 293 294 294 294 294 294 293 293 293 293 293 293 293 294 294 295 296 298 298 298 298 298 297
295 296 295 295 295 295 295 294 294 295 295 295 295 294 294 293 293 293 293 293 293 293 293 293 293 293 293 293 293 293 293 293 293 293 294 294 295 296 296 296 296 296
296 295 295 295 295 295 295 296 297 297 298 298 296 295 294 294 294 294 293 293 293 293 293 293 293 293 293 293 293 293 293 293 293 293 293 293 294 294 294 295 295 295

ECMWFNIL_850_thetae_114.txt.gz
Theta_e
332 331 331 331 330 330 329 327 326 325 324 323 324 322 319 316 315 315 314 313 312 311 310 309 308 307 306 305 304 303 303 302 302 301 301 300 301 301 302 303 303 303
331 331 330 329 329 328 327 325 325 324 323 323 323 320 316 315 314 313 312 311 310 308 308 306 305 304 303 302 302 301 301 300 300 301 300 300 300 301 301 302 302 301
330 329 329 328 328 326 325 324 324 323 323 323 320 316 315 314 313 311 309 309 307 306 305 304 303 302 301 300 300 300 300 300 300 300 300 299 300 300 301 301 300 298
328 328 328 327 326 325 325 324 323 323 323 320 316 314 313 312 311 309 307 306 305 304 302 301 300 299 299 299 299 299 299 299 300 300 300 299 299 300 300 300 298 297
327 326 326 326 325 324 324 323 323 322 319 316 314 312 311 309 308 307 305 304 302 301 299 299 298 298 298 299 299 299 299 299 300 300 299 298 298 299 298 297 297 297
325 324 324 324 324 323 323 322 320 318 315 313 312 311 308 307 306 305 303 301 299 298 297 297 298 298 298 298 298 298 298 298 299 299 298 297 297 297 297 297 297 297
323 323 322 322 322 321 320 319 316 314 313 312 310 308 307 306 304 302 300 298 297 297 296 297 297 297 297 297 297 297 297 297 298 297 297 297 297 296 296 296 296 296
320 319 318 318 317 317 316 315 313 312 312 310 309 307 306 304 301 299 298 297 296 296 296 296 297 297 297 297 297 297 298 298 297 297 297 297 297 296 296 296 296 296
316 315 315 314 314 314 313 312 312 311 310 309 307 306 304 301 298 297 297 296 296 296 296 296 296 297 297 297 297 298 299 299 297 297 297 297 296 296 296 296 296 296
313 313 313 313 313 312 311 310 310 310 308 307 305 303 301 299 297 296 296 296 296 296 296 296 296 297 297 297 298 299 299 298 297 297 297 296 296 296 295 295 295 295
313 313 313 312 312 311 310 309 308 308 307 305 303 301 299 297 296 296 296 296 296 296 296 296 296 297 297 297 298 298 298 297 297 297 296 296 295 295 295 295 295 295
312 312 312 311 311 310 309 308 307 305 304 302 301 299 297 296 296 296 296 296 296 296 296 296 296 297 298 298 298 298 297 296 296 296 296 296 295 295 295 295 295 295
312 311 310 309 308 307 306 305 304 303 302 300 300 298 296 296 296 296 296 296 296 296 296 296 296 296 297 297 297 297 297 296 296 296 296 296 296 296 296 296 295 295
311 311 309 308 307 306 305 303 302 301 300 300 299 297 296 296 296 296 296 296 296 296 296 295 296 296 296 297 297 297 297 296 296 296 297 297 297 297 297 297 296 295
311 310 309 308 307 306 304 303 301 301 300 300 298 296 295 296 296 295 295 295 295 295 295 295 295 295 295 296 296 297 297 296 297 298 298 298 298 298 298 297 297 296
309 309 308 307 306 304 303 302 301 300 299 298 296 295 295 295 295 295 295 295 295 295 295 295 295 295 295 295 296 297 297 297 298 299 299 299 298 298 298 298 297 296
308 307 306 305 304 303 302 301 299 299 298 297 295 295 295 295 295 295 295 295 295 295 295 295 295 295 295 295 296 297 297 297 298 299 299 298 298 298 298 298 297 297
307 306 305 304 303 303 302 301 300 299 298 298 297 295 295 295 295 295 295 295 295 295 295 295 295 295 295 295 296 296 297 298 299 298 298 298 298 299 298 298 297 297
306 305 304 304 303 303 302 301 300 299 299 299 298 295 295 295 295 295 295 295 295 295 295 295 295 294 294 295 295 297 298 299 299 299 298 298 298 299 298 298 298 297
305 304 303 302 302 302 302 301 301 299 298 299 298 295 294 295 295 295 295 295 295 295 295 295 294 294 294 294 295 296 298 298 299 299 298 298 298 298 298 298 297 296
304 303 302 300 300 300 300 301 300 299 298 298 297 295 294 295 295 295 295 295 294 294 294 294 294 294 294 294 294 295 296 297 298 298 298 297 298 298 298 297 296 295
303 302 300 299 299 298 299 299 299 298 297 297 296 295 295 295 295 295 294 294 294 294 294 294 294 293 293 293 293 294 295 296 297 297 297 297 297 297 297 296 295 295
301 300 299 299 298 298 298 298 298 297 296 295 295 295 295 294 294 294 294 294 294 294 294 294 294 293 293 293 293 293 294 295 296 297 296 296 296 296 295 295 294 295
301 300 298 297 297 296 296 296 296 296 295 295 295 294 294 294 294 294 294 294 294 294 293 293 293 293 293 293 293 293 293 293 294 295 295 295 295 295 294 294 295 295
301 299 297 296 295 295 295 295 295 294 294 294 294 294 294 294 294 294 294 293 293 293 293 293 293 293 293 293 293 293 293 293 293 294 294 294 294 294 294 294 295 295
301 298 296 295 295 295 295 295 294 294 294 294 294 294 294 294 294 294 293 293 293 293 293 293 293 293 293 293 293 293 293 293 293 293 293 293 294 294 294 294 294 294

ECMWFNIL_850_thetae_117.txt.gz
Theta_e
334 334 334 333 332 332 331 331 330 329 328 326 325 324 323 321 318 316 315 314 313 312 312 310 309 308 307 306 304 303 302 301 300 300 300 299 299 298 298 298 297 297
333 334 333 333 332 331 330 329 328 327 326 324 323 323 322 319 316 314 313 312 311 311 310 308 307 306 304 303 302 301 300 299 299 299 299 298 298 298 297 297 297 297
333 333 333 332 331 330 329 328 326 325 324 323 322 322 320 316 314 312 311 310 310 309 308 306 305 303 302 301 299 299 299 298 299 299 298 297 297 297 297 297 297 297
332 332 331 330 329 328 328 326 325 323 322 322 321 320 317 314 312 311 310 309 308 307 305 304 302 300 299 299 298 298 298 298 298 298 297 297 297 297 297 296 297 297
331 330 330 329 328 327 326 325 324 323 321 321 320 318 314 312 311 310 309 308 306 304 302 300 299 298 298 298 298 298 297 297 298 297 297 297 296 296 296 296 296 296
330 329 328 327 327 326 325 324 323 322 321 320 319 316 313 311 309 309 307 305 303 301 299 298 297 297 298 298 297 297 297 297 297 297 296 296 296 296 296 296 296 296
328 327 326 326 325 324 324 323 322 321 320 319 317 314 311 309 308 306 305 302 300 298 297 297 297 297 297 297 297 297 297 297 296 296 296 296 296 296 296 296 296 296
327 326 325 324 324 323 323 322 321 320 319 317 315 313 310 307 305 303 301 299 298 297 297 296 297 297 297 297 297 297 297 297 296 296 296 296 296 296 296 296 296 296
324 323 323 323 322 322 321 320 319 318 316 314 312 310 307 305 302 300 298 297 297 297 296 296 297 297 297 297 297 298 297 297 296 296 296 296 296 296 295 295 295 295
321 321 321 321 320 320 319 318 317 315 313 312 310 307 304 302 299 297 297 297 296 296 296 296 297 297 297 297 297 298 297 296 296 296 296 296 295 295 295 295 295 295
319 318 318 317 317 316 316 315 314 313 311 310 307 304 301 299 297 297 297 296 296 296 296 296 297 297 297 297 297 297 296 296 296 296 295 295 295 295 295 295 295 295
316 315 314 314 314 314 313 313 312 311 310 307 304 302 299 297 297 296 296 296 296 296 296 296 297 297 297 297 297 296 296 296 296 295 295 295 295 295 295 294 294 294
313 313 312 313 312 312 312 311 310 309 307 304 302 299 297 296 296 296 296 296 296 296 296 296 297 297 297 297 297 296 296 296 296 295 295 295 295 295 295 295 294 294
312 312 312 312 311 311 310 309 308 307 304 302 299 297 296 296 296 296 296 295 295 296 296 296 296 296 296 296 296 296 296 295 295 295 295 295 295 296 296 295 294 294
312 312 311 311 311 310 309 308 307 305 302 300 299 296 296 296 295 295 295 295 296 295 296 296 296 296 296 296 296 296 295 295 295 295 295 295 296 296 296 295 294 294
311 311 310 310 310 309 308 306 304 303 301 300 298 296 295 295 295 295 295 295 295 295 295 295 295 295 295 295 296 296 295 296 296 295 295 296 297 297 296 295 294 294
311 311 310 308 308 307 306 305 303 302 302 300 297 295 295 295 295 295 295 295 295 295 295 295 295 295 295 295 295 295 296 296 296 295 296 297 297 297 296 296 295 294
311 310 309 308 307 306 306 305 304 303 302 299 297 295 295 295 295 295 295 295 295 295 295 295 295 295 295 295 295 295 296 296 296 296 296 297 297 297 296 296 295 294
310 310 309 308 307 307 306 305 304 303 301 298 295 295 295 295 295 295 295 295 295 295 295 295 295 295 295 295 295 295 296 296 297 296 296 296 296 296 296 295 294 294
310 309 308 308 307 306 305 304 303 301 299 297 296 295 295 295 295 295 295 295 295 295 295 295 295 295 295 295 295 295 295 296 297 296 296 296 296 296 295 295 294 294
309 308 307 307 306 305 304 303 303 301 299 299 297 295 294 295 295 295 295 295 295 295 295 295 295 295 295 295 294 294 295 296 296 296 295 295 295 296 295 294 294 294
308 307 306 306 306 305 304 303 303 301 300 300 298 295 294 295 294 295 295 295 295 295 295 295 295 295 294 294 294 294 294 295 295 295 295 295 295 295 294 294 294 294
307 306 306 305 305 304 303 303 303 302 300 300 298 295 294 294 294 295 295 295 295 295 294 295 295 295 294 294 294 294 294 294 294 294 294 295 294 294 294 294 294 294
307 307 306 306 305 303 302 303 303 301 300 300 298 295 294 294 294 294 295 295 294 294 294 294 295 294 294 294 293 293 293 293 293 294 294 294 294 293 294 294 294 293
307 307 306 305 304 302 301 302 302 301 299 299 298 296 294 294 294 294 295 294 294 294 294 294 294 294 294 294 293 293 293 293 293 293 294 293 293 293 294 294 293 293
306 306 305 304 303 301 300 300 300 300 299 298 297 296 294 294 294 294 294 294 294 294 294 294 294 294 294 293 293 293 293 293 293 293 293 293 293 293 293 293 293 293

ECMWFNIL_850_thetae_120.txt.gz
Theta_e
333 333 333 333 332 331 331 330 330 329 329 328 326 325 324 322 319 315 313 312 311 310 309 308 307 306 304 303 301 300 299 299 299 299 298 298 298 298 298 298 297 297
333 333 333 333 332 331 331 330 329 329 327 326 325 324 323 320 316 313 311 311 309 308 307 306 305 303 302 300 299 299 298 298 299 298 298 298 298 298 298 297 297 297
333 333 333 333 332 331 331 330 329 328 326 325 324 323 321 317 313 311 309 308 307 306 305 303 302 300 299 299 298 298 298 298 298 298 298 298 298 297 297 297 297 296
333 333 333 333 332 331 330 329 329 328 326 325 323 321 319 315 310 308 307 306 305 304 302 301 300 299 298 298 298 298 298 298 298 298 298 298 297 297 297 296 296 296
332 332 332 332 332 331 329 329 328 326 325 323 321 319 317 312 308 306 305 303 302 301 300 299 298 298 298 298 298 298 298 298 298 297 297 297 297 296 296 296 296 296
332 332 332 331 330 329 329 328 327 325 324 322 320 318 314 309 305 304 302 301 300 299 299 298 298 297 297 297 297 297 298 298 297 297 297 297 296 296 296 296 296 296
332 332 331 330 329 328 327 326 325 324 322 320 319 316 311 306 303 302 301 300 299 298 298 297 297 297 297 297 297 297 297 297 297 296 296 296 296 296 296 296 296 296
332 331 330 329 328 327 326 325 324 322 320 319 318 314 308 304 302 300 299 299 298 297 297 297 297 297 297 297 297 297 297 297 296 296 296 296 295 296 296 295 296 296
330 329 328 327 327 326 324 323 322 321 319 318 315 311 306 303 301 299 298 298 297 297 297 297 297 297 297 297 297 297 297 296 296 296 295 295 295 295 295 295 295 295
328 327 326 325 324 323 323 322 320 319 317 316 313 309 305 302 299 298 297 297 297 297 296 296 297 297 297 297 297 297 296 296 295 295 295 295 295 295 295 295 295 295
326 325 324 323 322 322 321 320 319 317 316 313 310 306 302 299 297 297 297 296 296 296 296 296 296 297 297 296 296 296 296 295 295 295 295 295 295 295 295 295 295 295
323 323 322 321 320 319 318 318 316 315 314 311 307 303 300 297 297 296 296 296 296 296 296 296 296 297 297 296 296 296 296 295 295 295 295 295 295 295 295 295 295 295
320 319 319 318 318 317 316 315 314 313 312 309 305 301 298 296 296 296 296 296 296 296 296 296 297 297 297 296 296 296 296 295 295 295 295 295 295 295 295 295 295 294
317 316 316 316 315 315 314 313 313 312 309 306 302 299 296 296 296 296 296 296 296 296 296 296 296 296 296 296 296 296 295 295 295 295 295 295 295 295 294 294 294 294
315 314 314 313 313 313 312 312 311 310 306 302 299 297 296 295 296 295 295 296 296 296 296 296 296 296 296 296 295 295 295 295 295 295 295 295 295 294 294 294 294 294
314 313 312 312 312 312 311 310 310 307 303 300 297 296 295 295 295 295 295 295 295 296 296 295 296 296 296 295 295 295 295 295 295 295 295 295 295 294 294 294 294 294
313 312 312 311 311 311 310 309 308 305 302 299 297 295 295 295 295 295 295 295 295 295 295 295 295 295 295 295 295 295 295 295 295 295 294 294 294 294 294 294 294 294
312 312 311 311 310 310 309 308 307 304 302 300 297 295 295 295 295 295 295 295 295 295 295 295 295 295 295 295 295 295 295 295 295 294 294 294 294 294 294 294 294 294
311 311 311 310 309 309 308 307 305 302 302 301 297 295 295 295 295 295 295 295 295 295 295 295 295 295 295 295 295 295 295 295 294 294 294 294 294 294 294 294 294 294
311 310 310 309 308 308 306 305 303 301 302 301 297 295 295 295 295 295 295 295 295 295 295 295 295 295 295 295 295 295 295 295 294 294 294 293 293 293 293 294 294 294
311 310 309 309 308 307 306 305 303 302 302 300 296 294 295 294 294 295 295 295 295 295 295 295 295 295 295 295 295 294 294 294 294 294 293 293 293 293 293 293 293 293
311 310 309 308 307 306 305 304 302 301 301 299 296 295 294 294 294 295 295 295 295 295 294 294 295 295 295 294 294 294 294 294 294 294 293 293 293 293 293 293 293 293
311 310 309 307 306 306 305 303 301 300 300 300 298 295 294 294 294 294 294 294 295 295 294 294 295 294 295 294 294 294 294 294 294 293 293 293 293 293 293 293 293 293
311 310 309 307 306 305 304 302 301 301 301 301 299 296 294 294 294 294 294 294 294 294 294 294 294 295 295 294 294 294 294 293 294 293 293 293 293 293 293 292 293 292
310 310 309 307 305 304 302 301 301 302 302 302 300 297 294 294 294 294 294 294 294 294 294 294 294 294 294 295 294 294 294 294 293 293 293 293 293 293 293 292 292 292
310 310 308 306 304 303 302 302 302 302 302 302 301 298 294 293 294 294 294 294 294 294 294 294 294 294 294 294 294 294 294 294 293 293 293 293 293 293 292 292 292 292